Date StartTime U_cm/s V_cm/s W_cm/s Ustd_cm/s Vstd_cm/s Wstd_cm/s Uvar_(cm/s)^2 Vvar_(cm/s)^2 Wvar_(cm/s)^2 KE_(m/s)^2 TurbulentKE_(m/s)^2 HorizWindSpeed_cm/s FrictionSpeec_cm/s DragCoef SpeedOfSound_m/s SonicTemperature_C Pressure_mb 
08/18/2014  00:00:00      -36.781       13.897       -3.036       20.119       16.710        9.184      404.765      279.224       84.348        0.116        0.038       39.319       11.256        0.082      344.823       21.915      861.617
08/18/2014  00:01:00       24.044       23.939        0.758       32.558       18.170        8.412     1060.053      330.149       70.760        0.131        0.073       33.929        6.270        0.034      345.229       22.611      861.611
08/18/2014  00:02:00       20.388      -27.799        0.061       39.746       35.314       16.374     1579.740     1247.069      268.116        0.214        0.155       34.474       13.625        0.156      344.981       22.185      861.598
08/18/2014  00:03:00       -1.063      -49.580      -14.768       33.065       32.535       25.211     1093.317     1058.550      635.616        0.273        0.139       49.591       22.181        0.200      344.947       22.127      861.620
08/18/2014  00:04:00      -22.101      -26.351        6.555       21.526       29.522       19.517      463.381      871.556      380.929        0.147        0.086       34.392       16.379        0.227      344.997       22.215      861.623
08/18/2014  00:05:00      -53.331      -76.873        1.000       59.952       28.320       22.385     3594.224      802.040      501.107        0.683        0.245       93.561       20.634        0.049      345.291       22.715      861.615
08/18/2014  00:06:00      -20.532      -13.109       13.317       39.682       35.837       17.303     1574.679     1284.283      299.401        0.196        0.158       24.360       23.315        0.916      345.124       22.429      861.609
08/18/2014  00:07:00       12.786      -39.982        2.098       33.026       32.096       12.827     1090.697     1030.153      164.528        0.203        0.114       41.977       10.689        0.065      345.088       22.370      861.610
08/18/2014  00:08:00      -15.252      -26.822        2.984       17.815       15.382       10.422      317.363      236.601      108.608        0.081        0.033       30.855        8.661        0.079      345.187       22.538      861.612
08/18/2014  00:09:00      -56.530      -46.760        1.519       31.691       23.693       15.028     1004.317      561.356      225.830        0.359        0.090       73.364       10.407        0.020      345.114       22.412      861.618
08/18/2014  00:10:00      -23.966       -8.036        7.070       23.513       13.238       11.455      552.856      175.258      131.212        0.077        0.043       25.277        9.251        0.134      345.119       22.422      861.639
08/18/2014  00:11:00      -31.609      -25.672       -1.075       21.749       24.120       12.215      473.024      581.781      149.208        0.143        0.060       40.721        8.844        0.047      345.060       22.321      861.641
08/18/2014  00:12:00      -20.988        4.833        3.500       19.665       12.529        9.731      386.729      156.973       94.698        0.056        0.032       21.537        5.916        0.075      344.964       22.156      861.641
08/18/2014  00:13:00      -16.915       35.507       -1.900       17.594       22.499       11.050      309.539      506.198      122.113        0.124        0.047       39.330       11.365        0.084      344.864       21.986      861.644
08/18/2014  00:14:00       -8.713       60.288       -0.892       15.684       37.790       18.747      245.989     1428.079      351.451        0.287        0.101       60.915       20.733        0.116      344.602       21.538      861.671
08/18/2014  00:15:00       12.889       26.925        3.507       14.306       12.006       10.507      204.661      144.151      110.393        0.068        0.023       29.851        7.221        0.059      344.620       21.568      861.674
08/18/2014  00:16:00      -25.609       12.565       -4.986       18.867       14.548        6.333      355.949      211.633       40.103        0.072        0.030       28.525        8.133        0.081      344.733       21.759      861.683
08/18/2014  00:17:00      -51.679       37.045      -13.409       33.570       13.310       14.271     1126.915      177.161      203.674        0.287        0.075       63.585       17.385        0.075      344.784       21.848      861.685
08/18/2014  00:18:00      -66.596      -11.294       -6.554       34.006       28.476       20.710     1156.433      810.881      428.897        0.350        0.120       67.547        5.985        0.008      344.867       21.991      861.685
08/18/2014  00:19:00      -82.163      -19.917       -4.669       20.678       17.488       13.705      427.562      305.816      187.818        0.405        0.046       84.543       12.279        0.021      344.433       21.247      861.701
08/18/2014  00:20:00      -41.269      -46.119      -13.058       29.562       28.978       17.344      873.923      839.741      300.813        0.301        0.101       61.888       13.552        0.048      344.979       22.181      861.706
08/18/2014  00:21:00       -4.388      -67.843      -24.563       18.419       34.696       18.151      339.263     1203.833      329.444        0.355        0.094       67.985       14.676        0.047      345.143       22.462      861.712
08/18/2014  00:22:00      -30.390      -35.583       -4.397       17.860       18.997        9.310      318.974      360.894       86.679        0.149        0.038       46.795        6.465        0.019      345.189       22.542      861.724
08/18/2014  00:23:00      -27.366      -23.499        2.250       15.035        8.739        7.371      226.059       76.372       54.326        0.083        0.018       36.071        4.497        0.016      345.084       22.362      861.735
08/18/2014  00:24:00       -0.945      -17.230        1.404       13.279       13.114        7.119      176.334      171.985       50.678        0.035        0.020       17.256        8.447        0.240      344.969       22.164      861.729
08/18/2014  00:25:00       -3.132       -9.940       -5.727       19.072       12.893        5.336      363.736      166.226       28.468        0.035        0.028       10.421        3.741        0.129      345.038       22.284      861.716
08/18/2014  00:26:00      -85.589      -25.381      -11.249       20.453       18.835       13.945      418.305      354.750      194.469        0.453        0.048       89.273        6.961        0.006      344.305       21.029      861.739
08/18/2014  00:27:00      -57.294      -32.438        0.434       27.838       23.258       15.486      774.935      540.919      239.805        0.295        0.078       65.840       11.353        0.030      344.098       20.677      861.769
08/18/2014  00:28:00       -9.804       19.664        2.610       21.080       12.105        9.892      444.349      146.536       97.849        0.059        0.034       21.973       10.636        0.234      344.103       20.685      861.770
08/18/2014  00:29:00       33.396       16.880       -2.531       12.023       10.182        6.913      144.550      103.668       47.792        0.085        0.015       37.419        5.053        0.018      344.514       21.387      861.772
08/18/2014  00:30:00       63.400       39.322        5.293       13.012        7.736        7.596      169.311       59.848       57.697        0.294        0.014       74.604        6.042        0.007      344.482       21.332      861.778
08/18/2014  00:31:00       17.890      -26.420       -3.506       25.379       38.432       10.505      644.096     1477.014      110.345        0.163        0.112       31.908       17.533        0.302      344.539       21.428      861.787
08/18/2014  00:32:00       29.040      -21.761        6.164       17.085       20.835       14.590      291.891      434.112      212.873        0.115        0.047       36.288        9.447        0.068      344.873       22.000      861.787
08/18/2014  00:33:00      -15.659       -2.450        7.604       32.582       16.748       14.557     1061.568      280.485      211.893        0.093        0.078       15.849       19.989        1.591      344.417       21.220      861.780
08/18/2014  00:34:00      -17.979        0.434      -10.930       15.850       18.982       13.882      251.233      360.308      192.706        0.062        0.040       17.985       11.872        0.436      344.648       21.614      861.780
08/18/2014  00:35:00       17.878      -14.141        4.990       15.208       15.321       13.837      231.297      234.738      191.457        0.060        0.033       22.795       11.105        0.237      344.816       21.902      861.759
08/18/2014  00:36:00        0.253       57.381        2.357        9.547       29.781       16.292       91.151      886.907      265.442        0.227        0.062       57.381       17.986        0.098      344.800       21.877      861.749
08/18/2014  00:37:00       -6.312      105.169      -13.602       12.916       12.338        7.106      166.816      152.216       50.496        0.583        0.018      105.359        5.032        0.002      344.920       22.083      861.755
08/18/2014  00:38:00      -24.878       76.408      -12.803       14.085       19.225        9.676      198.379      369.589       93.621        0.364        0.033       80.356        7.174        0.008      344.932       22.101      861.757
08/18/2014  00:39:00      -21.934       65.412      -13.836       10.774       10.505        5.524      116.080      110.356       30.510        0.260        0.013       68.991        4.216        0.004      345.009       22.234      861.749
08/18/2014  00:40:00      -32.714       24.813      -10.381        7.979       12.111        6.449       63.669      146.668       41.594        0.102        0.013       41.060        6.283        0.023      344.832       21.931      861.743
08/18/2014  00:41:00      -61.778       -6.619       -6.126       16.593        9.098        9.116      275.313       82.782       83.095        0.217        0.022       62.131        8.649        0.019      344.406       21.203      861.747
08/18/2014  00:42:00      -76.947       11.246      -10.078       16.901       13.997       10.969      285.639      195.911      120.320        0.338        0.030       77.764        7.311        0.009      344.191       20.834      861.739
08/18/2014  00:43:00      -59.288       12.215       -3.101       23.083       19.009       14.474      532.821      361.335      209.492        0.239        0.055       60.533        9.137        0.023      344.481       21.331      861.740
08/18/2014  00:44:00      -70.369       -9.651      -11.170       30.241       15.344       13.052      914.493      235.448      170.356        0.324        0.066       71.028       16.304        0.053      344.269       20.967      861.753
08/18/2014  00:45:00      -95.501      -37.393      -16.032       21.909       17.768       11.260      479.991      315.710      126.790        0.585        0.046      102.560       10.935        0.011      343.990       20.491      861.760
08/18/2014  00:46:00      -41.836      -31.955       -8.777       22.529       14.406       11.776      507.562      207.547      138.673        0.185        0.043       52.644       10.880        0.043      343.919       20.369      861.749
08/18/2014  00:47:00      -34.461      -27.827       -2.047       14.911        9.751        6.830      222.348       95.089       46.655        0.117        0.018       44.293        5.112        0.013      344.113       20.701      861.741
08/18/2014  00:48:00      -12.079      -37.488       -4.028        8.530        4.574        3.509       72.761       20.921       12.316        0.084        0.005       39.386        3.420        0.008      344.787       21.853      861.753
08/18/2014  00:49:00      -37.421      -43.532       -5.397       24.339       12.887        7.378      592.385      166.071       54.437        0.207        0.041       57.405        6.106        0.011      344.495       21.356      861.755
08/18/2014  00:50:00      -66.879      -52.247       -2.711       30.975       26.682       16.484      959.455      711.953      271.732        0.458        0.097       84.868        9.839        0.013      344.127       20.726      861.749
08/18/2014  00:51:00      -23.969      -59.933        7.559       35.463       48.910       19.218     1257.622     2392.174      369.331        0.412        0.201       64.548       23.790        0.136      344.286       20.997      861.745
08/18/2014  00:52:00      -46.339      -95.691       -0.079       27.308       25.477       13.672      745.712      649.098      186.910        0.644        0.079      106.321       11.588        0.012      344.832       21.933      861.739
08/18/2014  00:53:00      -46.635     -120.263       -5.233       25.335       44.509       20.790      641.885     1981.023      432.235        0.986        0.153      128.989       14.406        0.012      344.880       22.013      861.727
08/18/2014  00:54:00      -17.832      -52.843        3.718       33.148       14.329       16.445     1098.818      205.323      270.428        0.235        0.079       55.770       12.782        0.053      344.718       21.734      861.714
08/18/2014  00:55:00      -14.663      -36.829        4.403       28.641       16.859       16.680      820.291      284.213      278.210        0.149        0.069       39.640       10.978        0.077      344.628       21.582      861.719
08/18/2014  00:56:00      -35.484       -9.610        2.585       66.121       15.174       17.977     4372.014      230.244      323.178        0.314        0.246       36.762       26.020        0.501      344.222       20.887      861.728
08/18/2014  00:57:00      -64.348        9.220        1.877       34.799       23.922       18.001     1210.993      572.273      324.023        0.317        0.105       65.005       16.868        0.067      343.796       20.160      861.735
08/18/2014  00:58:00      -67.378      -14.000        4.962       42.951       21.039       16.565     1844.796      442.630      274.415        0.366        0.128       68.817       19.488        0.080      343.700       19.996      861.749
08/18/2014  00:59:00      -65.632      -16.011        4.394       38.486       22.445       17.820     1481.148      503.780      317.546        0.344        0.115       67.556       16.412        0.059      343.707       20.007      861.767
08/18/2014  01:00:00      -49.818      -26.688       -0.416       37.207       20.736       17.287     1384.339      429.963      298.830        0.265        0.106       56.516       20.201        0.128      343.817       20.196      861.782
08/18/2014  01:01:00      -25.754      -29.224       10.402       24.824       20.092       11.869      616.217      403.706      140.876        0.139        0.058       38.952       12.847        0.109      343.987       20.486      861.765
08/18/2014  01:02:00      -33.769       -9.494        2.526       21.461       15.787       10.447      460.562      249.226      109.137        0.103        0.041       35.079       11.602        0.109      344.085       20.653      861.750
08/18/2014  01:03:00     -102.062       20.809       -8.974       27.507       17.116       15.130      756.631      292.946      228.915        0.610        0.064      104.162       13.933        0.018      343.863       20.275      861.765
08/18/2014  01:04:00      -90.964      -24.328       -2.140       28.347       21.158       15.292      803.567      447.677      233.845        0.518        0.074       94.161       12.799        0.018      343.777       20.127      861.753
08/18/2014  01:05:00      -70.876        4.162        0.127       29.389       28.822       13.585      863.684      830.714      184.556        0.346        0.094       70.998       14.015        0.039      343.706       20.006      861.740
08/18/2014  01:06:00      -84.468       26.266       -6.728       26.529       24.966       17.644      703.787      623.306      311.306        0.475        0.082       88.457        8.286        0.009      343.621       19.860      861.728
08/18/2014  01:07:00     -102.111       20.478      -13.207       27.270       34.652       19.404      743.634     1200.750      376.503        0.667        0.116      104.144       15.125        0.021      343.560       19.757      861.731
08/18/2014  01:08:00      -81.181      -21.058       -7.049       37.565       23.515       16.339     1411.109      552.933      266.960        0.466        0.112       83.868       19.482        0.054      343.486       19.631      861.721
08/18/2014  01:09:00      -92.099       11.992       -9.197       28.476       25.811       14.470      810.882      666.182      209.380        0.520        0.084       92.877       10.635        0.013      343.622       19.862      861.713
08/18/2014  01:10:00      -79.727       16.430       -4.045       27.744       21.617       15.796      769.738      467.314      249.507        0.406        0.074       81.402       11.541        0.020      343.804       20.172      861.712
08/18/2014  01:11:00      -53.314       -8.190       -0.723       26.166       21.392       14.968      684.674      457.634      224.044        0.214        0.068       53.940       11.496        0.045      343.740       20.063      861.706
08/18/2014  01:12:00      -80.159        3.507       -1.393       30.189       27.156       16.279      911.381      737.453      264.992        0.418        0.096       80.235       11.373        0.020      343.707       20.007      861.698
08/18/2014  01:13:00      -74.995       -3.486       -1.739       33.708       25.000       18.620     1136.219      624.986      346.694        0.387        0.105       75.076       18.495        0.061      343.754       20.088      861.699
08/18/2014  01:14:00      -61.028      -31.144       -3.814       13.837       12.436       10.439      191.458      154.660      108.974        0.258        0.023       68.515        5.687        0.007      343.575       19.782      861.678
08/18/2014  01:15:00      -88.933      -13.269       -9.290       19.869       18.135       12.014      394.793      328.867      144.331        0.452        0.043       89.917        9.251        0.011      343.554       19.749      861.659
08/18/2014  01:16:00      -78.888       -9.020       -2.720       38.026       14.253       14.947     1445.942      203.141      223.407        0.409        0.094       79.402       18.111        0.052      343.438       19.550      861.663
08/18/2014  01:17:00      -95.515      -50.271       -3.340       35.733       25.683       13.127     1276.834      659.607      172.310        0.688        0.105      107.936       16.408        0.023      343.441       19.554      861.671
08/18/2014  01:18:00      -89.436      -43.109       -4.382       19.853       17.447       12.551      394.153      304.383      157.525        0.537        0.043       99.283       10.891        0.012      343.665       19.936      861.661
08/18/2014  01:19:00      -46.139      -28.134        3.753       19.428       16.259       11.432      377.460      264.344      130.694        0.185        0.039       54.040       11.753        0.047      343.580       19.792      861.647
08/18/2014  01:20:00       -9.288      -37.705       -1.044       28.681       21.154       10.323      822.619      447.478      106.571        0.144        0.069       38.833        6.971        0.032      343.721       20.032      861.644
08/18/2014  01:21:00      -27.798      -64.306       -6.730       23.560       16.327       12.742      555.059      266.561      162.357        0.297        0.049       70.057        8.295        0.014      343.956       20.433      861.631
08/18/2014  01:22:00      -38.282      -57.483        2.446       33.604       26.591       17.140     1129.252      707.105      293.771        0.345        0.107       69.064       16.632        0.058      343.926       20.382      861.609
08/18/2014  01:23:00      -95.627      -71.772       -3.697       30.710       24.176       18.917      943.079      584.496      357.846        0.810        0.094      119.565       10.922        0.008      343.800       20.168      861.613
08/18/2014  01:24:00      -55.216      -43.890        5.367       37.768       23.962       21.518     1426.424      574.167      463.018        0.373        0.123       70.535       14.792        0.044      343.604       19.832      861.612
08/18/2014  01:25:00      -84.011      -63.652        0.050       36.294       29.441       21.197     1317.227      866.782      449.307        0.687        0.132      105.401       16.879        0.026      343.794       20.156      861.594
08/18/2014  01:26:00      -64.032      -54.988        2.668       41.847       37.473       20.808     1751.210     1404.203      432.961        0.536        0.179       84.403       23.063        0.075      343.807       20.179      861.591
08/18/2014  01:27:00      -77.489      -44.464       -1.418       33.101       25.807       19.400     1095.668      665.984      376.351        0.506        0.107       89.340       18.485        0.043      343.712       20.016      861.575
08/18/2014  01:28:00      -98.739      -39.049       -7.532       18.501       23.862       13.615      342.279      569.415      185.380        0.621        0.055      106.180       10.909        0.011      343.632       19.880      861.560
08/18/2014  01:29:00      -61.691      -18.985        3.130       39.528       26.453       17.206     1562.489      699.756      296.056        0.337        0.128       64.546       20.440        0.100      343.396       19.477      861.554
08/18/2014  01:30:00     -109.134      -34.914        0.453       33.480       22.724       12.920     1120.892      516.360      166.922        0.747        0.090      114.583       12.523        0.012      343.354       19.406      861.543
08/18/2014  01:31:00     -110.246      -49.468        0.310       30.858       21.256       11.729      952.193      451.834      137.571        0.807        0.077      120.835       12.676        0.011      343.574       19.781      861.535
08/18/2014  01:32:00     -121.837      -66.630        2.184       38.793       34.131       20.545     1504.871     1164.909      422.094        1.119        0.155      138.866       21.065        0.023      343.530       19.705      861.538
08/18/2014  01:33:00     -105.235      -49.748        2.057       70.209       33.608       25.077     4929.368     1129.507      628.832        1.012        0.334      116.402       27.238        0.055      343.557       19.751      861.537
08/18/2014  01:34:00     -151.913      -77.078        4.016       36.951       39.600       22.381     1365.395     1568.166      500.928        1.623        0.172      170.348       17.027        0.010      343.571       19.775      861.522
08/18/2014  01:35:00     -104.536      -61.955        3.695       55.495       46.333       23.284     3079.740     2146.758      542.128        1.027        0.288      121.516       29.065        0.057      343.579       19.791      861.529
08/18/2014  01:36:00     -106.614      -57.357        1.768       30.806       26.534       15.906      949.012      704.060      253.012        0.828        0.095      121.064       13.495        0.012      343.596       19.818      861.519
08/18/2014  01:37:00     -109.730      -78.064       -0.714       32.568       45.707       19.214     1060.691     2089.135      369.161        1.083        0.176      134.665       13.434        0.010      343.650       19.911      861.508
08/18/2014  01:38:00     -131.835      -80.381       -2.159       41.632       33.165       20.707     1733.240     1099.884      428.793        1.355        0.163      154.408       19.075        0.015      343.784       20.141      861.501
08/18/2014  01:39:00     -140.854      -76.236       -9.478       61.482       73.164       36.287     3780.010     5352.901     1316.781        1.809        0.522      160.162       33.005        0.042      343.883       20.306      861.490
08/18/2014  01:40:00     -126.083      -77.431        2.053       51.449       39.934       31.200     2646.954     1594.712      973.429        1.355        0.261      147.961       30.439        0.042      343.753       20.088      861.474
08/18/2014  01:41:00     -142.759      -82.314       -3.822       54.658       36.938       23.912     2987.466     1364.445      571.772        1.605        0.246      164.790       24.502        0.022      343.756       20.091      861.466
08/18/2014  01:42:00     -125.975      -62.318        2.048       53.673       33.081       22.160     2880.797     1094.361      491.055        1.211        0.223      140.546       24.629        0.031      343.755       20.090      861.468
08/18/2014  01:43:00     -100.753      -70.701        1.619       40.959       42.706       24.695     1677.671     1823.774      609.841        0.963        0.206      123.085       22.292        0.033      343.741       20.066      861.459
08/18/2014  01:44:00      -93.081      -46.047        5.647       60.883       39.142       30.665     3706.753     1532.096      940.354        0.850        0.309      103.848       37.709        0.132      343.712       20.017      861.461
08/18/2014  01:45:00      -84.962      -59.674       -1.750       45.883       32.506       24.932     2105.292     1056.667      621.587        0.728        0.189      103.824       17.649        0.029      343.744       20.072      861.464
08/18/2014  01:46:00      -96.811      -79.566        4.317       45.467       32.016       23.813     2067.267     1024.999      567.065        0.969        0.183      125.312       25.470        0.041      343.779       20.132      861.456
08/18/2014  01:47:00      -47.760      -44.348        7.084       40.056       35.775       21.577     1604.451     1279.879      465.565        0.382        0.167       65.175       18.248        0.078      343.723       20.037      861.455
08/18/2014  01:48:00      -73.055      -28.740        9.424       41.039       30.530       25.996     1684.201      932.063      675.805        0.477        0.165       78.505       22.438        0.082      343.673       19.950      861.465
08/18/2014  01:49:00     -128.856     -106.230       -4.515       65.438       43.835       28.947     4282.097     1921.486      837.929        1.747        0.352      166.999       26.731        0.026      343.766       20.107      861.461
08/18/2014  01:50:00      -72.127      -60.054        4.988       35.910       39.768       24.590     1289.548     1581.524      604.686        0.615        0.174       93.855       22.299        0.056      343.754       20.087      861.456
08/18/2014  01:51:00      -80.954      -84.745        0.984       43.721       53.200       21.917     1911.484     2830.209      480.338        0.948        0.261      117.198       17.195        0.022      343.850       20.253      861.469
08/18/2014  01:52:00      -51.960      -69.801        2.511       36.315       28.930       16.350     1318.790      836.953      267.324        0.500        0.121       87.017       14.036        0.026      343.864       20.277      861.480
08/18/2014  01:53:00      -22.564      -85.560        1.966       32.499       36.460       19.398     1056.213     1329.365      376.292        0.530        0.138       88.485       17.421        0.039      343.964       20.446      861.477
08/18/2014  01:54:00      -38.807      -54.556        5.915       43.149       36.459       20.151     1861.807     1329.277      406.063        0.406        0.180       66.950       22.990        0.118      343.937       20.401      861.480
08/18/2014  01:55:00      -67.767      -67.421       -7.609       36.452       45.861       21.378     1328.760     2103.276      457.029        0.654        0.194       95.593       14.457        0.023      343.894       20.327      861.475
08/18/2014  01:56:00     -114.471      -54.464       -2.965       45.877       32.080       25.597     2104.725     1029.115      655.204        0.993        0.189      126.767       18.757        0.022      343.928       20.386      861.475
08/18/2014  01:57:00      -37.012      -41.375       -2.703       42.358       22.702       20.963     1794.188      515.383      439.435        0.292        0.137       55.514       22.838        0.169      343.868       20.283      861.471
08/18/2014  01:58:00      -22.362      -28.014        1.576       23.784       19.210       11.108      565.674      369.016      123.394        0.117        0.053       35.845       11.422        0.102      344.008       20.522      861.481
08/18/2014  01:59:00      -13.114      -40.807        8.690       37.574       35.877       16.608     1411.791     1287.139      275.826        0.244        0.149       42.862       12.007        0.078      343.974       20.464      861.488
08/18/2014  02:00:00      -47.933      -35.704       -2.424       20.371       17.550       17.683      414.958      308.008      312.699        0.231        0.052       59.769        9.854        0.027      344.099       20.679      861.492
08/18/2014  02:01:00      -11.436      -63.696       -2.563       35.115       19.791       15.933     1233.064      391.681      253.849        0.304        0.094       64.715       11.590        0.032      343.990       20.492      861.517
08/18/2014  02:02:00       -9.752      -63.826        3.594       18.739       48.309       20.152      351.168     2333.730      406.104        0.364        0.155       64.567       20.066        0.097      344.016       20.537      861.521
08/18/2014  02:03:00       11.728       25.535        9.312       25.504       16.723       14.195      650.459      279.657      201.508        0.100        0.057       28.099        8.438        0.090      343.896       20.330      861.532
08/18/2014  02:04:00       28.436       32.207       28.697       28.086       21.608       23.148      788.811      466.899      535.846        0.223        0.090       42.964       12.572        0.086      343.505       19.664      861.531
08/18/2014  02:05:00       69.308       16.301       10.355       35.456       34.656       22.873     1257.135     1201.041      523.154        0.408        0.149       71.199        8.123        0.013      343.224       19.185      861.545
08/18/2014  02:06:00       82.865       38.946       19.393       54.315       39.985       27.755     2950.110     1598.811      770.317        0.704        0.266       91.561       24.122        0.069      342.980       18.770      861.561
08/18/2014  02:07:00       96.429       35.328       25.030       64.860       52.781       39.912     4206.858     2785.844     1592.961        0.988        0.429      102.697       29.180        0.081      342.853       18.554      861.559
08/18/2014  02:08:00       95.349       25.148        9.942       44.629       32.638       25.542     1991.765     1065.233      652.371        0.677        0.185       98.610       23.298        0.056      342.868       18.580      861.576
08/18/2014  02:09:00       94.296       24.407       32.100       53.987       38.617       35.766     2914.550     1491.283     1279.224        0.810        0.284       97.404       28.770        0.087      343.002       18.807      861.571
08/18/2014  02:10:00        2.139       15.672       32.015       16.119       21.197       13.034      259.830      449.326      169.877        0.108        0.044       15.818        6.532        0.171      343.065       18.914      861.595
08/18/2014  02:11:00        2.532       -3.117       22.707       16.461       30.586       17.885      270.968      935.516      319.866        0.103        0.076        4.016       18.616       21.486      343.085       18.948      861.585
08/18/2014  02:12:00       28.351      -27.111       26.778       26.664       34.349       24.346      710.970     1179.881      592.744        0.237        0.124       39.227       25.548        0.424      343.114       18.998      861.572
08/18/2014  02:13:00       31.647       14.916       38.872       42.788       35.077       34.176     1830.809     1230.418     1168.017        0.348        0.211       34.986       28.654        0.671      343.024       18.845      861.557
08/18/2014  02:14:00       30.901      -24.559       35.976       35.125       53.167       42.386     1233.782     2826.739     1796.567        0.435        0.293       39.472       44.608        1.277      343.211       19.164      861.545
08/18/2014  02:15:00        5.006      -88.814      -15.440       30.461       36.893       20.325      927.857     1361.062      413.087        0.543        0.135       88.955       21.752        0.060      343.457       19.582      861.537
08/18/2014  02:16:00       -5.234       -9.525       -5.150       15.994       12.910       12.183      255.797      166.673      148.416        0.036        0.029       10.868        9.505        0.765      343.237       19.209      861.523
08/18/2014  02:17:00       31.772       46.451       28.197       45.896       47.840       36.517     2106.488     2288.704     1333.498        0.484        0.286       56.277       24.003        0.182      343.210       19.161      861.509
08/18/2014  02:18:00       20.576       57.336       -1.793       31.750       34.583       22.571     1008.093     1196.015      509.431        0.321        0.136       60.916       15.822        0.067      342.825       18.504      861.497
08/18/2014  02:19:00       -4.437      106.745      -14.888       14.496       16.161        7.281      210.129      261.187       53.007        0.608        0.026      106.837        4.416        0.002      343.026       18.847      861.505
08/18/2014  02:20:00       -2.198       63.085      -16.110       22.657       19.868       11.196      513.344      394.751      125.341        0.264        0.052       63.123        7.658        0.015      343.196       19.138      861.528
08/18/2014  02:21:00       -9.994       44.024       -2.525       22.610       24.982       13.974      511.194      624.112      195.265        0.169        0.067       45.144       11.520        0.065      343.156       19.070      861.524
08/18/2014  02:22:00       20.579       20.063       -4.177       16.054       11.764        5.814      257.729      138.398       33.808        0.064        0.021       28.740        5.817        0.041      343.258       19.242      861.521
08/18/2014  02:23:00       -1.437        1.802       -1.780        9.426        7.997        5.073       88.851       63.947       25.734        0.009        0.009        2.305        4.495        3.803      343.264       19.253      861.542
08/18/2014  02:24:00      -17.420       -3.236       -2.405        8.224       11.054        8.054       67.636      122.184       64.867        0.029        0.013       17.718        7.975        0.203      343.247       19.224      861.556
08/18/2014  02:25:00      -39.039      -17.650       -3.659       12.122       10.464        5.980      146.932      109.504       35.764        0.107        0.015       42.844        4.079        0.009      343.232       19.199      861.556
08/18/2014  02:26:00      -34.060       -6.647       -0.337       11.472       14.156        5.270      131.597      200.394       27.773        0.078        0.018       34.702        5.898        0.029      343.176       19.103      861.537
08/18/2014  02:27:00      -38.982      -19.903       -6.213       21.879       12.433       10.063      478.676      154.575      101.260        0.134        0.037       43.769        7.968        0.033      343.257       19.241      861.532
08/18/2014  02:28:00      -80.089       12.234       -2.503       13.829       12.222        6.534      191.243      149.380       42.697        0.348        0.019       81.018        4.076        0.003      343.106       18.984      861.521
08/18/2014  02:29:00      -48.048       39.457      -10.768       10.856       17.567        8.602      117.858      308.610       73.988        0.224        0.025       62.173        8.415        0.018      343.109       18.989      861.504
08/18/2014  02:30:00      -64.587       14.832       -6.898       25.251       21.802       14.369      637.623      475.339      206.467        0.288        0.066       66.268       11.406        0.030      343.040       18.871      861.510
08/18/2014  02:31:00      -48.325      -22.479        2.120       25.934       21.276       11.343      672.583      452.673      128.668        0.205        0.063       53.297        9.430        0.031      342.742       18.365      861.522
08/18/2014  02:32:00      -59.089       -3.750       -0.106       43.593       23.804       14.946     1900.325      566.635      223.385        0.310        0.135       59.208       17.919        0.092      342.659       18.223      861.510
08/18/2014  02:33:00      -65.881      -19.599       -2.547       32.380       15.793       13.909     1048.476      249.433      193.457        0.311        0.075       68.735       16.871        0.060      342.719       18.326      861.496
08/18/2014  02:34:00     -109.500      -18.209      -15.462       23.050       16.273       10.915      531.322      264.810      119.145        0.674        0.046      111.003        6.722        0.004      342.845       18.540      861.500
08/18/2014  02:35:00      -53.419      -33.604        2.793       36.277       30.004       20.199     1316.008      900.226      407.985        0.331        0.131       63.109       19.924        0.100      342.689       18.274      861.499
08/18/2014  02:36:00      -98.248      -10.555        2.264       54.531       30.764       22.156     2973.595      946.428      490.897        0.709        0.221       98.814       25.826        0.068      342.641       18.194      861.491
08/18/2014  02:37:00      -68.505       -0.676       -1.183       37.474       30.576       17.760     1404.301      934.865      315.400        0.367        0.133       68.508       13.578        0.039      342.494       17.943      861.481
08/18/2014  02:38:00     -108.073       23.065       -1.727       34.207       28.122       18.724     1170.133      790.831      350.583        0.726        0.116      110.507       15.022        0.018      342.498       17.949      861.470
08/18/2014  02:39:00      -78.793        2.843       -3.268       45.155       22.803       20.733     2038.984      519.966      429.860        0.461        0.149       78.844       24.112        0.094      342.476       17.912      861.469
08/18/2014  02:40:00      -95.066       22.643       -2.133       44.000       30.549       21.236     1935.972      933.212      450.963        0.644        0.166       97.725       12.730        0.017      342.456       17.880      861.462
08/18/2014  02:41:00     -135.167       54.198       -7.023       42.620       25.555       24.412     1816.474      653.056      595.965        1.216        0.153      145.628       21.553        0.022      342.667       18.237      861.454
08/18/2014  02:42:00     -158.185       37.886       -9.707       43.231       22.999       21.195     1868.901      528.947      449.239        1.470        0.142      162.659       18.357        0.013      342.620       18.157      861.451
08/18/2014  02:43:00      -98.187      -15.099       -2.358       39.699       27.588       21.567     1576.047      761.104      465.149        0.634        0.140       99.341       17.884        0.032      342.516       17.981      861.456
08/18/2014  02:44:00     -128.660        3.413      -16.151       30.126       39.368       19.683      907.577     1549.870      387.429        0.983        0.142      128.706       16.213        0.016      342.553       18.042      861.441
08/18/2014  02:45:00      -92.339      -11.297       -9.390       31.914       36.100       17.254     1018.532     1303.233      297.699        0.568        0.131       93.028       16.328        0.031      342.539       18.019      861.425
08/18/2014  02:46:00     -125.662      -33.012       -5.413       40.578       35.450       20.490     1646.538     1256.705      419.835        1.012        0.166      129.926       21.267        0.027      342.711       18.312      861.422
08/18/2014  02:47:00     -184.380       19.729      -13.274       43.936       33.944       25.129     1930.406     1152.210      631.477        1.914        0.186      185.432       15.937        0.007      342.743       18.366      861.414
08/18/2014  02:48:00     -162.318       16.695       -6.738       48.663       41.114       20.999     2368.134     1690.355      440.967        1.558        0.225      163.175       19.359        0.014      342.773       18.416      861.424
08/18/2014  02:49:00     -163.825       13.300      -16.038       31.305       33.911       19.542      979.975     1149.925      381.887        1.489        0.126      164.364       13.398        0.007      342.538       18.018      861.444
08/18/2014  02:50:00     -126.549       -4.667       -9.905       37.625       33.623       19.362     1415.644     1130.483      374.905        0.953        0.146      126.635       10.104        0.006      342.426       17.827      861.447
08/18/2014  02:51:00      -99.874       -3.571      -13.487       59.571       27.913       27.330     3548.759      779.163      746.944        0.762        0.254       99.938       34.448        0.119      342.423       17.822      861.444
08/18/2014  02:52:00     -111.435      -36.896       -1.206       46.256       30.493       21.569     2139.638      929.831      465.223        0.866        0.177      117.385       21.403        0.033      342.443       17.857      861.457
08/18/2014  02:53:00     -112.994       -6.874        0.961       54.120       37.197       27.700     2928.929     1383.643      767.317        0.895        0.254      113.203       30.904        0.075      342.234       17.502      861.448
08/18/2014  02:54:00     -161.824       -0.724      -18.266       36.216       29.505       20.874     1311.602      870.531      435.706        1.457        0.131      161.825       20.363        0.016      342.167       17.387      861.457
08/18/2014  02:55:00     -175.955       14.881      -16.241       26.161       23.693       16.944      684.386      561.346      287.108        1.649        0.077      176.583        7.449        0.002      342.106       17.283      861.467
08/18/2014  02:56:00     -125.475      -21.501       -5.804       45.202       27.745       20.501     2043.246      769.798      420.302        0.974        0.162      127.304       21.559        0.029      342.170       17.392      861.464
08/18/2014  02:57:00     -148.686      -48.953      -10.083       38.589       43.240       28.615     1489.149     1869.714      818.812        1.439        0.209      156.538       22.949        0.021      342.232       17.498      861.457
08/18/2014  02:58:00     -180.064       11.778      -13.691       36.239       34.093       22.849     1313.232     1162.342      522.078        1.787        0.150      180.448       20.889        0.013      342.173       17.397      861.449
08/18/2014  02:59:00     -139.224       24.253       -8.322       57.461       53.523       32.267     3301.786     2864.710     1041.190        1.362        0.360      141.320       34.120        0.058      342.205       17.451      861.452
08/18/2014  03:00:00     -126.146       82.425      -19.289       32.365       35.809       20.666     1047.495     1282.276      427.098        1.292        0.138      150.687       16.238        0.012      342.307       17.625      861.450
08/18/2014  03:01:00     -176.323       33.781      -21.416       39.774       47.718       24.240     1581.961     2277.015      587.558        1.857        0.222      179.530       24.175        0.018      342.329       17.659      861.444
08/18/2014  03:02:00     -118.299      -22.404       -3.700       46.902       46.582       24.735     2199.769     2169.865      611.829        0.974        0.249      120.402       20.088        0.028      342.196       17.436      861.453
08/18/2014  03:03:00     -158.063      -31.204      -19.353       34.150       48.488       19.714     1166.250     2351.101      388.657        1.512        0.195      161.114       13.827        0.007      342.052       17.191      861.446
08/18/2014  03:04:00     -175.967      -30.871      -17.495       26.618       31.602       18.960      708.529      998.708      359.488        1.714        0.103      178.654       17.574        0.010      341.976       17.063      861.449
08/18/2014  03:05:00     -180.431       45.584       -8.963       45.464       36.337       29.799     2066.989     1320.356      887.976        1.949        0.214      186.100       26.428        0.020      342.120       17.307      861.440
08/18/2014  03:06:00     -140.784       67.770       -4.383       71.002       37.954       33.656     5041.244     1440.483     1132.758        1.602        0.381      156.246       33.408        0.046      342.376       17.742      861.423
08/18/2014  03:07:00     -147.534       82.171      -19.577       48.732       31.453       26.635     2374.843      989.260      709.415        1.649        0.204      168.874       22.067        0.017      342.456       17.877      861.400
08/18/2014  03:08:00     -175.138       42.485      -11.536       38.314       44.195       24.646     1467.995     1953.190      607.426        1.832        0.201      180.217       19.392        0.012      342.472       17.905      861.394
08/18/2014  03:09:00     -142.924        2.448       -8.277       32.073       35.526       19.763     1028.677     1262.069      390.593        1.159        0.134      142.944       11.608        0.007      342.316       17.639      861.392
08/18/2014  03:10:00     -140.676      -27.177      -12.470       47.187       31.732       24.776     2226.639     1006.944      613.861        1.226        0.192      143.277       20.364        0.020      342.074       17.230      861.383
08/18/2014  03:11:00     -180.504      -13.691      -16.162       56.634       38.910       31.251     3207.367     1513.975      976.631        1.936        0.285      181.022       30.228        0.028      341.925       16.975      861.394
08/18/2014  03:12:00     -188.365       11.411      -19.699       44.057       31.339       22.648     1941.040      982.149      512.938        1.972        0.172      188.710       15.461        0.007      342.005       17.109      861.390
08/18/2014  03:13:00     -171.465      -18.660       -5.333       53.753       35.707       30.554     2889.362     1274.995      933.575        1.744        0.255      172.478       27.553        0.026      342.010       17.120      861.395
08/18/2014  03:14:00     -148.489       -9.783       -7.075       51.639       22.065       19.442     2666.620      486.860      377.997        1.286        0.177      148.811       24.904        0.028      342.065       17.213      861.386
08/18/2014  03:15:00     -153.165       10.238       -9.793       35.187       29.234       16.396     1238.126      854.616      268.813        1.301        0.118      153.507       11.530        0.006      342.208       17.456      861.391
08/18/2014  03:16:00     -116.993        5.891       -5.701       33.865       30.519       19.929     1146.807      931.403      397.183        0.811        0.124      117.141       18.253        0.024      342.123       17.312      861.384
08/18/2014  03:17:00     -126.637       14.223      -15.341       23.405       23.901       17.733      547.776      571.276      314.476        0.895        0.072      127.433        7.609        0.004      342.110       17.290      861.382
08/18/2014  03:18:00     -109.488       21.637       -9.577       38.533       26.193       18.383     1484.796      686.088      337.946        0.753        0.125      111.605       16.123        0.021      342.224       17.483      861.378
08/18/2014  03:19:00     -154.097       27.916       -8.668       48.608       43.972       22.108     2362.699     1933.524      488.777        1.469        0.239      156.605       19.599        0.016      342.141       17.342      861.375
08/18/2014  03:20:00     -138.732      -11.915      -18.145       51.826       44.709       28.534     2685.963     1998.896      814.188        1.261        0.275      139.242       25.610        0.034      342.022       17.141      861.378
08/18/2014  03:21:00     -132.334      -12.918      -11.899       52.827       39.634       26.472     2790.709     1570.846      700.782        1.144        0.253      132.963       24.613        0.034      342.000       17.103      861.365
08/18/2014  03:22:00     -116.347      -42.092       -6.080       27.923       37.013       23.392      779.706     1369.933      547.205        0.902        0.135      123.727       18.220        0.022      342.021       17.138      861.371
08/18/2014  03:23:00     -144.337      -13.184       -9.269       37.524       49.345       23.968     1408.029     2434.898      574.464        1.275        0.221      144.937       30.230        0.044      342.051       17.190      861.374
08/18/2014  03:24:00     -150.701       11.880      -19.482       34.578       27.103       26.184     1195.617      734.593      685.626        1.292        0.131      151.168       20.255        0.018      342.137       17.336      861.374
08/18/2014  03:25:00     -132.625       19.920      -16.545       44.011       29.950       22.925     1936.956      897.030      525.539        1.081        0.168      134.112       21.086        0.025      342.279       17.578      861.372
08/18/2014  03:26:00      -75.279      -37.886       -3.183       31.574       30.370       20.887      996.897      922.362      436.277        0.473        0.118       84.275       18.724        0.049      342.178       17.405      861.364
08/18/2014  03:27:00      -92.602      -64.066        0.133       56.948       36.751       26.608     3243.059     1350.616      707.989        0.899        0.265      112.603       30.409        0.073      342.128       17.322      861.375
08/18/2014  03:28:00     -107.513      -35.137        2.693       17.545       20.047       16.472      307.830      401.886      271.342        0.689        0.049      113.109       10.778        0.009      342.206       17.452      861.374
08/18/2014  03:29:00     -102.498      -42.086       -2.833       25.635       24.995       11.365      657.179      624.737      129.156        0.685        0.071      110.802       11.520        0.011      342.345       17.689      861.367
08/18/2014  03:30:00      -71.330      -10.642        4.499       33.902       26.793       18.549     1149.363      717.869      344.082        0.372        0.111       72.119       18.634        0.067      342.195       17.435      861.362
08/18/2014  03:31:00      -58.458      -25.936       -0.713       24.198       18.606       10.881      585.552      346.171      118.388        0.257        0.053       63.954        9.341        0.021      342.368       17.730      861.342
08/18/2014  03:32:00      -20.249      -31.343       13.245       26.912       22.970       13.677      724.254      527.609      187.064        0.150        0.072       37.315       11.404        0.093      342.399       17.782      861.330
08/18/2014  03:33:00      -19.533      -21.048        4.864       17.507       15.424       11.550      306.490      237.910      133.399        0.076        0.034       28.715        6.580        0.052      342.435       17.842      861.338
08/18/2014  03:34:00      -38.907      -44.184        7.012       34.799       21.034       15.714     1210.975      442.418      246.938        0.271        0.095       58.873       12.167        0.043      342.345       17.689      861.340
08/18/2014  03:35:00      -36.394      -45.388        3.993       29.863       33.162       17.087      891.784     1099.691      291.953        0.284        0.114       58.178       10.964        0.036      342.404       17.790      861.353
08/18/2014  03:36:00      -57.086      -41.332       -5.791       45.056       30.987       22.926     2030.008      960.175      525.620        0.426        0.176       70.478       29.498        0.175      342.479       17.917      861.368
08/18/2014  03:37:00      -71.624      -40.580        6.317       50.907       35.427       27.112     2591.478     1255.070      735.071        0.570        0.229       82.321       26.772        0.106      342.367       17.728      861.373
08/18/2014  03:38:00      -42.790      -33.414        7.981       52.965       37.266       22.030     2805.282     1388.739      485.338        0.384        0.234       54.291       20.984        0.149      342.316       17.639      861.382
08/18/2014  03:39:00      -71.645      -46.095        7.339       49.312       40.495       23.847     2431.658     1639.809      568.662        0.597        0.232       85.192       23.539        0.076      342.334       17.671      861.392
08/18/2014  03:40:00     -107.770      -42.044       -3.776       47.299       26.282       19.674     2237.179      690.729      387.071        0.836        0.166      115.681       25.357        0.048      342.383       17.754      861.396
08/18/2014  03:41:00     -103.691      -51.927       -1.111       33.465       33.044       21.416     1119.896     1091.882      458.663        0.806        0.134      115.967       18.960        0.027      342.317       17.641      861.404
08/18/2014  03:42:00     -134.032      -54.165       -3.740       31.232       33.549       18.599      975.418     1125.546      345.911        1.168        0.122      144.562       12.053        0.007      342.338       17.678      861.400
08/18/2014  03:43:00     -123.100      -63.055       -1.615       36.649       34.884       25.677     1343.146     1216.926      659.295        1.118        0.161      138.310       21.086        0.023      342.243       17.515      861.407
08/18/2014  03:44:00      -87.433      -14.832        3.267       43.072       30.609       22.098     1855.211      936.941      488.334        0.558        0.164       88.682       23.205        0.068      342.055       17.195      861.417
08/18/2014  03:45:00      -98.658      -28.270        1.271       36.046       26.040       18.760     1299.295      678.106      351.954        0.643        0.116      102.628       20.288        0.039      342.047       17.184      861.423
08/18/2014  03:46:00      -99.810      -48.450       -1.074       40.967       37.949       19.810     1678.330     1440.136      392.451        0.791        0.176      110.948       21.669        0.038      342.071       17.225      861.430
08/18/2014  03:47:00      -96.823      -31.065       -6.060       36.293       23.844       18.730     1317.156      568.517      350.796        0.631        0.112      101.685        9.462        0.009      342.004       17.110      861.429
08/18/2014  03:48:00     -118.123      -43.113        1.180       40.716       24.849       16.525     1657.777      617.462      273.068        0.918        0.127      125.745       17.863        0.020      341.952       17.022      861.415
08/18/2014  03:49:00     -101.286      -16.954        2.246       39.345       36.528       23.150     1548.056     1334.259      535.923        0.698        0.171      102.695       17.520        0.029      341.900       16.934      861.402
08/18/2014  03:50:00      -99.205      -10.925        2.806       48.530       40.990       25.054     2355.187     1680.212      627.679        0.732        0.233       99.804       27.279        0.075      341.783       16.736      861.401
08/18/2014  03:51:00     -141.749        0.613       -9.884       48.570       33.430       20.316     2359.007     1117.598      412.746        1.204        0.194      141.750       16.845        0.014      341.821       16.800      861.406
08/18/2014  03:52:00     -124.972      -16.675      -10.515       37.757       36.380       23.683     1425.598     1323.484      560.884        0.966        0.165      126.079       16.445        0.017      341.767       16.708      861.419
08/18/2014  03:53:00     -162.505      -19.923      -12.029       48.113       29.948       21.616     2314.860      896.868      467.256        1.531        0.184      163.722       22.123        0.018      341.766       16.708      861.414
08/18/2014  03:54:00     -117.399      -12.337       -5.623       48.832       29.835       23.445     2384.606      890.116      549.678        0.889        0.191      118.045       26.117        0.049      341.664       16.533      861.425
08/18/2014  03:55:00      -97.334      -27.554        1.278       47.085       35.293       22.317     2216.985     1245.564      498.034        0.710        0.198      101.159       25.123        0.062      341.696       16.588      861.428
08/18/2014  03:56:00     -137.304      -20.181       -8.980       22.559       27.244       17.592      508.913      742.245      309.478        1.045        0.078      138.779       12.929        0.009      341.800       16.765      861.419
08/18/2014  03:57:00     -119.327       -5.781      -13.416       34.211       21.149       18.070     1170.397      447.273      326.537        0.820        0.097      119.467       14.895        0.016      341.749       16.677      861.404
08/18/2014  03:58:00     -117.192       27.464      -12.268       53.026       39.636       25.701     2811.795     1571.029      660.557        0.984        0.252      120.367       20.642        0.029      341.838       16.828      861.397
08/18/2014  03:59:00      -54.376       28.862        0.980       52.918       27.603       24.151     2800.282      761.930      583.284        0.397        0.207       61.561       22.207        0.130      341.948       17.014      861.403
08/18/2014  04:00:00      -39.990        2.801        2.345       39.726       37.861       22.963     1578.157     1433.468      527.291        0.258        0.177       40.088       20.507        0.262      341.816       16.792      861.403
08/18/2014  04:01:00      -10.864       -4.996       11.804       33.761       28.667       25.181     1139.800      821.793      634.104        0.144        0.130       11.958       17.425        2.123      341.791       16.749      861.399
08/18/2014  04:02:00        1.473       14.178       -1.402       23.798       22.386       15.100      566.355      501.113      228.018        0.075        0.065       14.254        5.943        0.174      341.789       16.743      861.403
08/18/2014  04:03:00      -61.567       -2.368      -18.242       20.133       31.038       13.907      405.335      963.346      193.415        0.285        0.078       61.612        7.284        0.014      341.827       16.809      861.406
08/18/2014  04:04:00      -69.864        7.213       -9.611       35.404       36.141       23.108     1253.471     1306.141      534.000        0.406        0.155       70.235       22.715        0.105      341.947       17.013      861.400
08/18/2014  04:05:00      -78.994       17.342      -16.247       26.971       27.002       17.150      727.424      729.086      294.117        0.428        0.088       80.876       13.233        0.027      342.044       17.178      861.389
08/18/2014  04:06:00      -45.037      -17.993       -8.352        9.551       12.125        8.653       91.230      147.013       74.876        0.137        0.016       48.498        1.496        0.001      341.909       16.947      861.384
08/18/2014  04:07:00      -46.403      -19.560        1.464       17.813       14.294       12.103      317.307      204.310      146.480        0.160        0.033       50.357        7.194        0.020      341.772       16.717      861.386
08/18/2014  04:08:00      -50.813      -14.379       -5.491       24.180       15.430       15.673      584.666      238.071      245.641        0.194        0.053       52.809       11.582        0.048      341.723       16.635      861.389
08/18/2014  04:09:00      -74.815      -14.752      -11.291       12.727       15.506       13.784      161.972      240.445      190.012        0.327        0.030       76.255        4.782        0.004      341.761       16.699      861.380
08/18/2014  04:10:00      -53.363        3.439       -7.633       23.256        9.992        8.992      540.851       99.835       80.860        0.182        0.036       53.473        9.032        0.029      342.008       17.118      861.368
08/18/2014  04:11:00      -23.800       14.671       -6.733       12.276        9.991        6.885      150.700       99.819       47.405        0.056        0.015       27.959        3.330        0.014      342.110       17.291      861.346
08/18/2014  04:12:00      -51.558      -15.808       -7.851       10.150       13.256        9.611      103.031      175.719       92.369        0.167        0.019       53.926        5.614        0.011      341.917       16.962      861.336
08/18/2014  04:13:00      -86.028      -25.599      -13.545       10.166       14.225        9.720      103.338      202.357       94.487        0.432        0.020       89.756        5.669        0.004      341.672       16.547      861.327
08/18/2014  04:14:00     -123.846      -55.412      -19.780       12.933       17.721       10.084      167.254      314.048      101.690        0.969        0.029      135.677        6.158        0.002      341.517       16.283      861.316
08/18/2014  04:15:00     -125.097      -71.980      -14.278       29.313       21.148       20.771      859.277      447.225      431.447        1.139        0.087      144.327       14.312        0.010      341.434       16.143      861.304
08/18/2014  04:16:00      -82.343      -64.414       -0.797       32.157       27.857       23.284     1034.102      775.992      542.145        0.664        0.118      104.544       14.564        0.019      341.460       16.188      861.301
08/18/2014  04:17:00      -95.118      -79.626       -1.204       36.141       27.043       17.581     1306.185      731.305      309.105        0.887        0.117      124.047       15.977        0.017      341.723       16.634      861.302
08/18/2014  04:18:00      -88.606      -73.700       -4.513       32.139       28.377       19.460     1032.898      805.249      378.679        0.776        0.111      115.250       17.981        0.024      341.837       16.828      861.302
08/18/2014  04:19:00      -74.155      -49.643        0.256       52.765       25.598       20.275     2784.155      655.249      411.088        0.591        0.193       89.238       27.163        0.093      341.735       16.654      861.297
08/18/2014  04:20:00      -60.706      -37.671       -1.912       52.908       26.587       22.744     2799.234      706.892      517.312        0.456        0.201       71.445       25.565        0.128      341.677       16.557      861.294
08/18/2014  04:21:00     -105.685      -60.232       -4.428       29.343       41.178       22.329      861.012     1695.642      498.567        0.894        0.153      121.644       14.494        0.014      341.672       16.548      861.296
08/18/2014  04:22:00     -115.531      -58.470        2.725       36.037       27.127       22.319     1298.639      735.867      498.138        0.965        0.127      129.485       14.093        0.012      341.669       16.543      861.287
08/18/2014  04:23:00      -74.721      -54.041        3.946       46.222       41.156       21.258     2136.447     1693.779      451.902        0.640        0.214       92.215       23.184        0.063      341.580       16.392      861.273
08/18/2014  04:24:00      -93.608      -57.885        0.352       32.855       31.568       16.858     1079.431      996.525      284.190        0.724        0.118      110.060       11.884        0.012      341.646       16.503      861.249
08/18/2014  04:25:00      -50.941      -51.747       -0.481       31.143       23.682       17.347      969.889      560.822      300.929        0.355        0.092       72.613       16.707        0.053      341.594       16.415      861.226
08/18/2014  04:26:00      -62.064      -47.397       -2.833       22.196       20.440       15.838      492.680      417.785      250.848        0.363        0.058       78.093       11.198        0.021      341.709       16.610      861.210
08/18/2014  04:27:00      -81.319      -78.326       -0.765       35.072       32.558       17.558     1230.038     1059.993      308.284        0.767        0.130      112.906       19.682        0.030      341.712       16.613      861.206
08/18/2014  04:28:00      -50.682      -49.443        4.301       44.819       31.524       24.844     2008.701      993.764      617.241        0.433        0.181       70.804       28.110        0.158      341.635       16.485      861.201
08/18/2014  04:29:00      -59.299      -51.131        3.229       39.010       29.778       21.939     1521.771      886.744      481.338        0.451        0.144       78.299       21.496        0.075      341.565       16.366      861.202
08/18/2014  04:30:00      -76.704      -59.470        6.347       39.049       26.338       18.203     1524.792      693.671      331.360        0.600        0.127       97.058       15.037        0.024      341.549       16.338      861.203
08/18/2014  04:31:00      -59.330      -62.106       10.884       50.574       32.313       24.346     2557.728     1044.109      592.743        0.584        0.210       85.891       28.621        0.111      341.504       16.262      861.200
08/18/2014  04:32:00      -33.036      -41.494       12.050       37.780       35.624       24.016     1427.329     1269.072      576.783        0.312        0.164       53.038       22.480        0.180      341.483       16.226      861.198
08/18/2014  04:33:00     -122.206      -70.044        0.969       33.407       24.380       18.968     1116.001      594.398      359.781        1.096        0.104      140.856       14.298        0.010      341.578       16.389      861.196
08/18/2014  04:34:00     -103.928      -60.026        5.220       51.713       38.275       27.349     2674.230     1464.955      747.945        0.966        0.244      120.017       27.446        0.052      341.576       16.384      861.190
08/18/2014  04:35:00     -125.078      -25.687       -1.000       33.329       34.013       20.571     1110.854     1156.869      423.181        0.950        0.135      127.688       13.960        0.012      341.660       16.527      861.194
08/18/2014  04:36:00     -120.333      -41.289       -0.374       34.920       27.698       20.416     1219.429      767.172      416.826        0.929        0.120      127.220       19.911        0.024      341.565       16.365      861.194
08/18/2014  04:37:00     -122.254      -44.444        5.772       46.382       34.511       22.551     2151.297     1190.977      508.560        1.040        0.193      130.082       24.520        0.036      341.566       16.369      861.191
08/18/2014  04:38:00     -103.367      -56.216        1.741       36.224       28.461       19.831     1312.209      810.034      393.267        0.818        0.126      117.665       19.074        0.026      341.592       16.412      861.198
08/18/2014  04:39:00     -103.096      -57.072        1.207       36.523       24.580       17.860     1333.896      604.158      318.962        0.807        0.113      117.839       18.083        0.024      341.627       16.471      861.217
08/18/2014  04:40:00     -106.771      -67.053       -2.317       55.200       30.192       22.032     3046.991      911.557      485.401        1.017        0.222      126.080       26.668        0.045      341.607       16.437      861.230
08/18/2014  04:41:00     -162.770      -50.652       -4.488       24.956       25.349       17.631      622.818      642.575      310.870        1.533        0.079      170.469       15.822        0.009      341.531       16.308      861.238
08/18/2014  04:42:00     -128.886      -45.051       -0.334       50.241       41.454       28.329     2524.112     1718.424      802.547        1.184        0.252      136.533       30.334        0.049      341.524       16.297      861.244
08/18/2014  04:43:00      -88.289      -34.730        5.923       59.436       41.348       22.631     3532.592     1709.627      512.155        0.739        0.288       94.874       26.699        0.079      341.502       16.259      861.253
08/18/2014  04:44:00     -112.756      -53.888       -3.128       27.190       37.517       22.301      739.320     1407.509      497.336        0.914        0.132      124.971       19.782        0.025      341.521       16.291      861.251
08/18/2014  04:45:00     -118.071      -52.468      -11.420       31.321       33.339       18.285      981.001     1111.486      334.354        0.962        0.121      129.204       14.819        0.013      341.617       16.453      861.222
08/18/2014  04:46:00     -119.307        8.599       -8.630       29.926       18.375       15.680      895.546      337.637      245.863        0.793        0.074      119.616       12.679        0.011      341.484       16.229      861.189
08/18/2014  04:47:00      -85.621        6.943       -7.432       39.668       23.354       16.797     1573.556      545.400      282.137        0.492        0.120       85.902       17.507        0.042      341.331       15.970      861.160
08/18/2014  04:48:00      -74.393       13.328       -0.516       42.699       20.287       18.227     1823.198      411.567      332.226        0.414        0.128       75.577       16.961        0.050      341.467       16.200      861.147
08/18/2014  04:49:00      -69.588        0.374       -6.394       23.984       16.839       11.669      575.237      283.565      136.166        0.294        0.050       69.590       10.553        0.023      341.566       16.367      861.140
08/18/2014  04:50:00      -84.493      -22.113       -3.480       23.312       21.110       18.082      543.428      445.629      326.944        0.448        0.066       87.339       15.314        0.031      341.554       16.346      861.132
08/18/2014  04:51:00      -91.449      -52.070       -2.092       24.942       29.759       17.764      622.099      885.611      315.544        0.645        0.091      105.234        7.838        0.006      341.430       16.137      861.143
08/18/2014  04:52:00     -110.613      -42.458      -12.612       23.503       28.721       16.939      552.370      824.913      286.916        0.793        0.083      118.482       11.031        0.009      341.323       15.956      861.158
08/18/2014  04:53:00     -120.556      -61.371      -12.887       17.149       31.451       12.437      294.074      989.185      154.677        0.995        0.072      135.279        9.010        0.004      341.219       15.780      861.166
08/18/2014  04:54:00     -140.572      -43.154       -7.387       26.547       27.602       16.688      704.733      761.898      278.504        1.171        0.087      147.047       15.751        0.011      341.124       15.621      861.160
08/18/2014  04:55:00     -119.233      -56.836       -6.318       25.375       28.340       17.247      643.897      803.131      297.469        0.962        0.087      132.086       11.360        0.007      341.158       15.677      861.148
08/18/2014  04:56:00     -115.399      -46.474       -7.171       31.585       34.956       16.234      997.626     1221.937      263.558        0.901        0.124      124.406       15.350        0.015      341.085       15.553      861.142
08/18/2014  04:57:00     -127.136      -14.096      -11.326       46.259       27.891       17.662     2139.871      777.914      311.936        0.986        0.161      127.915       19.704        0.024      341.003       15.414      861.136
08/18/2014  04:58:00     -134.189        0.872      -19.105       53.537       38.194       23.296     2866.200     1458.774      542.711        1.162        0.243      134.192       23.993        0.032      341.017       15.438      861.112
08/18/2014  04:59:00     -145.932       12.403      -14.473       43.999       44.018       24.814     1935.935     1937.605      615.718        1.307        0.224      146.459       18.182        0.015      341.161       15.681      861.090
08/18/2014  05:00:00      -70.995       -3.598       -7.058       41.181       29.835       20.357     1695.871      890.150      414.419        0.405        0.150       71.086       17.202        0.059      341.158       15.676      861.072
08/18/2014  05:01:00     -104.598       -9.221       -5.746       47.015       24.609       23.674     2210.405      605.583      560.456        0.722        0.169      105.004       23.296        0.049      341.205       15.756      861.063
08/18/2014  05:02:00     -113.773        3.227      -14.872       53.411       31.464       27.703     2852.788      989.972      767.465        0.889        0.231      113.818       24.707        0.047      341.149       15.660      861.073
08/18/2014  05:03:00     -121.267      -32.892      -12.881       33.813       34.692       20.098     1143.327     1203.557      403.917        0.935        0.138      125.648       14.462        0.013      341.054       15.500      861.073
08/18/2014  05:04:00     -133.563      -19.909       -7.600       55.135       42.273       26.254     3039.851     1786.993      689.283        1.190        0.276      135.039       27.622        0.042      340.952       15.327      861.066
08/18/2014  05:05:00     -135.622      -40.614       -7.377       55.609       39.635       26.725     3092.325     1570.915      714.251        1.274        0.269      141.573       30.772        0.047      340.935       15.298      861.059
08/18/2014  05:06:00     -116.034      -45.668       -2.908       29.649       31.658       17.140      879.080     1002.228      293.781        0.887        0.109      124.697       15.008        0.014      341.032       15.464      861.058
08/18/2014  05:07:00     -103.209      -59.873       -5.455       39.814       22.451       15.843     1585.176      504.044      251.000        0.830        0.117      119.318       18.662        0.024      341.150       15.664      861.048
08/18/2014  05:08:00     -100.342       -4.987      -11.489       37.537       42.990       19.435     1409.000     1848.135      377.718        0.693        0.182      100.466       15.265        0.023      341.138       15.643      861.012
08/18/2014  05:09:00     -163.394       44.992      -19.713       36.997       30.862       18.778     1368.785      952.449      352.629        1.589        0.134      169.475        9.828        0.003      341.286       15.893      860.965
08/18/2014  05:10:00     -200.354       75.199      -10.740       51.069       27.334       22.723     2608.087      747.133      516.327        2.489        0.194      214.001       14.309        0.004      341.375       16.042      860.933
08/18/2014  05:11:00     -126.625       40.206       -3.227       43.982       31.889       21.545     1934.420     1016.888      464.171        1.054        0.171      132.855       14.544        0.012      341.356       16.012      860.900
08/18/2014  05:12:00      -72.862       -1.141       -5.160       37.248       47.666       19.923     1387.388     2272.052      396.916        0.470        0.203       72.871       14.625        0.040      341.327       15.963      860.881
08/18/2014  05:13:00     -122.949      -50.019       -5.320       28.865       28.650       18.940      833.200      820.804      358.706        0.983        0.101      132.734       15.273        0.013      341.229       15.797      860.889
08/18/2014  05:14:00      -92.675      -64.573       -4.109       43.186       28.356       19.228     1865.064      804.036      369.733        0.791        0.152      112.952       14.123        0.016      341.226       15.790      860.896
08/18/2014  05:15:00     -114.892      -62.257       -3.431       54.232       40.046       22.226     2941.156     1603.696      494.001        1.106        0.252      130.676       18.947        0.021      341.258       15.844      860.886
08/18/2014  05:16:00      -80.042      -79.884        2.099       63.565       60.269       32.908     4040.562     3632.295     1082.912        1.077        0.438      113.085       27.494        0.059      341.270       15.865      860.893
08/18/2014  05:17:00     -133.493      -89.793      -18.145       32.350       27.624       20.933     1046.497      763.098      438.211        1.423        0.112      160.883       16.276        0.010      341.333       15.973      860.887
08/18/2014  05:18:00     -133.108      -62.947       -8.026       16.066       20.310       11.929      258.102      412.477      142.304        1.128        0.041      147.242       10.546        0.005      341.300       15.918      860.870
08/18/2014  05:19:00      -93.737      -52.330       -2.622       41.309       23.741       18.921     1706.432      563.635      358.001        0.708        0.131      107.355       20.207        0.035      341.297       15.910      860.875
08/18/2014  05:20:00      -54.155      -44.012        5.034       44.185       33.606       21.014     1952.335     1129.341      441.600        0.421        0.176       69.784       26.605        0.145      341.314       15.940      860.875
08/18/2014  05:21:00      -35.488      -43.493        6.237       40.877       29.153       24.041     1670.926      849.909      577.966        0.314        0.155       56.135       19.973        0.127      341.248       15.830      860.874
08/18/2014  05:22:00      -50.522      -92.631       12.069       47.815       49.162       28.973     2286.266     2416.937      839.410        0.841        0.277      105.513       28.248        0.072      341.334       15.973      860.888
08/18/2014  05:23:00      -78.271     -103.244       -0.958       55.325       75.512       43.848     3060.860     5702.134     1922.649        1.373        0.534      129.559       34.827        0.072      341.263       15.854      860.907
08/18/2014  05:24:00      -66.447     -108.375        2.313       66.786       52.256       37.734     4460.361     2730.741     1423.892        1.239        0.431      127.123       34.748        0.075      341.177       15.709      860.914
08/18/2014  05:25:00      -70.839     -138.684       -9.019       47.017       70.032       30.197     2210.587     4904.477      911.841        1.618        0.401      155.728       16.100        0.011      341.206       15.758      860.914
08/18/2014  05:26:00      -61.251      -65.966       16.293       52.107       56.133       33.910     2715.184     3150.938     1149.860        0.769        0.351       90.018       30.954        0.118      341.161       15.683      860.909
08/18/2014  05:27:00      -64.639      -64.728        1.990       33.834       41.943       27.121     1144.728     1759.211      735.560        0.600        0.182       91.476       21.656        0.056      341.243       15.821      860.900
08/18/2014  05:28:00     -101.446      -72.120       -3.388       38.333       39.522       20.981     1469.430     1561.985      440.203        0.949        0.174      124.469       21.036        0.029      341.190       15.733      860.902
08/18/2014  05:29:00     -143.639      -78.342       -7.474       28.092       22.458       16.823      789.161      504.369      283.007        1.420        0.079      163.614       13.248        0.007      341.191       15.734      860.916
08/18/2014  05:30:00      -92.969      -67.080       -9.015       31.385       19.395       13.717      984.992      376.168      188.169        0.739        0.077      114.643       10.702        0.009      341.214       15.773      860.930
08/18/2014  05:31:00      -40.627      -45.517        4.139       31.419       20.060       20.819      987.169      402.388      433.418        0.278        0.091       61.011       20.393        0.112      341.214       15.772      860.934
08/18/2014  05:32:00      -43.126      -43.361        0.775       35.049       25.774       15.241     1228.425      664.283      232.275        0.293        0.106       61.156       16.346        0.071      341.202       15.751      860.928
08/18/2014  05:33:00      -46.935      -33.736       10.740       39.974       22.573       14.764     1597.892      509.522      217.968        0.289        0.116       57.801       17.822        0.095      341.226       15.794      860.931
08/18/2014  05:34:00      -37.746      -39.701        7.649       33.878       23.200       17.016     1147.708      538.238      289.543        0.252        0.099       54.781       18.247        0.111      341.259       15.848      860.924
08/18/2014  05:35:00      -24.018      -14.660       -2.203       20.401       18.229        9.728      416.184      332.314       94.630        0.082        0.042       28.139       10.110        0.129      341.280       15.884      860.909
08/18/2014  05:36:00      -15.846      -27.311        0.699       23.682       22.132       14.350      560.844      489.804      205.932        0.113        0.063       31.575       10.241        0.105      341.327       15.963      860.909
08/18/2014  05:37:00      -68.803      -76.513       -2.813       44.696       40.965       25.657     1997.761     1678.112      658.303        0.746        0.217      102.899       24.751        0.058      341.261       15.852      860.922
08/18/2014  05:38:00     -117.607      -97.875       -5.083       39.886       35.366       23.956     1590.859     1250.749      573.896        1.343        0.171      153.006       14.833        0.009      341.175       15.706      860.931
08/18/2014  05:39:00     -118.053      -87.927       -7.684       31.619       36.348       22.765      999.780     1321.156      518.265        1.228        0.142      147.199       13.559        0.008      341.170       15.695      860.930
08/18/2014  05:40:00      -37.920      -45.614        4.261       27.254       25.754       16.656      742.790      663.276      277.408        0.261        0.084       59.318        8.863        0.022      341.165       15.689      860.918
08/18/2014  05:41:00      -33.812     -123.018       -2.942       39.530       57.470       24.379     1562.653     3302.795      594.330        1.087        0.273      127.580       20.306        0.025      341.212       15.766      860.919
08/18/2014  05:42:00      -15.882      -26.387        7.866       22.860       31.008       21.198      522.601      961.480      449.363        0.147        0.097       30.798       15.126        0.241      341.194       15.738      860.921
08/18/2014  05:43:00     -103.436      -52.117       -8.927       25.857       28.799       18.409      668.559      829.386      338.893        0.767        0.092      115.824       11.876        0.011      341.135       15.639      860.919
08/18/2014  05:44:00     -112.606      -36.575       -7.631       30.566       26.916       18.643      934.308      724.466      347.564        0.804        0.100      118.397       12.277        0.011      341.086       15.555      860.909
08/18/2014  05:45:00     -113.068      -34.665       -4.727       31.476       32.073       16.676      990.729     1028.684      278.086        0.815        0.115      118.262       12.711        0.012      340.981       15.376      860.906
08/18/2014  05:46:00     -122.654      -35.716       -9.249       34.699       37.734       16.211     1203.995     1423.845      262.805        0.965        0.145      127.748       12.891        0.010      340.806       15.082      860.909
08/18/2014  05:47:00     -101.096       -5.074       -2.480       56.085       34.955       23.373     3145.501     1221.875      546.305        0.758        0.246      101.224       26.377        0.068      340.673       14.855      860.908
08/18/2014  05:48:00     -100.350       30.877      -11.070       48.498       27.437       24.465     2352.078      752.783      598.522        0.742        0.185      104.992       16.841        0.026      340.661       14.836      860.882
08/18/2014  05:49:00      -75.496       15.360       -8.030       38.250       24.299       22.849     1463.034      590.426      522.055        0.429        0.129       77.043       15.417        0.040      340.794       15.061      860.856
08/18/2014  05:50:00      -38.172      -14.281        0.664       35.507       20.802       15.490     1260.777      432.735      239.944        0.180        0.097       40.756       17.369        0.182      340.898       15.237      860.840
08/18/2014  05:51:00       14.835      -46.147        3.349       25.440       24.678       21.725      647.169      608.986      471.989        0.204        0.086       48.473       11.917        0.060      340.961       15.343      860.851
08/18/2014  05:52:00      -62.624      -42.714        1.174       36.800       21.946       22.167     1354.208      481.612      491.390        0.404        0.116       75.804       22.482        0.088      340.879       15.205      860.859
08/18/2014  05:53:00      -61.811      -30.156       -3.052       19.849       12.259       13.527      393.997      150.276      182.971        0.273        0.036       68.775       12.180        0.031      340.947       15.318      860.871
08/18/2014  05:54:00      -92.467      -31.324       -5.350       19.469       15.487        8.953      379.031      239.862       80.151        0.513        0.035       97.629        9.888        0.010      341.054       15.502      860.870
08/18/2014  05:55:00      -85.124      -40.999       -7.703       35.204       13.876       10.542     1239.308      192.536      111.139        0.526        0.077       94.483       11.375        0.014      341.038       15.475      860.867
08/18/2014  05:56:00      -70.278      -30.583       -1.228       20.265       19.738       11.719      410.670      389.570      137.343        0.341        0.047       76.644        9.385        0.015      341.020       15.443      860.868
08/18/2014  05:57:00      -58.679      -39.373       -2.239       53.384       24.918       17.285     2849.804      620.932      298.757        0.438        0.188       70.664       19.667        0.077      340.942       15.310      860.889
08/18/2014  05:58:00      -19.182      -72.323        7.463       41.681       57.030       19.283     1737.299     3252.404      371.838        0.551        0.268       74.824       27.173        0.132      340.994       15.399      860.919
08/18/2014  05:59:00      -53.017     -150.700       -8.982       33.618       38.506       23.919     1130.185     1482.722      572.114        1.439        0.159      159.754       21.205        0.018      341.047       15.487      860.955
08/18/2014  06:00:00      -36.734      -74.106       -8.169       28.533       29.050       17.690      814.134      843.907      312.942        0.444        0.099       82.711       12.473        0.023      341.108       15.592      860.964
08/18/2014  06:01:00      -40.847      -11.388        3.015       23.687       15.095       14.088      561.072      227.867      198.462        0.140        0.049       42.405       11.041        0.068      340.935       15.300      860.968
08/18/2014  06:02:00      -34.983      -14.328        0.527       20.485       15.313        8.858      419.636      234.483       78.465        0.108        0.037       37.804        8.387        0.049      340.972       15.360      860.976
08/18/2014  06:03:00     -106.888      -38.677       -8.433       37.595       30.460       16.513     1413.384      927.833      272.673        0.780        0.131      113.670       15.388        0.018      340.958       15.339      860.984
08/18/2014  06:04:00      -66.600      -65.839        9.332       60.253       40.727       27.437     3630.386     1658.657      752.765        0.745        0.302       93.650       22.596        0.058      340.853       15.160      860.996
08/18/2014  06:05:00      -86.615      -78.793        5.584       59.993       62.761       30.286     3599.116     3938.883      917.264        1.110        0.423      117.091       32.333        0.076      340.926       15.283      861.002
08/18/2014  06:06:00     -128.810      -95.553       -1.709       42.096       64.575       32.135     1772.098     4169.919     1032.690        1.635        0.349      160.382       27.565        0.030      340.909       15.254      860.998
08/18/2014  06:07:00     -104.400      -56.705       -2.001       44.597       42.553       23.906     1988.878     1810.762      571.492        0.924        0.219      118.806       15.532        0.017      340.922       15.275      860.983
08/18/2014  06:08:00      -82.397      -46.921        4.366       40.027       34.167       20.837     1602.166     1167.409      434.182        0.611        0.160       94.820       21.848        0.053      340.940       15.306      860.979
08/18/2014  06:09:00     -109.253      -54.146       -4.431       26.569       29.467       18.868      705.933      868.291      356.007        0.841        0.097      121.934       13.755        0.013      340.928       15.287      860.982
08/18/2014  06:10:00     -109.216      -43.807       -2.338       43.612       40.959       16.189     1901.970     1677.637      262.094        0.885        0.192      117.674       15.594        0.018      340.900       15.240      860.984
08/18/2014  06:11:00     -132.980       -6.905       -7.685       27.416       23.273       18.496      751.661      541.612      342.098        0.971        0.082      133.159       13.735        0.011      340.685       14.876      860.983
08/18/2014  06:12:00     -131.111      -48.107       -0.109       40.047       39.189       23.376     1603.800     1535.751      546.425        1.159        0.184      139.658       24.757        0.031      340.807       15.083      860.994
08/18/2014  06:13:00      -87.695      -46.761        0.988       28.443       43.579       20.719      808.980     1899.124      429.264        0.651        0.157       99.383       11.603        0.014      340.848       15.151      860.991
08/18/2014  06:14:00      -73.875      -46.740        2.622       36.485       30.045       19.299     1331.149      902.720      372.456        0.513        0.130       87.419       20.727        0.056      340.899       15.238      860.981
08/18/2014  06:15:00     -109.364      -60.428        4.338       52.327       32.048       24.403     2738.099     1027.043      595.499        0.999        0.218      124.948       24.893        0.040      340.885       15.214      860.991
08/18/2014  06:16:00      -83.521      -46.369       -1.991       26.498       21.597       15.297      702.158      466.413      234.010        0.527        0.070       95.529       11.952        0.016      340.832       15.124      860.994
08/18/2014  06:17:00      -60.382      -40.583       -4.642       23.048       23.420       16.108      531.213      548.515      259.457        0.333        0.067       72.753       11.442        0.025      340.872       15.193      860.996
08/18/2014  06:18:00      -90.798      -15.604       -7.487       26.404       21.219       14.750      697.167      450.264      217.564        0.495        0.068       92.129        7.469        0.007      340.837       15.132      860.984
08/18/2014  06:19:00     -105.996      -26.455       -1.618       31.106       22.981       18.492      967.605      528.132      341.970        0.689        0.092      109.247       19.888        0.033      340.674       14.856      860.981
08/18/2014  06:20:00     -116.641      -36.269      -10.559       17.413       16.868       13.903      303.223      284.541      193.281        0.791        0.039      122.150        8.442        0.005      340.688       14.882      860.989
08/18/2014  06:21:00      -89.954      -22.205       -3.420       33.715       27.869       16.286     1136.711      776.703      265.226        0.539        0.109       92.654       16.086        0.030      340.704       14.908      861.002
08/18/2014  06:22:00     -116.609       -5.389       -8.379       26.576       16.183       17.330      706.276      261.880      300.319        0.748        0.063      116.733       15.330        0.017      340.660       14.836      861.005
08/18/2014  06:23:00     -118.915      -48.922       -7.128       34.371       25.640       17.858     1181.363      657.414      318.900        0.937        0.108      128.585       15.503        0.015      340.636       14.793      861.021
08/18/2014  06:24:00     -107.284      -61.060        2.012       42.633       35.485       20.844     1817.589     1259.212      434.463        0.938        0.176      123.443       21.063        0.029      340.746       14.980      861.032
08/18/2014  06:25:00     -103.857      -46.510       -7.484       31.367       32.087       18.956      983.894     1029.544      359.315        0.769        0.119      113.795       16.172        0.020      340.726       14.946      861.023
08/18/2014  06:26:00      -96.834      -22.937       -5.131       26.252       28.795       14.047      689.166      829.169      197.326        0.582        0.086       99.513       11.281        0.013      340.725       14.944      861.000
08/18/2014  06:27:00      -88.727      -51.184       -0.691       42.123       25.577       19.377     1774.338      654.171      375.482        0.665        0.140      102.432       20.966        0.042      340.758       14.999      860.978
08/18/2014  06:28:00      -80.113      -33.195       -4.142       16.617       23.802       12.278      276.114      566.519      150.746        0.427        0.050       86.718        7.989        0.008      340.824       15.111      860.951
08/18/2014  06:29:00      -66.706      -13.846       -9.338       19.657       13.645        8.055      386.410      186.191       64.878        0.268        0.032       68.128        4.410        0.004      340.806       15.081      860.928
08/18/2014  06:30:00      -78.098      -46.285       -1.917       29.315       25.019       12.445      859.344      625.968      154.885        0.494        0.082       90.783        9.792        0.012      340.865       15.180      860.923
08/18/2014  06:31:00      -86.356      -28.878       -2.265       25.768       29.808       15.446      663.987      888.523      238.576        0.504        0.090       91.056       13.397        0.022      340.812       15.092      860.921
08/18/2014  06:32:00      -81.499       -7.986       -1.179       32.502       21.867       16.351     1056.405      478.152      267.363        0.425        0.090       81.890       16.837        0.042      340.763       15.008      860.918
08/18/2014  06:33:00      -88.653      -19.091       -6.396       26.467       23.264       17.286      700.516      541.215      298.793        0.490        0.077       90.686       16.438        0.033      340.703       14.907      860.920
08/18/2014  06:34:00      -91.760      -46.767       -0.342       37.693       31.472       20.481     1420.759      990.479      419.461        0.672        0.142      102.991       14.134        0.019      340.687       14.879      860.921
08/18/2014  06:35:00      -54.999      -76.414        8.432       51.510       49.217       26.271     2653.248     2422.268      690.176        0.735        0.288       94.149       26.816        0.081      340.730       14.953      860.932
08/18/2014  06:36:00      -67.772      -76.654       -3.261       59.928       50.102       29.162     3591.423     2510.241      850.441        0.871        0.348      102.317       26.261        0.066      340.705       14.910      860.927
08/18/2014  06:37:00     -154.031      -59.134       -8.943       32.498       43.456       25.368     1056.133     1888.429      643.542        1.544        0.179      164.992       18.645        0.013      340.817       15.099      860.923
08/18/2014  06:38:00     -117.836      -44.770       -5.537       27.540       19.123       16.027      758.445      365.692      256.850        0.865        0.069      126.054       10.276        0.007      340.895       15.229      860.923
08/18/2014  06:39:00      -47.676      -35.297        5.419       45.078       34.764       22.420     2032.024     1208.528      502.645        0.364        0.187       59.320       22.056        0.138      340.908       15.252      860.940
08/18/2014  06:40:00      -82.243      -80.208        4.143       36.636       38.379       26.698     1342.232     1472.938      712.784        0.837        0.176      114.880       21.242        0.034      340.816       15.097      860.955
08/18/2014  06:41:00      -61.698      -56.895        4.097       38.438       30.643       19.306     1477.443      939.007      372.725        0.492        0.139       83.927       14.471        0.030      340.842       15.142      860.950
08/18/2014  06:42:00      -34.677      -27.030        2.094       17.435       26.943       13.333      303.986      725.944      177.776        0.157        0.060       43.967       10.004        0.052      340.928       15.286      860.945
08/18/2014  06:43:00      -37.744      -24.579        2.709       32.280       20.838       16.804     1041.980      434.203      282.382        0.190        0.088       45.042       20.057        0.198      340.989       15.389      860.940
08/18/2014  06:44:00      -88.042      -49.165       -1.649       39.394       35.076       26.998     1551.920     1230.319      728.911        0.684        0.176      100.839       14.995        0.022      340.803       15.075      860.940
08/18/2014  06:45:00     -142.761      -91.784       -7.616       33.577       36.885       23.393     1127.388     1360.477      547.237        1.595        0.152      169.721       20.773        0.015      340.747       14.981      860.947
08/18/2014  06:46:00      -92.175      -30.599        0.415       54.749       37.266       20.225     2997.420     1388.789      409.034        0.711        0.240       97.121       24.900        0.066      340.760       15.004      860.956
08/18/2014  06:47:00      -35.648      -27.616        0.503       23.314       17.379       12.265      543.538      302.045      150.439        0.151        0.050       45.094        9.898        0.048      340.754       14.993      860.969
08/18/2014  06:48:00       -5.754      -56.354       -2.625       20.451       17.717       16.598      418.255      313.880      275.500        0.211        0.050       56.647       11.876        0.044      340.876       15.200      860.962
08/18/2014  06:49:00      -44.442      -61.904       -6.006       19.386       38.719       14.199      375.807     1499.182      201.600        0.396        0.104       76.205       12.086        0.025      340.843       15.143      860.958
08/18/2014  06:50:00      -36.924      -47.191        2.909       29.761       24.750       15.809      885.706      612.553      249.921        0.267        0.087       59.919       17.456        0.085      341.028       15.457      860.945
08/18/2014  06:51:00      -84.304      -33.850       -6.675       27.065       20.977       16.260      732.492      440.032      264.376        0.487        0.072       90.846        7.639        0.007      340.963       15.347      860.937
08/18/2014  06:52:00      -72.662      -60.859       -3.609       16.066       21.597       11.583      258.118      466.419      134.166        0.493        0.043       94.782        8.386        0.008      340.922       15.277      860.950
08/18/2014  06:53:00      -55.386      -54.568        1.941       39.264       21.670       20.368     1541.640      469.583      414.869        0.424        0.121       77.752       24.879        0.102      340.981       15.377      860.960
08/18/2014  06:54:00      -18.513      -32.485        7.009       25.089       18.507       14.581      629.449      342.522      212.597        0.132        0.059       37.390       15.558        0.173      341.055       15.502      860.966
08/18/2014  06:55:00      -24.081      -50.675       -0.132       17.832       21.056        9.864      317.991      443.338       97.291        0.200        0.043       56.106        8.379        0.022      341.006       15.418      860.967
08/18/2014  06:56:00        0.197      -40.575      -11.702       13.325       11.486       11.461      177.559      131.935      131.365        0.111        0.022       40.575        8.031        0.039      341.055       15.503      860.975
08/18/2014  06:57:00        0.751      -36.091       -1.546       10.183        7.637       11.271      103.687       58.321      127.024        0.080        0.014       36.099        7.305        0.041      341.107       15.592      860.984
08/18/2014  06:58:00      -20.736      -10.858       -5.681       13.911        9.202       11.147      193.523       84.683      124.255        0.049        0.020       23.407        8.679        0.137      341.352       16.005      860.995
08/18/2014  06:59:00      -25.710        1.685        2.089       18.809        9.794       10.985      353.770       95.928      120.664        0.062        0.029       25.765        9.407        0.133      341.326       15.963      861.006
08/18/2014  07:00:00      -38.850       -7.491        4.855       24.461       18.672       17.549      598.317      348.651      307.962        0.142        0.063       39.566       15.820        0.160      341.324       15.957      861.016
08/18/2014  07:01:00      -61.292      -17.373       -2.794       17.597       15.357       11.475      309.663      235.840      131.684        0.237        0.034       63.707       10.582        0.028      341.218       15.778      861.007
08/18/2014  07:02:00      -46.268      -19.208        0.691       15.924       12.055       11.588      253.562      145.319      134.284        0.152        0.027       50.097        7.125        0.020      341.224       15.789      861.009
08/18/2014  07:03:00      -19.079      -24.945       -1.452       26.798       14.798        8.975      718.145      218.990       80.548        0.100        0.051       31.405       10.116        0.104      341.251       15.836      861.007
08/18/2014  07:04:00       13.026      -35.734       -5.326       15.291       18.928       17.207      233.828      358.253      296.065        0.118        0.044       38.034       14.454        0.144      341.135       15.638      861.026
08/18/2014  07:05:00        4.289      -23.587       11.874       14.763       23.488       16.653      217.958      551.707      277.311        0.088        0.052       23.974       14.755        0.379      341.313       15.939      861.047
08/18/2014  07:06:00      -17.459      -27.180        8.868       22.056       30.007       16.371      486.465      900.419      268.012        0.139        0.083       32.304       20.513        0.403      341.473       16.209      861.074
08/18/2014  07:07:00      -21.258       -7.963        8.431       32.113       14.543       16.906     1031.216      211.500      285.815        0.106        0.076       22.701       17.285        0.580      341.452       16.174      861.096
08/18/2014  07:08:00      -55.775      -47.955        0.368       35.347       19.989       14.469     1249.414      399.568      209.348        0.363        0.093       73.556       12.436        0.029      341.208       15.761      861.099
08/18/2014  07:09:00      -69.692      -29.817       -0.801       33.176       25.332       18.075     1100.628      641.704      326.703        0.391        0.103       75.803       17.821        0.055      341.151       15.664      861.090
08/18/2014  07:10:00      -59.059      -30.490       -0.922       21.199       29.693       13.646      449.400      881.686      186.226        0.297        0.076       66.465       13.912        0.044      341.129       15.628      861.079
08/18/2014  07:11:00      -53.104      -26.103       -8.895       18.542       15.214        8.306      343.812      231.472       68.991        0.211        0.032       59.173        8.290        0.020      341.208       15.763      861.058
08/18/2014  07:12:00      -53.321      -23.181       -0.253       11.017       11.103        9.503      121.366      123.278       90.307        0.186        0.017       58.142        7.426        0.016      341.252       15.836      861.056
08/18/2014  07:13:00      -30.582      -33.007       10.504       40.597       30.280       20.144     1648.095      916.858      405.776        0.255        0.149       44.997       23.178        0.265      341.360       16.020      861.067
08/18/2014  07:14:00      -92.234      -99.036       -3.091       45.513       40.056       23.669     2071.402     1604.483      560.216        1.128        0.212      135.334       25.788        0.036      341.260       15.851      861.075
08/18/2014  07:15:00      -62.457      -61.077       -6.447       31.435       29.003       20.578      988.138      841.162      423.440        0.496        0.113       87.357       15.871        0.033      341.287       15.896      861.084
08/18/2014  07:16:00      -28.642      -49.455        9.269       29.060       35.495       20.641      844.478     1259.882      426.052        0.294        0.127       57.150       15.593        0.074      341.314       15.941      861.079
08/18/2014  07:17:00      -14.466      -39.202       -7.507       15.508       15.500       12.475      240.503      240.243      155.630        0.122        0.032       41.786        7.754        0.034      341.350       16.002      861.071
08/18/2014  07:18:00       -4.943      -24.630       -1.686       19.946       19.576       14.693      397.846      383.218      215.895        0.082        0.050       25.121        9.570        0.145      341.437       16.149      861.077
08/18/2014  07:19:00      -10.938      -78.617        3.929       18.253       34.346       20.123      333.173     1179.676      404.929        0.412        0.096       79.375        9.034        0.013      341.339       15.984      861.083
08/18/2014  07:20:00      -68.634      -89.342       -7.057       37.542       35.968       25.082     1409.380     1293.662      629.110        0.804        0.167      112.661       21.983        0.038      341.229       15.797      861.086
08/18/2014  07:21:00      -61.533      -44.015        1.699       33.877       28.313       19.715     1147.651      801.607      388.675        0.403        0.117       75.655       20.737        0.075      341.220       15.783      861.080
08/18/2014  07:22:00      -83.057      -54.615       -3.193       14.749       19.385        9.662      217.527      375.787       93.345        0.529        0.034       99.405        8.169        0.007      341.212       15.768      861.064
08/18/2014  07:23:00      -23.705      -30.169       -2.766       14.042       18.814       13.186      197.173      353.966      173.874        0.110        0.036       38.368       10.481        0.075      341.270       15.868      861.058
08/18/2014  07:24:00      -17.416      -21.550       -3.427       11.944       12.228       10.955      142.663      149.513      120.004        0.060        0.021       27.707        5.544        0.040      341.476       16.216      861.044
08/18/2014  07:25:00      -18.901      -38.499      -11.837       28.426       19.863       16.884      808.041      394.535      285.082        0.173        0.074       42.889       11.694        0.074      341.397       16.080      861.058
08/18/2014  07:26:00      -23.253      -47.010        9.452       32.322       37.499       16.113     1044.698     1406.183      259.632        0.277        0.136       52.447       19.162        0.133      341.653       16.516      861.078
08/18/2014  07:27:00      -15.546      -16.774       10.929       23.687       26.259       18.571      561.090      689.549      344.891        0.112        0.080       22.870       15.053        0.433      341.844       16.839      861.104
08/18/2014  07:28:00      -51.643      -35.304        3.473       32.504       22.644       17.793     1056.522      512.740      316.580        0.291        0.094       62.557       16.810        0.072      341.535       16.314      861.127
08/18/2014  07:29:00      -44.554      -71.612        2.333       27.705       25.502       20.954      767.594      650.363      439.089        0.449        0.093       84.340       15.132        0.032      341.383       16.058      861.133
08/18/2014  07:30:00      -24.814      -50.372        0.539       19.877       34.832       17.944      395.111     1213.275      321.978        0.254        0.097       56.152       18.862        0.113      341.548       16.337      861.136
08/18/2014  07:31:00      -12.253      -88.513       -0.221       25.811       26.990       15.426      666.227      728.466      237.949        0.481        0.082       89.357        7.005        0.006      341.508       16.269      861.131
08/18/2014  07:32:00      -18.183      -17.594       -1.791       23.641       42.482       18.307      558.890     1804.698      335.133        0.167        0.135       25.302       21.231        0.704      341.430       16.136      861.122
08/18/2014  07:33:00      -13.639        5.025       15.039       10.397       11.453       14.636      108.089      131.176      214.215        0.045        0.023       14.535        7.058        0.236      341.925       16.977      861.136
08/18/2014  07:34:00      -11.883        0.162       13.697       16.832       13.728       16.951      283.315      188.465      287.344        0.054        0.038       11.884       11.468        0.931      341.768       16.709      861.145
08/18/2014  07:35:00      -20.344      -16.557       -4.035       26.934       21.688       13.090      725.419      470.381      171.361        0.104        0.068       26.230        9.082        0.120      341.676       16.553      861.151
08/18/2014  07:36:00       -5.313      -23.353        6.581       23.035       20.796       18.779      530.610      432.454      352.637        0.097        0.066       23.950       10.320        0.186      341.877       16.896      861.135
08/18/2014  07:37:00      -13.351      -51.695       -2.766       17.678       25.834       20.374      312.505      667.375      415.097        0.213        0.070       53.391       13.336        0.062      341.667       16.540      861.121
08/18/2014  07:38:00       23.454       -3.493       20.639       22.332       23.747       24.224      498.699      563.919      586.813        0.132        0.082       23.712       19.841        0.700      341.838       16.829      861.110
08/18/2014  07:39:00       29.983       -2.374       23.986       32.301       22.626       21.341     1043.323      511.924      455.433        0.174        0.101       30.077       21.397        0.506      342.047       17.185      861.117
08/18/2014  07:40:00        1.747       -6.405        9.352       21.208       22.070       24.455      449.799      487.066      598.062        0.083        0.077        6.639       13.173        3.937      341.990       17.087      861.131
08/18/2014  07:41:00      -11.276       -2.992        1.308       16.289       10.227       11.013      265.341      104.596      121.283        0.031        0.025       11.667        7.488        0.412      342.095       17.265      861.138
08/18/2014  07:42:00      -51.356      -41.632       -0.479       35.744       26.439       16.626     1277.669      699.010      276.421        0.331        0.113       66.111       17.482        0.070      341.811       16.783      861.140
08/18/2014  07:43:00      -22.911       -0.501       10.111       20.581       23.713       17.151      423.567      562.306      294.158        0.095        0.064       22.916       13.606        0.352      341.993       17.092      861.125
08/18/2014  07:44:00        4.276        6.848       10.295       25.932       24.354       26.024      672.481      593.130      677.260        0.106        0.097        8.073       13.585        2.832      341.936       16.995      861.108
08/18/2014  07:45:00       33.027       -9.213       -1.200       26.287       32.839       21.270      690.985     1078.426      452.411        0.170        0.111       34.288       12.679        0.137      341.592       16.411      861.106
08/18/2014  07:46:00       23.551       22.842       18.024       23.018       15.465       17.378      529.832      239.157      302.001        0.124        0.054       32.809       12.273        0.140      341.658       16.525      861.106
08/18/2014  07:47:00       10.498        8.702       14.249       18.709       17.571       22.020      350.035      308.742      484.881        0.077        0.057       13.636       11.520        0.714      341.995       17.095      861.124
08/18/2014  07:48:00       -6.795        6.827       30.344       15.363       13.165       14.501      236.028      173.330      210.283        0.082        0.031        9.632        8.571        0.792      342.543       18.028      861.132
08/18/2014  07:49:00       -1.110       25.241       11.855       14.879       27.040       32.662      221.391      731.165     1066.792        0.140        0.101       25.266       21.902        0.751      342.390       17.767      861.133
08/18/2014  07:50:00       35.240       -4.784       17.711       28.327       18.054       20.259      802.406      325.947      410.416        0.156        0.077       35.563       18.202        0.262      342.169       17.391      861.139
08/18/2014  07:51:00       -0.503       -9.072       15.057       22.054       25.009       22.074      486.361      625.445      487.283        0.095        0.080        9.086       13.683        2.268      342.236       17.506      861.135
08/18/2014  07:52:00        3.744       16.907       23.784       16.816       24.450       20.551      282.771      597.804      422.360        0.108        0.065       17.317       18.151        1.099      342.072       17.226      861.143
08/18/2014  07:53:00      -14.053       -2.508       17.817       13.425       12.895       14.763      180.243      166.279      217.941        0.054        0.028       14.275       11.186        0.614      342.624       18.166      861.150
08/18/2014  07:54:00        0.795       -1.431       23.318       20.613       15.389       19.457      424.876      236.807      378.568        0.079        0.052        1.637       11.379       48.329      343.049       18.888      861.153
08/18/2014  07:55:00       35.884      -10.979       22.453       49.266       25.421       26.918     2427.109      646.235      724.565        0.285        0.190       37.526       20.520        0.299      342.196       17.437      861.145
08/18/2014  07:56:00       57.694        2.349       27.274       36.979       33.366       27.996     1367.482     1113.306      783.749        0.367        0.163       57.742       27.965        0.235      342.086       17.250      861.145
08/18/2014  07:57:00       10.251        7.255       26.172       32.353       25.474       26.157     1046.690      648.949      684.208        0.161        0.119       12.559       19.848        2.498      342.289       17.595      861.155
08/18/2014  07:58:00      -31.193        2.620       19.003       24.002       37.499       22.954      576.103     1406.139      526.892        0.192        0.125       31.303       14.629        0.218      342.515       17.980      861.166
08/18/2014  07:59:00      -70.996      -58.348       -0.686       30.780       24.320       19.737      947.435      591.466      389.551        0.519        0.096       91.896       18.489        0.040      342.222       17.483      861.176
08/18/2014  08:00:00      -47.492      -75.142       -5.632       18.994       20.454       16.788      360.760      418.352      281.830        0.450        0.053       88.892        7.848        0.008      342.184       17.416      861.163
08/18/2014  08:01:00      -20.262      -12.431        1.888       11.090       14.557        9.480      122.982      211.896       89.871        0.050        0.021       23.772        7.863        0.109      342.483       17.924      861.137
08/18/2014  08:02:00       21.525        6.150       29.724       22.366       13.247       15.462      500.243      175.494      239.072        0.115        0.046       22.386        2.590        0.013      342.686       18.270      861.127
08/18/2014  08:03:00       26.251        0.916       18.932       20.144       15.296       19.666      405.780      233.972      386.734        0.104        0.051       26.267        9.886        0.142      342.433       17.838      861.111
08/18/2014  08:04:00       27.960       -4.902       20.709       19.250       17.859       18.323      370.564      318.945      335.714        0.113        0.051       28.386       10.696        0.142      342.417       17.811      861.130
08/18/2014  08:05:00       12.191        2.576       19.388       16.153       17.966       15.591      260.915      322.769      243.084        0.068        0.041       12.461       12.317        0.977      342.706       18.303      861.142
08/18/2014  08:06:00       30.330        1.248       12.702       21.579       15.916       16.737      465.637      253.321      280.111        0.104        0.050       30.356        3.848        0.016      342.372       17.735      861.153
08/18/2014  08:07:00       25.929        9.632        3.691       16.000       13.527       13.056      256.005      182.973      170.449        0.069        0.030       27.661       10.205        0.136      342.353       17.704      861.160
08/18/2014  08:08:00        3.152        6.164       26.246       17.703       12.937       17.049      313.395      167.357      290.676        0.075        0.039        6.923       11.862        2.935      342.897       18.630      861.155
08/18/2014  08:09:00       17.868        3.581       27.889       30.724       19.706       22.806      943.962      388.345      520.096        0.148        0.093       18.223       14.647        0.646      342.949       18.719      861.142
08/18/2014  08:10:00       36.301       -2.006       18.851       43.596       23.545       26.259     1900.573      554.344      689.553        0.241        0.157       36.356       23.405        0.414      342.600       18.124      861.146
08/18/2014  08:11:00       -6.824       20.829       26.308       14.137       17.809       20.918      199.859      317.157      437.575        0.106        0.048       21.918       10.452        0.227      343.038       18.870      861.142
08/18/2014  08:12:00        7.207       21.631       18.061       15.501       16.783       17.282      240.283      281.672      298.682        0.083        0.041       22.801       13.702        0.361      342.756       18.387      861.138
08/18/2014  08:13:00       27.559       16.470       23.264       19.459       15.124       19.928      378.666      228.725      397.133        0.129        0.050       32.105        6.949        0.047      342.540       18.022      861.130
08/18/2014  08:14:00       45.093        4.542       -9.166       23.975       19.742       24.000      574.816      389.751      576.011        0.184        0.077       45.321        7.365        0.026      342.342       17.685      861.111
08/18/2014  08:15:00       17.177        2.829       14.862       37.019       23.276       24.771     1370.374      541.776      613.580        0.152        0.126       17.409       17.234        0.980      342.780       18.430      861.105
08/18/2014  08:16:00      -18.382       33.872       17.957       26.617       21.579       19.187      708.440      465.665      368.155        0.167        0.077       38.538       10.061        0.068      342.691       18.277      861.106
08/18/2014  08:17:00      -45.261        5.591       14.515       25.729       19.091       15.388      662.000      364.485      236.779        0.178        0.063       45.605       12.634        0.077      342.761       18.395      861.122
08/18/2014  08:18:00      -24.774        9.586       -1.268       25.084       16.362       18.068      629.213      267.714      326.443        0.097        0.061       26.564        9.010        0.115      343.052       18.893      861.128
08/18/2014  08:19:00      -19.906      -23.677        9.274       24.058       29.809       28.924      578.791      888.563      836.606        0.167        0.115       30.933       17.706        0.328      343.022       18.841      861.118
08/18/2014  08:20:00        4.283       24.961       28.347       24.335       26.084       25.620      592.173      680.398      656.380        0.169        0.096       25.326       15.727        0.386      343.254       19.238      861.111
08/18/2014  08:21:00        1.502       22.722       33.342       17.132       27.610       22.116      293.503      762.321      489.102        0.159        0.077       22.772       21.057        0.855      343.069       18.923      861.101
08/18/2014  08:22:00       27.497        5.426       17.743       32.831       21.754       21.041     1077.899      473.253      442.715        0.155        0.100       28.027       20.015        0.510      342.864       18.572      861.097
08/18/2014  08:23:00       51.326        2.360       16.154       28.017       19.132       26.774      784.969      366.038      716.865        0.238        0.093       51.380       18.474        0.129      342.808       18.477      861.098
08/18/2014  08:24:00        2.074        3.541       14.315       27.933       13.212       24.801      780.255      174.557      615.111        0.090        0.078        4.104       13.766       11.252      343.183       19.115      861.091
08/18/2014  08:25:00       26.476       -5.997       20.721       17.680       20.765       14.670      312.570      431.204      215.205        0.106        0.048       27.146       11.038        0.165      342.983       18.774      861.092
08/18/2014  08:26:00       12.936        1.477       28.433       23.737       14.906       14.537      563.448      222.190      211.318        0.099        0.050       13.020       17.204        1.746      343.384       19.460      861.105
08/18/2014  08:27:00      -14.109       -2.074        5.004       10.620        9.638       13.564      112.792       92.894      183.987        0.031        0.019       14.261        9.936        0.485      343.314       19.338      861.107
08/18/2014  08:28:00      -10.788       -2.158       14.124       11.320        6.300       15.546      128.133       39.690      241.669        0.036        0.020       11.001        9.610        0.763      343.833       20.224      861.118
08/18/2014  08:29:00       -1.541        7.707       23.013       12.215       12.092       10.220      149.203      146.218      104.456        0.050        0.020        7.860        7.014        0.796      343.733       20.053      861.122
08/18/2014  08:30:00        6.816       39.004        9.517       10.775       19.842       16.068      116.106      393.718      258.176        0.121        0.038       39.595       15.547        0.154      343.361       19.418      861.125
08/18/2014  08:31:00       24.330       20.579        5.051       15.495       17.411       15.410      240.089      303.139      237.481        0.091        0.039       31.867        9.242        0.084      343.153       19.063      861.130
08/18/2014  08:32:00       24.404       29.240       -7.187       11.882       12.680       10.400      141.174      160.780      108.155        0.096        0.021       38.086        5.367        0.020      342.999       18.803      861.128
08/18/2014  08:33:00       -1.708       26.235       -7.449       13.661       22.546       14.266      186.632      508.320      203.520        0.082        0.045       26.290       16.440        0.391      343.287       19.293      861.125
08/18/2014  08:34:00       -8.927       -1.729       18.821       11.766       11.204       11.429      138.433      125.521      130.614        0.042        0.020        9.093        7.683        0.714      344.016       20.537      861.119
08/18/2014  08:35:00       -0.277       22.024       17.489       18.641       19.466       19.726      347.495      378.911      389.096        0.095        0.056       22.025       15.144        0.473      343.866       20.279      861.105
08/18/2014  08:36:00        4.261       14.568       10.110       25.965       24.366       19.711      674.206      593.713      388.509        0.099        0.083       15.178       20.065        1.747      343.720       20.032      861.096
08/18/2014  08:37:00      -19.927        6.910       17.130       18.550       10.599       10.482      344.091      112.348      109.882        0.065        0.028       21.091        7.524        0.127      343.662       19.932      861.086
08/18/2014  08:38:00      -30.309       11.521        8.634       20.759       12.535       13.209      430.948      157.126      174.478        0.094        0.038       32.425        4.518        0.019      343.570       19.775      861.081
08/18/2014  08:39:00      -34.646       20.837       17.565       14.924       16.594       19.695      222.725      275.373      387.909        0.141        0.044       40.429       14.650        0.131      343.704       20.003      861.094
08/18/2014  08:40:00      -37.725        2.559        9.330       11.748       10.487       11.657      138.006      109.971      135.889        0.095        0.019       37.811        7.422        0.039      343.360       19.419      861.108
08/18/2014  08:41:00      -31.399       -1.638        2.813        9.553        5.166        5.995       91.261       26.692       35.937        0.058        0.008       31.442        3.423        0.012      343.255       19.238      861.113
08/18/2014  08:42:00      -19.648        7.772        7.518        8.981        8.883       12.766       80.658       78.904      162.976        0.041        0.016       21.130        7.856        0.138      343.628       19.872      861.119
08/18/2014  08:43:00      -10.046       -5.291       22.607       14.858        9.715        8.462      220.771       94.378       71.597        0.051        0.019       11.354        4.682        0.170      344.144       20.756      861.110
08/18/2014  08:44:00        7.935       17.767       14.279       19.978       22.844       18.462      399.119      521.842      340.846        0.092        0.063       19.459       16.510        0.720      344.071       20.630      861.103
08/18/2014  08:45:00       13.058       69.891        7.320       24.829       40.329       30.667      616.500     1626.465      940.489        0.415        0.159       71.100       27.682        0.152      344.032       20.563      861.105
08/18/2014  08:46:00       12.387       22.758       17.739       37.768       32.346       30.057     1426.395     1046.255      903.437        0.218        0.169       25.911       27.102        1.094      343.983       20.479      861.110
08/18/2014  08:47:00       28.192       32.290       16.752       23.408       24.269       32.674      547.934      588.990     1067.566        0.216        0.110       42.865       21.204        0.245      343.821       20.202      861.113
08/18/2014  08:48:00       81.461       41.931       18.331       48.575       29.285       28.999     2359.536      857.591      840.917        0.639        0.203       91.620       25.020        0.075      343.668       19.942      861.106
08/18/2014  08:49:00       71.262       30.835       26.542       58.847       39.157       43.571     3463.004     1533.234     1898.422        0.681        0.345       77.647       34.408        0.196      343.922       20.376      861.102
08/18/2014  08:50:00       83.198       42.969        1.261       41.081       25.769       23.542     1687.615      664.058      554.208        0.584        0.145       93.639       16.200        0.030      343.653       19.915      861.096
08/18/2014  08:51:00       51.014       49.153        8.406       27.863       29.513       28.954      776.374      871.021      838.337        0.379        0.124       70.842       18.965        0.072      344.044       20.584      861.088
08/18/2014  08:52:00       24.470       33.030      -10.337       16.927       36.008       22.053      286.538     1296.606      486.356        0.193        0.103       41.107       10.637        0.067      343.763       20.104      861.086
08/18/2014  08:53:00       13.370      -12.103        6.648       29.602       19.828       17.672      876.276      393.144      312.282        0.098        0.079       18.035        7.233        0.161      343.912       20.359      861.089
08/18/2014  08:54:00       13.962       14.782       34.518       27.399       39.763       23.941      750.700     1581.124      573.192        0.225        0.145       20.333       27.659        1.850      343.874       20.295      861.081
08/18/2014  08:55:00       65.612       43.376       26.273       40.922       38.180       25.069     1674.590     1457.701      628.469        0.532        0.188       78.654       17.953        0.052      343.595       19.818      861.079
08/18/2014  08:56:00      121.609       72.810       18.739       32.633       28.413       33.832     1064.925      807.285     1144.634        1.173        0.151      141.739       18.629        0.017      343.640       19.894      861.075
08/18/2014  08:57:00       55.567       68.309        7.570       36.452       32.530       23.765     1328.768     1058.203      564.796        0.538        0.148       88.056       20.027        0.052      343.723       20.036      861.069
08/18/2014  08:58:00       -9.131        6.785       16.745       17.170       32.188       22.416      294.794     1036.044      502.470        0.112        0.092       11.376       17.054        2.247      344.382       21.162      861.067
08/18/2014  08:59:00       23.096       10.759       17.420       21.767       22.136       23.642      473.810      489.985      558.944        0.124        0.076       25.479       17.417        0.467      344.344       21.097      861.068
08/18/2014  09:00:00        1.713       21.433       34.088       16.483       24.196       19.411      271.698      585.452      376.780        0.143        0.062       21.501       10.136        0.222      344.355       21.115      861.066
08/18/2014  09:01:00      -35.788        8.498        8.588       26.952       11.716       13.153      726.387      137.258      173.000        0.123        0.052       36.783       14.149        0.148      344.058       20.608      861.061
08/18/2014  09:02:00      -17.459       -1.402        6.000       24.501       16.296       13.454      600.296      265.574      181.023        0.069        0.052       17.516       10.012        0.327      344.098       20.677      861.062
08/18/2014  09:03:00        2.909       24.750       50.549       24.644       25.837       19.348      607.325      667.570      374.340        0.241        0.082       24.920       18.407        0.546      344.157       20.778      861.049
08/18/2014  09:04:00        1.002       50.733       43.358       20.659       19.909       29.445      426.785      396.354      867.023        0.307        0.085       50.742       23.219        0.209      343.823       20.206      861.024
08/18/2014  09:05:00       -4.620       44.411       14.440       20.083       26.269       21.410      403.318      690.085      458.381        0.188        0.078       44.651       14.750        0.109      344.139       20.747      861.013
08/18/2014  09:06:00      -10.897       44.318       28.472       16.402       26.393       28.824      269.024      696.570      830.837        0.234        0.090       45.638       18.514        0.165      344.932       22.103      861.002
08/18/2014  09:07:00       -7.619       13.573       32.953       16.959       17.740       15.467      287.597      314.705      239.240        0.108        0.042       15.565        9.759        0.393      344.980       22.185      860.987
08/18/2014  09:08:00      -12.282       21.263       49.093       13.544       17.815       12.593      183.450      317.386      158.581        0.184        0.033       24.555       10.310        0.176      344.951       22.136      860.983
08/18/2014  09:09:00       16.761        5.680       33.513       31.073       28.762       20.254      965.508      827.267      410.211        0.182        0.110       17.697       23.580        1.775      344.633       21.592      860.987
08/18/2014  09:10:00       10.019      -20.996        4.570       19.489       28.703       23.283      379.807      823.837      542.116        0.115        0.087       23.264       19.476        0.701      344.152       20.767      860.994
08/18/2014  09:11:00        8.503       15.883       40.753       20.295       21.546       14.372      411.889      464.245      206.559        0.153        0.054       18.016       11.191        0.386      344.960       22.150      860.997
08/18/2014  09:12:00       25.323        4.895       12.473       23.346       23.571       28.450      545.051      555.579      809.379        0.137        0.096       25.792       22.876        0.787      344.418       21.224      860.997
08/18/2014  09:13:00       38.051       31.322       30.313       33.888       24.286       21.059     1148.405      589.790      443.497        0.276        0.109       49.284       16.922        0.118      344.545       21.441      861.000
08/18/2014  09:14:00      101.854       42.377       18.541       47.689       34.486       32.848     2274.233     1189.265     1078.963        0.853        0.227      110.317       20.902        0.036      344.156       20.775      860.988
08/18/2014  09:15:00       70.789       57.658        2.111       48.927       23.801       24.252     2393.857      566.502      588.175        0.594        0.177       91.299       20.366        0.050      344.357       21.117      860.984
08/18/2014  09:16:00       73.739       41.614       12.515       38.708       23.613       26.833     1498.323      557.550      720.012        0.505        0.139       84.671       16.048        0.036      344.499       21.361      860.976
08/18/2014  09:17:00       25.623       58.302       54.949       39.358       29.582       23.330     1549.017      875.072      544.297        0.502        0.148       63.684       23.597        0.137      344.700       21.707      860.965
08/18/2014  09:18:00       16.872        6.104       26.533       24.681       26.220       17.597      609.158      687.489      309.639        0.132        0.080       17.942       10.862        0.366      344.565       21.474      860.960
08/18/2014  09:19:00        5.875       20.637       28.692       21.612       22.349       20.956      467.098      499.492      439.145        0.134        0.070       21.457       12.032        0.314      344.611       21.553      860.954
08/18/2014  09:20:00       38.198       34.571       33.187       40.277       22.672       18.665     1622.214      514.034      348.399        0.312        0.124       51.519       18.559        0.130      344.302       21.025      860.944
08/18/2014  09:21:00      106.215       58.504       -1.177       55.216       40.116       27.494     3048.792     1609.286      755.929        1.006        0.271      121.261       19.879        0.027      344.293       21.009      860.939
08/18/2014  09:22:00       42.880       24.358        9.788       26.463       21.981       18.277      700.273      483.173      334.047        0.202        0.076       49.315       15.823        0.103      344.622       21.572      860.936
08/18/2014  09:23:00       42.065       55.363       36.949       41.086       25.259       22.967     1688.053      638.011      527.471        0.453        0.143       69.530       19.459        0.078      345.023       22.258      860.930
08/18/2014  09:24:00       -6.389        8.749       21.309       13.007       30.177       19.891      169.181      910.647      395.651        0.102        0.074       10.834       10.863        1.005      345.187       22.539      860.920
08/18/2014  09:25:00       34.980      -10.187       26.311       22.330       21.978       24.525      498.634      483.032      601.463        0.180        0.079       36.433       15.746        0.187      344.692       21.692      860.916
08/18/2014  09:26:00       32.468      -28.434        7.641       46.487       25.270       27.976     2161.045      638.561      782.643        0.275        0.179       43.159       19.306        0.200      344.550       21.449      860.915
08/18/2014  09:27:00       16.836        2.778       29.240       31.389       36.074       29.507      985.290     1301.346      870.684        0.215        0.158       17.064       25.504        2.234      345.126       22.434      860.915
08/18/2014  09:28:00        5.363      -34.008       24.115       30.518       35.532       33.462      931.333     1262.503     1119.720        0.254        0.166       34.428       19.433        0.319      345.108       22.403      860.917
08/18/2014  09:29:00       30.148       24.336       41.418       46.638       30.492       28.026     2175.074      929.791      785.454        0.355        0.195       38.744       27.009        0.486      345.196       22.554      860.905
08/18/2014  09:30:00       27.351       -2.577       15.944       31.414       29.182       22.746      986.845      851.614      517.365        0.168        0.118       27.472       11.378        0.172      344.853       21.969      860.899
08/18/2014  09:31:00       12.385       26.546       15.857       23.402       30.539       19.454      547.643      932.620      378.466        0.148        0.093       29.294       15.000        0.262      344.882       22.016      860.901
08/18/2014  09:32:00       26.728      -36.594       -2.638       28.017       27.457       21.403      784.960      753.874      458.081        0.203        0.100       45.315       18.249        0.162      344.466       21.305      860.889
08/18/2014  09:33:00      -11.428      -25.584        9.333       33.156       34.328       22.915     1099.303     1178.419      525.090        0.184        0.140       28.021       18.866        0.453      344.779       21.840      860.886
08/18/2014  09:34:00      -24.581      -18.021       19.302       34.384       28.698       19.441     1182.283      823.548      377.970        0.184        0.119       30.479       20.518        0.453      345.206       22.573      860.872
08/18/2014  09:35:00       -0.715      -23.176       18.577       17.404       20.279       16.892      302.899      411.240      285.347        0.094        0.050       23.187       12.203        0.277      345.101       22.393      860.857
08/18/2014  09:36:00       -7.448        3.376       27.889       21.863       12.636       13.264      477.998      159.676      175.923        0.083        0.041        8.177       11.718        2.054      345.899       23.761      860.853
08/18/2014  09:37:00       -4.661       -5.632       31.507       13.330       23.544       15.481      177.680      554.321      239.646        0.101        0.049        7.311       12.471        2.910      345.825       23.634      860.849
08/18/2014  09:38:00      -11.293      -52.434       10.180       27.303       21.585       25.891      745.469      465.899      670.369        0.243        0.094       53.637       13.576        0.064      344.868       21.992      860.848
08/18/2014  09:39:00      -13.158      -26.841        0.180       23.312       28.745       22.443      543.440      826.282      503.699        0.138        0.094       29.893       19.365        0.420      344.978       22.182      860.846
08/18/2014  09:40:00       10.775       19.383       22.891       36.195       16.133       20.708     1310.084      260.258      428.835        0.151        0.100       22.176        8.516        0.147      345.098       22.387      860.834
08/18/2014  09:41:00      -27.187        3.453       12.738       27.162       15.911       21.784      737.767      253.170      474.558        0.119        0.073       27.406       18.443        0.453      345.378       22.867      860.840
08/18/2014  09:42:00       19.383       16.838       16.179       23.913       23.380       25.175      571.816      546.638      633.800        0.134        0.088       25.675       17.061        0.442      345.160       22.493      860.839
08/18/2014  09:43:00        8.924       -7.533       -6.826       31.317       30.937       25.433      980.749      957.105      646.815        0.138        0.129       11.678       17.269        2.187      345.199       22.558      860.847
08/18/2014  09:44:00      -28.718       19.251        8.008       18.808       15.866       22.554      353.738      251.745      508.704        0.119        0.056       34.573       15.570        0.203      345.260       22.664      860.849
08/18/2014  09:45:00       -8.076       -9.293       22.201       16.567       25.501       24.771      274.474      650.279      613.601        0.109        0.077       12.312       19.557        2.523      345.806       23.602      860.839
08/18/2014  09:46:00        0.243       -9.028        3.742       39.442       19.246       23.371     1555.701      370.422      546.203        0.128        0.124        9.032       18.771        4.320      345.424       22.945      860.828
08/18/2014  09:47:00      -54.819        9.401        1.351       25.855       25.192       20.976      668.501      634.652      439.991        0.242        0.087       55.620       20.027        0.130      345.289       22.715      860.816
08/18/2014  09:48:00        7.939       22.536       33.873       24.593       25.592       18.410      604.831      654.929      338.933        0.166        0.080       23.894       13.794        0.333      345.710       23.436      860.805
08/18/2014  09:49:00      -23.525      -13.483       18.121       38.237       30.956       16.647     1462.086      958.285      277.108        0.188        0.135       27.115       17.010        0.394      345.382       22.874      860.806
08/18/2014  09:50:00     -124.503      -89.601      -14.798       42.393       39.150       26.560     1797.146     1532.752      705.443        1.389        0.202      153.393       21.855        0.020      344.969       22.166      860.797
08/18/2014  09:51:00      -96.357      -87.427       -5.465       47.542       37.908       34.218     2260.221     1437.023     1170.900        1.091        0.243      130.108       32.859        0.064      345.099       22.387      860.788
08/18/2014  09:52:00      -92.980      -41.264      -11.059       24.331       33.189       18.993      591.982     1101.539      360.740        0.626        0.103      101.725       15.746        0.024      344.934       22.105      860.779
08/18/2014  09:53:00     -103.605      -28.538       -8.781       23.198       30.367       18.793      538.153      922.166      353.174        0.672        0.091      107.463       12.633        0.014      344.934       22.106      860.772
08/18/2014  09:54:00      -29.151      -66.560        0.707       32.169       32.613       18.448     1034.864     1063.588      340.325        0.386        0.122       72.664       16.400        0.051      345.145       22.468      860.767
08/18/2014  09:55:00      -21.266      -86.970        0.955       13.706       28.224       17.929      187.856      796.611      321.463        0.466        0.065       89.533       13.230        0.022      345.048       22.302      860.764
08/18/2014  09:56:00      -30.468     -124.988       -6.285       25.064       21.432       22.861      628.204      459.313      522.643        0.910        0.081      128.648        7.048        0.003      345.059       22.317      860.748
08/18/2014  09:57:00      -48.208      -78.232       -2.669       32.927       26.665       16.021     1084.169      711.015      256.685        0.525        0.103       91.893       10.256        0.012      345.274       22.687      860.747
08/18/2014  09:58:00      -42.143       -4.277        2.605       26.624       20.748       19.246      708.862      430.461      370.414        0.166        0.075       42.360       15.946        0.142      345.510       23.090      860.740
08/18/2014  09:59:00       -2.583       22.732       20.284       17.811       23.909       32.988      317.218      571.641     1088.221        0.146        0.099       22.878        5.901        0.067      346.334       24.509      860.733
08/18/2014  10:00:00       30.969       18.342       38.210       34.565       27.942       24.612     1194.752      780.754      605.742        0.267        0.129       35.994       22.213        0.381      345.500       23.076      860.722
08/18/2014  10:01:00       12.675       11.409        7.556       25.336       26.344       23.987      641.929      694.016      575.363        0.113        0.096       17.054        5.445        0.102      345.502       23.080      860.703
08/18/2014  10:02:00       10.257      -56.231        2.951       28.110       33.706       21.007      790.197     1136.064      441.315        0.282        0.118       57.159       12.518        0.048      345.311       22.751      860.705
08/18/2014  10:03:00      -10.618      -26.091        9.530       29.299       46.084       32.535      858.428     2123.736     1058.500        0.246        0.202       28.169       22.742        0.652      345.930       23.814      860.696
08/18/2014  10:04:00        1.433       -8.468       36.794       13.822       28.344       21.308      191.061      803.369      454.027        0.144        0.072        8.588       17.454        4.130      346.084       24.079      860.694
08/18/2014  10:05:00       17.110       33.162       47.682       37.791       37.820       27.826     1428.143     1430.375      774.267        0.365        0.182       37.315       20.804        0.311      346.043       24.006      860.688
08/18/2014  10:06:00       88.263       78.536       17.362       42.524       57.822       43.420     1808.291     3343.377     1885.255        1.065        0.352      118.145       40.893        0.120      345.291       22.715      860.674
08/18/2014  10:07:00       -6.236       33.057        7.913       20.043       23.959       24.193      401.730      574.029      585.304        0.138        0.078       33.640       14.703        0.191      345.974       23.889      860.666
08/18/2014  10:08:00      -54.393       20.360       12.842       35.720       22.436       32.572     1275.896      503.364     1060.914        0.319        0.142       58.079       28.926        0.248      345.934       23.819      860.657
08/18/2014  10:09:00      -43.161      -47.721       -0.473       33.881       23.567       15.197     1147.950      555.408      230.951        0.304        0.097       64.344       17.584        0.075      345.538       23.140      860.647
08/18/2014  10:10:00      -11.635        5.003       36.051       12.918       16.455       20.948      166.863      270.774      438.819        0.117        0.044       12.665       10.492        0.686      346.862       25.416      860.642
08/18/2014  10:11:00      -13.645        6.844       54.665       24.001       45.423       28.681      576.035     2063.255      822.601        0.334        0.173       15.265       26.767        3.075      346.597       24.960      860.636
08/18/2014  10:12:00       34.155      -39.207       45.040       42.922       93.944       36.069     1842.261     8825.553     1300.967        0.835        0.598       51.998       53.257        1.049      346.044       24.009      860.627
08/18/2014  10:13:00       42.584       23.122       24.516       49.654       41.297       46.433     2465.477     1705.475     2156.007        0.464        0.316       48.457       15.638        0.104      346.215       24.302      860.631
08/18/2014  10:14:00       61.470       76.433       54.349       86.230       47.616       33.395     7435.580     2267.256     1115.228        1.169        0.541       98.085       16.666        0.029      346.480       24.759      860.624
08/18/2014  10:15:00      140.788       91.334        7.685       65.898       38.101       52.351     4342.558     1451.719     2740.599        1.838        0.427      167.819       10.872        0.004      345.812       23.608      860.624
08/18/2014  10:16:00       47.869       42.432       28.201       32.978       33.353       30.053     1087.548     1112.454      903.185        0.399        0.155       63.968       14.349        0.050      346.370       24.570      860.624
08/18/2014  10:17:00       66.103      -25.430       18.044       45.212       60.395       45.756     2044.086     3647.607     2093.641        0.656        0.389       70.826       38.886        0.301      346.352       24.538      860.623
08/18/2014  10:18:00       23.153      -48.709       23.894       37.999       71.803       43.083     1443.900     5155.717     1856.105        0.597        0.423       53.932       52.461        0.946      345.925       23.805      860.634
08/18/2014  10:19:00       15.927      -41.282       23.998       38.088       71.687       47.168     1450.669     5139.069     2224.821        0.567        0.441       44.248       54.346        1.508      346.404       24.627      860.631
08/18/2014  10:20:00       32.285      -81.913       -2.114       34.887       35.204       23.562     1217.086     1239.340      555.186        0.538        0.151       88.045       16.649        0.036      346.100       24.105      860.625
08/18/2014  10:21:00       12.619      -34.790       17.129       31.006       40.260       22.664      961.402     1620.854      513.650        0.238        0.155       37.008       24.283        0.431      346.561       24.898      860.628
08/18/2014  10:22:00      -29.484        1.329       20.317       36.434       23.321       25.465     1327.465      543.848      648.456        0.190        0.126       29.514       22.871        0.601      346.632       25.019      860.620
08/18/2014  10:23:00      -28.226       11.390        7.661       16.654       16.155       15.242      277.355      260.992      232.312        0.088        0.039       30.438        5.122        0.028      346.357       24.546      860.619
08/18/2014  10:24:00      -11.096       -7.072        6.087       15.306       23.269       22.277      234.270      541.463      496.255        0.074        0.064       13.158       18.552        1.988      347.056       25.751      860.609
08/18/2014  10:25:00      -25.962       17.385       27.909       23.223       29.610       43.925      539.287      876.752     1929.422        0.255        0.167       31.245       30.287        0.940      347.269       26.116      860.607
08/18/2014  10:26:00      -20.722       20.873       55.768       55.641       76.235       44.435     3095.948     5811.718     1974.498        0.743        0.544       29.412       52.545        3.192      346.466       24.734      860.598
08/18/2014  10:27:00        2.510        1.254       53.532       26.695       50.848       27.798      712.641     2585.553      772.727        0.347        0.204        2.806       25.911       85.266      347.011       25.672      860.599
08/18/2014  10:28:00       47.855       59.810       56.019       47.769       46.363       37.495     2281.909     2149.531     1405.872        0.742        0.292       76.599       21.999        0.082      346.660       25.067      860.590
08/18/2014  10:29:00       89.281       60.757       11.859       36.777       19.019       29.639     1352.582      361.726      878.473        0.720        0.130      107.993       15.608        0.021      345.950       23.848      860.595
08/18/2014  10:30:00       74.101       73.509       32.897       44.905       40.689       35.287     2016.453     1655.576     1245.180        0.845        0.246      104.376       23.930        0.053      346.381       24.586      860.585
08/18/2014  10:31:00       29.703       51.023       55.401       72.468       53.324       36.155     5251.596     2843.406     1307.212        0.798        0.470       59.039       30.629        0.269      346.964       25.593      860.577
08/18/2014  10:32:00       25.751       22.441       29.826       58.387       33.105       22.647     3409.069     1095.969      512.902        0.354        0.251       34.158       20.386        0.356      346.830       25.361      860.579
08/18/2014  10:33:00      -12.302       21.426       28.510       21.705       21.859       18.615      471.105      477.825      346.514        0.136        0.065       24.707       12.189        0.243      346.813       25.332      860.574
08/18/2014  10:34:00        7.729       53.087       86.930       39.352       40.863       29.387     1548.604     1669.744      863.580        0.726        0.204       53.647       27.421        0.261      347.037       25.718      860.574
08/18/2014  10:35:00      119.021       75.654       29.447       35.528       32.227       41.241     1262.234     1038.593     1700.858        1.238        0.200      141.030       23.949        0.029      346.190       24.260      860.570
08/18/2014  10:36:00       13.395      -63.835      -22.694       29.994       44.438       19.242      899.652     1974.730      370.236        0.401        0.162       65.225       12.011        0.034      346.324       24.488      860.560
08/18/2014  10:37:00       32.891      -10.305       33.945       67.330       59.727       36.082     4533.377     3567.279     1301.903        0.587        0.470       34.468       33.132        0.924      346.764       25.247      860.537
08/18/2014  10:38:00       22.481       49.007       77.587       45.872       49.741       43.272     2104.255     2474.186     1872.494        0.769        0.323       53.918       41.253        0.585      346.904       25.490      860.531
08/18/2014  10:39:00      110.866      -27.759       23.707       57.153       63.777       41.234     3266.488     4067.461     1700.245        1.133        0.452      114.288       46.495        0.166      346.453       24.710      860.515
08/18/2014  10:40:00       68.653       25.968       45.672       73.739       54.009       48.908     5437.483     2917.010     2391.990        0.911        0.537       73.400       43.841        0.357      346.817       25.339      860.499
08/18/2014  10:41:00       38.577       16.065       52.340       49.203       43.857       29.451     2420.892     1923.449      867.380        0.485        0.261       41.788       22.908        0.301      347.394       26.331      860.496
08/18/2014  10:42:00       38.728        5.271       68.928       65.619      104.852       55.555     4305.839    10993.960     3086.351        1.233        0.919       39.085       57.918        2.196      347.142       25.897      860.490
08/18/2014  10:43:00       14.734      -66.423       32.410       38.353       75.252       45.463     1470.969     5662.826     2066.847        0.744        0.460       68.038       38.129        0.314      347.150       25.909      860.491
08/18/2014  10:44:00        6.779        4.512       31.425       20.826       34.220       22.006      433.721     1171.024      484.248        0.157        0.104        8.143       13.156        2.610      347.581       26.654      860.498
08/18/2014  10:45:00       -2.336       -6.776       25.136       33.006       44.731       40.378     1089.376     2000.880     1630.404        0.270        0.236        7.168       29.352       16.770      347.603       26.692      860.492
08/18/2014  10:46:00        0.889        5.565       -3.724       44.862       37.329       28.591     2012.556     1393.466      817.468        0.213        0.211        5.636       17.880       10.065      346.906       25.491      860.486
08/18/2014  10:47:00      -36.070      -70.821      -11.492       28.480       64.115       27.084      811.087     4110.785      733.534        0.605        0.283       79.477       22.584        0.081      346.833       25.366      860.470
08/18/2014  10:48:00       51.178        6.743       26.833       86.595      112.962       45.618     7498.731    12760.381     2081.025        1.286        1.117       51.621       46.486        0.811      347.346       26.247      860.464
08/18/2014  10:49:00       63.594      130.408      -11.755       63.208       53.489       29.675     3995.287     2861.047      880.597        1.446        0.387      145.088       27.165        0.035      346.529       24.841      860.465
08/18/2014  10:50:00       -1.141      108.220       -5.847       43.023       69.653       31.040     1850.939     4851.559      963.510        0.971        0.383      108.226       38.734        0.128      347.007       25.666      860.458
08/18/2014  10:51:00      -15.613      155.676      -13.761       26.731       48.908       28.095      714.565     2392.005      789.330        1.428        0.195      156.457       26.744        0.029      347.013       25.678      860.451
08/18/2014  10:52:00      -12.058       89.756       11.575       27.853       84.223       31.302      775.785     7093.484      979.786        0.859        0.442       90.563       44.358        0.240      347.744       26.936      860.444
08/18/2014  10:53:00      117.876       66.846       27.235       70.873       58.878       49.490     5022.963     3466.609     2449.255        1.502        0.547      135.511       30.998        0.052      347.145       25.901      860.437
08/18/2014  10:54:00      155.790       95.413        3.022       52.071       27.757       34.829     2711.388      770.458     1213.026        1.904        0.235      182.686       26.378        0.021      346.678       25.098      860.436
08/18/2014  10:55:00       65.972       62.551        1.242       47.379       28.696       20.631     2244.748      823.456      425.636        0.588        0.175       90.912       14.447        0.025      346.734       25.194      860.445
08/18/2014  10:56:00       55.744       25.839       20.508       29.970       15.475       26.242      898.187      239.479      688.633        0.301        0.091       61.442       14.241        0.054      346.941       25.550      860.436
08/18/2014  10:57:00       56.503       34.440        2.978       28.214       36.638       21.582      796.036     1342.377      465.789        0.350        0.130       66.172       12.674        0.037      347.122       25.863      860.439
08/18/2014  10:58:00       37.270       56.299       11.050       46.680       31.728       29.321     2178.986     1006.647      859.741        0.436        0.202       67.518       17.843        0.070      347.383       26.314      860.427
08/18/2014  10:59:00      -14.055       93.993       -2.039       31.660       55.376       30.464     1002.357     3066.490      928.058        0.702        0.250       95.038       29.375        0.096      347.454       26.435      860.422
08/18/2014  11:00:00       62.215       62.720       29.057       53.399       41.711       39.444     2851.427     1739.772     1555.819        0.740        0.307       88.343       29.159        0.109      347.604       26.695      860.413
08/18/2014  11:01:00      121.367       69.379       25.118       95.911       68.377       50.294     9198.918     4675.420     2529.498        1.829        0.820      139.797       42.561        0.093      347.482       26.481      860.412
08/18/2014  11:02:00       76.897       67.612       46.644       82.638       46.788       45.037     6829.067     2189.077     2028.345        1.185        0.552      102.394       37.877        0.137      347.446       26.422      860.418
08/18/2014  11:03:00       15.312        8.662       62.280       49.848       67.011       36.480     2484.864     4490.469     1330.785        0.625        0.415       17.592       29.715        2.853      347.794       27.023      860.396
08/18/2014  11:04:00       50.275       58.382       11.034       43.571       56.907       34.501     1898.430     3238.426     1190.296        0.619        0.316       77.046       34.721        0.203      347.801       27.034      860.389
08/18/2014  11:05:00       45.693       61.520       19.110       45.739       57.213       42.959     2092.032     3273.379     1845.439        0.672        0.361       76.633       36.860        0.231      347.481       26.482      860.384
08/18/2014  11:06:00      117.697       76.832       13.570       64.598       45.186       34.088     4172.868     2041.763     1161.974        1.366        0.369      140.555       27.085        0.037      347.204       26.004      860.363
08/18/2014  11:07:00       86.328       67.165       56.405       79.163       62.067       48.493     6266.715     3852.276     2351.526        1.381        0.624      109.378       34.260        0.098      347.245       26.074      860.350
08/18/2014  11:08:00       12.835      109.650        6.599       47.352       74.722       45.211     2242.196     5583.352     2044.043        1.105        0.493      110.399       45.533        0.170      347.469       26.460      860.338
08/18/2014  11:09:00       18.657       88.396       -3.855       43.467       58.020       40.259     1889.360     3366.279     1620.809        0.753        0.344       90.344       39.243        0.189      347.359       26.273      860.328
08/18/2014  11:10:00      106.241       66.921       23.569       58.528       68.863       41.332     3425.513     4742.157     1708.329        1.310        0.494      125.561       24.222        0.037      347.216       26.024      860.320
08/18/2014  11:11:00       47.498        5.454       66.033       64.620      126.058       58.481     4175.682    15890.706     3420.059        1.506        1.174       47.811       73.030        2.333      347.406       26.352      860.310
08/18/2014  11:12:00      119.710       94.958       90.931       97.450       87.972       76.781     9496.480     7739.031     5895.293        2.737        1.157      152.799       83.024        0.295      347.123       25.862      860.321
08/18/2014  11:13:00       49.176       30.838       35.507       40.944       28.102       26.174     1676.395      789.737      685.067        0.389        0.158       58.045       13.557        0.055      347.237       26.060      860.309
08/18/2014  11:14:00       10.650       25.637       51.094       23.198       50.033       18.347      538.128     2503.336      336.603        0.338        0.169       27.761       19.362        0.486      347.648       26.769      860.279
08/18/2014  11:15:00       42.977       34.574       13.990       36.136       25.850       27.276     1305.799      668.208      743.968        0.298        0.136       55.158       20.391        0.137      347.340       26.237      860.250
08/18/2014  11:16:00       56.439      -84.652       -0.885       62.487       73.196       49.459     3904.565     5357.587     2446.234        1.103        0.585      101.741       51.055        0.252      347.573       26.639      860.226
08/18/2014  11:17:00       23.353        2.164       47.421       43.298       53.250       38.228     1874.757     2835.542     1461.390        0.448        0.309       23.453       36.647        2.442      347.799       27.032      860.206
08/18/2014  11:18:00       27.599      -41.207       15.640       34.772       42.830       34.328     1209.070     1834.414     1178.416        0.346        0.211       49.596       23.541        0.225      347.605       26.695      860.193
08/18/2014  11:19:00       93.487      -26.314       42.198       72.192      103.986       63.412     5211.688    10813.157     4021.104        1.563        1.002       97.120       66.934        0.475      347.718       26.890      860.164
08/18/2014  11:20:00       63.741       64.376       54.025       52.333       45.430       53.577     2738.769     2063.866     2870.450        0.940        0.384       90.593       32.882        0.132      347.485       26.488      860.158
08/18/2014  11:21:00       15.438      -57.256       30.153       43.114       68.671       37.542     1858.851     4715.749     1409.427        0.620        0.399       59.300       26.537        0.200      347.946       27.285      860.134
08/18/2014  11:22:00       52.196       43.726       91.711       79.040       67.635       46.271     6247.397     4574.536     2140.998        1.300        0.648       68.091       46.089        0.458      347.959       27.307      860.127
08/18/2014  11:23:00      140.059      -51.794       41.307       93.101       81.757       59.218     8667.860     6684.135     3506.824        2.143        0.943      149.329       63.790        0.182      347.548       26.594      860.111
08/18/2014  11:24:00      114.811     -120.819        6.890       99.252      117.582       61.877     9850.915    13825.574     3828.708        2.766        1.375      166.670       74.249        0.198      347.774       26.987      860.097
08/18/2014  11:25:00      118.101     -131.015       -4.871       77.017       96.403       57.277     5931.565     9293.588     3280.661        2.482        0.925      176.388       59.837        0.115      347.459       26.442      860.089
08/18/2014  11:26:00       25.347        6.964       38.809       40.731       67.152       39.029     1659.009     4509.360     1523.275        0.494        0.385       26.287       40.256        2.345      347.942       27.276      860.086
08/18/2014  11:27:00        5.596       16.377       75.877       38.939      102.460       52.664     1516.211    10497.952     2773.492        1.042        0.739       17.307       68.292       15.570      348.058       27.478      860.077
08/18/2014  11:28:00       88.280     -126.384       11.261       88.017      115.127       81.346     7746.922    13254.318     6617.201        2.575        1.381      154.163       75.723        0.241      348.058       27.476      860.043
08/18/2014  11:29:00       74.890        4.795       92.006       87.381       92.355       63.328     7635.408     8529.520     4010.421        1.713        1.009       75.043       71.530        0.909      347.853       27.123      860.053
08/18/2014  11:30:00       65.592      -60.380       33.336       82.633       70.794       43.186     6828.242     5011.734     1864.997        1.138        0.685       89.152       33.132        0.138      347.807       27.044      860.034
08/18/2014  11:31:00       50.005     -101.737        9.301       46.739       68.140       52.679     2184.492     4643.055     2775.088        1.127        0.480      113.362       38.929        0.118      347.795       27.023      860.019
08/18/2014  11:32:00       74.451     -117.669      -23.022       40.076       59.612       29.520     1606.099     3553.602      871.452        1.297        0.302      139.244       32.008        0.053      347.375       26.299      860.013
08/18/2014  11:33:00       21.204       -7.770       38.406       34.103       72.641       38.333     1163.020     5276.741     1469.411        0.495        0.395       22.583       39.004        2.983      348.107       27.562      859.992
08/18/2014  11:34:00       28.681     -110.045       -0.655       78.743      108.619       62.122     6200.485    11798.129     3859.112        1.739        1.093      113.721       54.898        0.233      347.878       27.167      859.958
08/18/2014  11:35:00        8.823        2.797       52.067       45.924       34.581       25.459     2108.987     1195.836      648.182        0.337        0.198        9.256       20.468        4.890      348.408       28.083      859.956
08/18/2014  11:36:00        3.518       61.597       87.133       40.379       62.301       53.046     1630.431     3881.385     2813.842        0.986        0.416       61.698       52.489        0.724      347.969       27.322      859.959
08/18/2014  11:37:00      119.391      150.190      136.273      106.700       72.176       75.337    11384.784     5209.319     5675.648        3.882        1.113      191.863       70.937        0.137      347.653       26.774      859.940
08/18/2014  11:38:00      110.014      145.250      117.797       55.041       53.106       51.465     3029.473     2820.211     2648.606        2.779        0.425      182.210       33.916        0.035      347.613       26.706      859.924
08/18/2014  11:39:00       38.613       88.817      117.380       65.408       79.208       50.771     4278.172     6273.836     2577.723        1.814        0.656       96.848       51.195        0.279      347.950       27.289      859.908
08/18/2014  11:40:00       39.424       39.657       89.734       59.840       89.789       68.614     3580.804     8062.086     4707.933        1.376        0.818       55.919       70.864        1.606      347.876       27.163      859.908
08/18/2014  11:41:00      128.197      -68.796       27.145       68.941      130.779       66.786     4752.859    17103.050     4460.317        2.410        1.316      145.490       78.766        0.293      347.761       26.963      859.876
08/18/2014  11:42:00       98.205       93.958      114.663       80.715       59.961       49.179     6514.954     3595.344     2418.558        2.207        0.626      135.913       39.020        0.082      347.945       27.279      859.869
08/18/2014  11:43:00      181.230       82.870       75.729      125.089      127.612       71.123    15647.171    16284.873     5058.449        4.121        1.850      199.278       66.428        0.111      347.558       26.612      859.851
08/18/2014  11:44:00       80.543       24.647        7.320      108.801       84.353       50.510    11837.725     7115.346     2551.263        1.432        1.075       84.230       61.583        0.535      347.673       26.812      859.858
08/18/2014  11:45:00      117.102       89.831       70.114       89.188       55.377       51.492     7954.537     3066.598     2651.458        2.018        0.684      147.589       47.258        0.103      348.130       27.600      859.841
08/18/2014  11:46:00       28.320       85.179      109.487       79.771       67.618       50.947     6363.474     4572.259     2595.593        1.679        0.677       89.763       43.587        0.236      348.513       28.263      859.832
08/18/2014  11:47:00      109.478      121.172        5.544       97.859      109.410       64.646     9576.402    11970.598     4179.074        2.621        1.286      163.304       51.517        0.100      348.078       27.511      859.840
08/18/2014  11:48:00      101.716      151.151       10.664      102.128       86.973       47.147    10430.071     7564.290     2222.798        2.676        1.011      182.189       41.198        0.051      347.967       27.318      859.836
08/18/2014  11:49:00      159.340      111.209       40.189       99.614       67.937       54.863     9922.914     4615.462     3009.945        2.846        0.877      194.311       47.959        0.061      348.001       27.375      859.823
08/18/2014  11:50:00       81.077       35.960       89.016       84.663       48.399       39.196     7167.880     2342.434     1536.336        1.342        0.552       88.694       24.663        0.077      348.191       27.707      859.832
08/18/2014  11:51:00       47.661      -80.551       11.155       57.431      102.417       52.282     3298.285    10489.246     2733.455        1.270        0.826       93.595       60.302        0.415      348.272       27.847      859.820
08/18/2014  11:52:00      116.348     -182.086      -21.826       66.927       75.006       36.869     4479.264     5625.935     1359.304        2.931        0.573      216.084       31.880        0.022      348.149       27.630      859.814
08/18/2014  11:53:00       91.278     -113.274       10.344       72.355       88.834       54.432     5235.270     7891.465     2962.817        1.868        0.804      145.474       50.529        0.121      348.182       27.689      859.805
08/18/2014  11:54:00       63.427       60.252       76.272       47.278       48.315       36.427     2235.229     2334.361     1326.896        0.968        0.295       87.483       28.360        0.105      348.725       28.630      859.787
08/18/2014  11:55:00       11.079       61.288      113.189       55.623       63.232       33.514     3093.932     3998.311     1123.198        1.245        0.411       62.281       33.501        0.289      348.754       28.681      859.783
08/18/2014  11:56:00       54.097       37.709       63.406       73.973       91.832       45.919     5472.006     8433.106     2108.512        1.219        0.801       65.943       45.188        0.470      348.244       27.798      859.788
08/18/2014  11:57:00       98.138      106.240       92.561       95.518       85.502       71.379     9123.625     7310.563     5094.923        2.550        1.076      144.630       68.728        0.226      348.462       28.173      859.784
08/18/2014  11:58:00      175.217      121.546       41.854       83.445       70.634       50.954     6963.003     4989.162     2596.287        3.088        0.727      213.248       32.577        0.023      348.208       27.733      859.777
08/18/2014  11:59:00      121.553       65.198       23.694       51.150       55.533       37.007     2616.277     3083.945     1369.485        1.333        0.353      137.934       20.812        0.023      347.752       26.950      859.790
08/18/2014  12:00:00       70.311       71.891       63.500       74.869       53.461       55.968     5605.294     2858.027     3132.392        1.287        0.580      100.558       50.871        0.256      348.112       27.571      859.778
08/18/2014  12:01:00       48.322       86.469       91.599       65.703       75.507       77.856     4316.945     5701.315     6061.525        1.714        0.804       99.055       62.895        0.403      348.148       27.633      859.757
08/18/2014  12:02:00      107.561      174.558      131.258       88.612       79.509       78.458     7852.041     6321.652     6155.622        3.979        1.016      205.036       66.128        0.104      347.882       27.169      859.727
08/18/2014  12:03:00       54.042       20.693       71.070       86.726      116.837       72.126     7521.373    13650.854     5202.159        1.738        1.319       57.869       68.133        1.386      348.294       27.883      859.716
08/18/2014  12:04:00       50.158      -71.049       71.180       55.978       91.279       45.895     3133.506     8331.936     2106.330        1.310        0.679       86.970       45.122        0.269      348.731       28.641      859.715
08/18/2014  12:05:00        0.063      -60.320        9.855       62.245       71.658       49.947     3874.466     5134.809     2494.706        0.762        0.575       60.320       44.467        0.543      348.395       28.060      859.713
08/18/2014  12:06:00       26.976      -55.952       25.565       68.950       80.719       60.240     4754.076     6515.589     3628.826        0.970        0.745       62.116       38.121        0.377      348.584       28.387      859.698
08/18/2014  12:07:00       24.443      118.533      137.217       55.696       98.732       51.855     3102.080     9748.088     2688.919        2.450        0.777      121.027       49.778        0.169      348.257       27.819      859.692
08/18/2014  12:08:00       51.180       27.778       42.510       75.958       72.465       42.947     5769.580     5251.201     1844.467        0.903        0.643       58.233       35.196        0.365      348.156       27.647      859.686
08/18/2014  12:09:00       47.190     -139.943      -22.517       64.140       79.210       38.999     4113.948     6274.232     1520.923        1.711        0.595      147.685       29.759        0.041      348.286       27.870      859.661
08/18/2014  12:10:00       46.401     -118.123        0.374       57.131       80.889       49.419     3263.895     6543.075     2442.214        1.418        0.612      126.910       37.125        0.086      348.182       27.692      859.639
08/18/2014  12:11:00       23.543      -59.970       -0.841       59.498       70.091       48.722     3540.008     4912.700     2373.860        0.749        0.541       64.426       29.925        0.216      348.178       27.685      859.643
08/18/2014  12:12:00       39.744        2.274       14.027       59.248       48.644       29.495     3510.319     2366.198      869.965        0.426        0.337       39.809       23.896        0.360      348.583       28.385      859.645
08/18/2014  12:13:00       21.226      -71.019       20.172       38.312       51.610       38.123     1467.799     2663.572     1453.338        0.574        0.279       74.123       35.763        0.233      348.397       28.065      859.633
08/18/2014  12:14:00       15.851      -77.034      -21.110       32.434       28.398       25.262     1051.940      806.440      638.153        0.456        0.125       78.648       15.904        0.041      347.913       27.227      859.625
08/18/2014  12:15:00      -29.016      -34.044        2.246       60.064       34.365       25.553     3607.744     1180.953      652.962        0.372        0.272       44.732       11.184        0.063      348.218       27.754      859.625
08/18/2014  12:16:00      -13.145     -131.142      -11.549       40.978       81.739       29.289     1679.207     6681.241      857.854        1.336        0.461      131.799       28.410        0.046      347.956       27.300      859.630
08/18/2014  12:17:00      -99.560      -48.508      -14.811       49.364       99.461       25.875     2436.775     9892.578      669.534        1.274        0.650      110.748       13.469        0.015      347.845       27.107      859.606
08/18/2014  12:18:00     -109.456      -92.583      -16.927       36.418       45.357       25.357     1326.300     2057.300      643.002        1.243        0.201      143.361       18.979        0.018      347.783       27.002      859.584
08/18/2014  12:19:00      -15.097      -79.579       -2.951       24.189       37.550       23.798      585.111     1409.988      566.331        0.456        0.128       80.999       12.525        0.024      347.868       27.151      859.576
08/18/2014  12:20:00      -53.903      -72.088        4.303       31.493       50.770       23.580      991.817     2577.582      555.998        0.612        0.206       90.012       27.269        0.092      348.144       27.628      859.558
08/18/2014  12:21:00      -36.193      -82.220        4.856       26.381       38.980       24.600      695.973     1519.439      605.180        0.546        0.141       89.834       18.859        0.044      348.078       27.513      859.531
08/18/2014  12:22:00      -25.186      -12.941        5.219       32.352       34.077       26.610     1046.668     1161.222      708.085        0.187        0.146       28.317       13.464        0.226      348.530       28.295      859.516
08/18/2014  12:23:00     -122.623      -64.480       -6.866       53.599       43.381       27.234     2872.872     1881.887      741.712        1.237        0.275      138.543       30.220        0.048      347.990       27.360      859.506
08/18/2014  12:24:00      -80.028       10.006       -8.968       42.050       25.571       15.854     1768.196      653.863      251.347        0.463        0.134       80.651       16.291        0.041      347.992       27.363      859.489
08/18/2014  12:25:00       -7.107       24.558        5.471       23.641       26.052       26.516      558.887      678.706      703.079        0.131        0.097       25.566       11.537        0.204      348.686       28.563      859.485
08/18/2014  12:26:00      -31.980       42.107       20.173       28.727       33.513       32.383      825.222     1123.133     1048.653        0.310        0.150       52.874        9.294        0.031      348.872       28.885      859.465
08/18/2014  12:27:00      -48.739       44.690       13.849       72.937       45.724       39.602     5319.791     2090.711     1568.334        0.677        0.449       66.126       40.511        0.375      348.605       28.424      859.461
08/18/2014  12:28:00     -115.712        6.068       -7.819       49.679       26.962       23.594     2468.002      726.968      556.697        0.862        0.188      115.871       18.738        0.026      348.269       27.843      859.448
08/18/2014  12:29:00       -3.194       22.862        9.052       45.943       44.232       30.552     2110.798     1956.435      933.410        0.281        0.250       23.084       16.942        0.539      348.696       28.581      859.423
08/18/2014  12:30:00      -12.609       -5.794      -17.606       39.909       48.281       37.537     1592.713     2331.084     1409.059        0.292        0.267       13.877       22.618        2.657      348.229       27.774      859.411
08/18/2014  12:31:00      -74.142      -22.634        3.716       77.272       42.604       24.637     5970.886     1815.080      606.976        0.721        0.420       77.520       37.088        0.229      348.226       27.767      859.388
08/18/2014  12:32:00      -71.664      -13.490       -5.282       28.026       32.863       18.785      785.466     1079.962      352.883        0.378        0.111       72.922       17.682        0.059      348.326       27.942      859.371
08/18/2014  12:33:00      -77.327      -20.008       -6.264       47.850       21.942       19.689     2289.654      481.442      387.653        0.479        0.158       79.873       15.890        0.040      348.286       27.870      859.352
08/18/2014  12:34:00     -146.430       45.049      -28.340       85.151       63.388       31.517     7250.614     4017.999      993.301        1.827        0.613      153.203       28.233        0.034      348.248       27.805      859.336
08/18/2014  12:35:00     -104.121       42.976      -10.615       58.887       67.848       33.220     3467.635     4603.342     1103.579        1.099        0.459      112.642       32.902        0.085      348.457       28.168      859.315
08/18/2014  12:36:00      -77.334       62.829       11.727       86.779       54.914       34.738     7530.522     3015.533     1206.712        1.091        0.588       99.639       34.242        0.118      348.867       28.875      859.303
08/18/2014  12:37:00      -76.149      160.095       -6.005       47.402       81.341       40.432     2246.932     6616.429     1634.711        2.098        0.525      177.282       41.751        0.055      348.561       28.344      859.296
08/18/2014  12:38:00      -78.853       83.920      -17.388       40.308       73.408       37.490     1624.753     5388.730     1405.475        1.099        0.421      115.153       27.358        0.056      348.292       27.881      859.284
08/18/2014  12:39:00      -68.435       83.121      -15.941       35.778       47.218       31.581     1280.067     2229.530      997.356        0.818        0.225      107.668       29.903        0.077      348.320       27.930      859.276
08/18/2014  12:40:00      -22.740       68.064       12.682       36.346       49.189       30.527     1320.996     2419.542      931.884        0.499        0.234       71.763       27.199        0.144      348.962       29.040      859.249
08/18/2014  12:41:00      -59.026      123.396        2.489       47.053       48.685       42.650     2214.010     2370.197     1819.018        1.256        0.320      136.787       29.670        0.047      348.701       28.590      859.233
08/18/2014  12:42:00      -97.428      107.198       -7.385       60.805       69.659       40.561     3697.292     4852.313     1645.206        1.561        0.510      144.858       30.553        0.044      348.547       28.324      859.223
08/18/2014  12:43:00      -89.584        1.857       -1.209       88.313       37.594       35.840     7799.123     1413.302     1284.513        0.926        0.525       89.603       42.907        0.229      348.447       28.150      859.202
08/18/2014  12:44:00     -213.025       32.137      -27.116       51.287       37.199       22.811     2630.362     1383.790      520.356        2.584        0.227      215.436       22.742        0.011      348.014       27.398      859.200
08/18/2014  12:45:00     -221.212       -3.760      -21.735       75.400       64.875       39.960     5685.147     4208.745     1596.769        3.045        0.575      221.244       40.618        0.034      348.370       28.014      859.193
08/18/2014  12:46:00     -173.717      -17.937      -12.405       70.509       36.334       29.118     4971.569     1320.149      847.856        1.889        0.357      174.641       34.343        0.039      348.411       28.087      859.186
08/18/2014  12:47:00     -150.863       32.126      -24.450       27.686       28.054       22.956      766.489      787.042      526.963        1.323        0.104      154.245       13.241        0.007      348.083       27.521      859.187
08/18/2014  12:48:00      -58.085      -33.312        4.086       40.903       31.403       20.144     1673.028      986.131      405.790        0.378        0.153       66.960       19.607        0.086      348.414       28.093      859.172
08/18/2014  12:49:00      -40.798       92.505        6.551       37.698       74.613       32.073     1421.107     5567.119     1028.707        0.914        0.401      101.102       25.246        0.062      348.930       28.986      859.167
08/18/2014  12:50:00      -91.521      142.515       -7.089       49.280       73.100       36.245     2428.474     5343.633     1313.707        1.891        0.454      169.371       34.135        0.041      348.585       28.388      859.146
08/18/2014  12:51:00     -161.796      210.838      -30.957       82.674       66.193       49.437     6835.027     4381.482     2443.973        4.262        0.683      265.764       52.051        0.038      348.476       28.196      859.119
08/18/2014  12:52:00     -124.419      173.163      -29.285       74.343       69.275       38.905     5526.915     4799.081     1513.636        2.908        0.592      213.226       46.172        0.047      348.429       28.117      859.124
08/18/2014  12:53:00     -110.205       77.454      -16.737       34.618       55.000       22.596     1198.431     3025.035      510.597        1.158        0.237      134.700       19.280        0.020      348.317       27.925      859.118
08/18/2014  12:54:00      -64.453        4.038      -24.114       24.130       16.847       16.626      582.269      283.838      276.430        0.295        0.057       64.579        8.684        0.018      348.191       27.707      859.121
08/18/2014  12:55:00      -43.932      -16.039      -16.547       25.166       37.931       24.414      633.328     1438.791      596.034        0.256        0.133       46.768       20.376        0.190      348.328       27.943      859.087
08/18/2014  12:56:00      -10.197      -24.672       -8.016       43.529       40.750       21.330     1894.747     1660.565      454.977        0.239        0.201       26.696       27.105        1.031      348.385       28.042      859.064
08/18/2014  12:57:00      -32.302       -0.126       -8.123       54.888       60.270       30.161     3012.698     3632.531      909.670        0.433        0.378       32.302       27.662        0.733      348.427       28.115      859.035
08/18/2014  12:58:00     -136.882      -11.311      -14.550       37.882       48.679       25.466     1435.049     2369.638      648.519        1.176        0.223      137.349       17.870        0.017      348.786       28.737      859.022
08/18/2014  12:59:00     -136.230      104.315      -20.926       79.626       63.171       39.845     6340.281     3990.527     1587.610        2.090        0.596      171.582       24.810        0.021      348.532       28.296      859.005
08/18/2014  13:00:00     -119.345      173.123      -21.908       52.806       56.696       36.704     2788.443     3214.466     1347.171        2.602        0.368      210.273       36.946        0.031      348.470       28.187      858.993
08/18/2014  13:01:00      -69.720      154.627      -13.520       43.318       66.353       34.738     1876.464     4402.735     1206.722        1.822        0.374      169.618       36.576        0.046      348.685       28.562      858.967
08/18/2014  13:02:00       12.376        6.837       33.945       23.966       17.399       18.929      574.353      302.730      358.305        0.129        0.062       14.139       14.192        1.008      349.800       30.495      858.950
08/18/2014  13:03:00      -17.171       11.542       20.493       38.650       17.288       20.421     1493.791      298.863      416.998        0.153        0.110       20.690       12.495        0.365      349.266       29.569      858.916
08/18/2014  13:04:00      -82.781       22.128       -9.277       17.398       21.201       18.959      302.708      449.498      359.439        0.427        0.056       85.688       11.460        0.018      348.522       28.277      858.913
08/18/2014  13:05:00      -48.992        4.330       26.595       73.915       44.210       44.932     5463.399     1954.527     2018.865        0.628        0.472       49.183       47.144        0.919      349.148       29.363      858.879
08/18/2014  13:06:00       37.278       29.923       28.867       37.865       31.846       33.410     1433.756     1014.169     1116.218        0.334        0.178       47.802       19.830        0.172      349.313       29.650      858.871
08/18/2014  13:07:00      -34.716       93.273        6.292       47.530       64.069       35.832     2259.113     4104.779     1283.940        0.879        0.382       99.524       27.690        0.077      349.085       29.254      858.867
08/18/2014  13:08:00       36.603       27.053       17.809       34.428       27.643       25.830     1185.262      764.162      667.206        0.250        0.131       45.515       17.956        0.156      349.094       29.271      858.854
08/18/2014  13:09:00      -26.581       15.284       -3.576       43.791       44.329       21.751     1917.646     1965.051      473.092        0.265        0.218       30.662       21.076        0.472      348.980       29.072      858.846
08/18/2014  13:10:00      -89.971        9.679       10.458       96.459       52.577       32.228     9304.277     2764.327     1038.657        1.070        0.655       90.490       44.210        0.239      349.184       29.425      858.850
08/18/2014  13:11:00       -1.202      120.478        8.444       63.442       96.548       46.243     4024.847     9321.429     2138.451        1.503        0.774      120.484       56.051        0.216      349.113       29.302      858.833
08/18/2014  13:12:00      -17.369        1.988       -2.116       54.047       58.139       29.586     2921.109     3380.200      875.326        0.374        0.359       17.482       27.538        2.481      348.976       29.065      858.825
08/18/2014  13:13:00       27.744       38.054       19.356       38.843       38.611       39.424     1508.801     1490.791     1554.256        0.357        0.228       47.094       24.891        0.279      349.418       29.832      858.822
08/18/2014  13:14:00      -91.831       67.720       -9.548       62.406       48.461       44.526     3894.503     2348.490     1982.596        1.067        0.411      114.100       40.495        0.126      348.876       28.893      858.807
08/18/2014  13:15:00        0.476      109.901      -20.743       56.424       49.480       36.602     3183.675     2448.297     1339.730        0.974        0.349      109.902       12.701        0.013      349.049       29.192      858.805
08/18/2014  13:16:00      -20.553      135.394        2.682       40.176       42.279       35.051     1614.126     1787.504     1228.605        1.169        0.232      136.945       26.490        0.037      349.102       29.284      858.790
08/18/2014  13:17:00      -16.373       66.369       20.442       45.169       45.959       34.224     2040.198     2112.206     1171.265        0.521        0.266       68.359       30.933        0.205      349.423       29.842      858.791
08/18/2014  13:18:00       13.723       33.909       40.027       26.276       31.135       17.946      690.418      969.416      322.063        0.246        0.099       36.581       14.842        0.165      349.606       30.159      858.776
08/18/2014  13:19:00       50.603       23.809       23.047       32.951       21.388       32.717     1085.780      457.463     1070.426        0.314        0.131       55.924       15.301        0.075      349.193       29.441      858.767
08/18/2014  13:20:00        9.463       29.036       50.791       28.560       31.240       24.159      815.676      975.942      583.668        0.294        0.119       30.539       10.975        0.129      349.877       30.629      858.752
08/18/2014  13:21:00      -63.040       36.311       10.375       42.500       35.963       30.756     1806.239     1293.334      945.932        0.472        0.202       72.750       29.502        0.164      349.157       29.380      858.735
08/18/2014  13:22:00       -2.799       16.302       23.520       16.915       32.772       23.406      286.127     1073.993      547.823        0.137        0.095       16.541       16.467        0.991      349.695       30.313      858.717
08/18/2014  13:23:00      -22.957       24.452       36.056       51.030       38.296       30.594     2604.036     1466.581      935.970        0.371        0.250       33.540       17.406        0.269      349.751       30.410      858.691
08/18/2014  13:24:00      -57.179       64.382       -9.003       62.372       36.453       33.936     3890.307     1328.857     1151.677        0.693        0.319       86.108       24.225        0.079      349.119       29.313      858.684
08/18/2014  13:25:00       99.714       84.883        4.949       74.118       42.590       34.804     5493.517     1813.899     1211.330        1.284        0.426      130.951       24.698        0.036      349.049       29.191      858.681
08/18/2014  13:26:00      156.831      100.022       27.210       70.708       62.835       54.479     4999.590     3948.270     2967.958        2.363        0.596      186.012       42.340        0.052      348.818       28.789      858.665
08/18/2014  13:27:00       84.572      -16.290       33.410       64.517       40.290       40.254     4162.411     1623.311     1620.417        0.797        0.370       86.127       30.216        0.123      348.962       29.040      858.654
08/18/2014  13:28:00       66.293     -100.422       -0.247       49.744       54.248       31.033     2474.456     2942.894      963.053        1.043        0.319      120.330       29.274        0.059      348.750       28.675      858.633
08/18/2014  13:29:00       58.977      100.474        9.412       69.024       71.011       36.476     4764.364     5042.533     1330.482        1.240        0.557      116.504       32.586        0.078      349.140       29.348      858.621
08/18/2014  13:30:00        0.377      181.255      -10.113       64.611       61.104       38.719     4174.595     3733.727     1499.178        2.118        0.470      181.256       24.671        0.019      348.969       29.051      858.614
08/18/2014  13:31:00        9.867       56.634       11.572       42.710       51.142       26.647     1824.114     2615.457      710.067        0.429        0.257       57.487       21.617        0.141      349.356       29.725      858.604
08/18/2014  13:32:00       17.424       30.348       37.309       32.070       27.320       29.700     1028.513      746.375      882.093        0.264        0.133       34.994       24.249        0.480      349.792       30.479      858.586
08/18/2014  13:33:00       10.383       20.978       15.466       29.927       33.846       25.461      895.652     1145.560      648.239        0.174        0.134       23.407        8.379        0.128      349.857       30.594      858.554
08/18/2014  13:34:00       29.150       43.337       43.386       35.431       41.832       34.548     1255.351     1749.912     1193.544        0.440        0.210       52.229       27.060        0.268      350.018       30.873      858.523
08/18/2014  13:35:00       89.451      -20.530       32.860       97.060      117.204       80.180     9420.566    13736.864     6428.798        1.954        1.479       91.777       98.644        1.155      349.274       29.581      858.503
08/18/2014  13:36:00      102.610     -139.191      -11.020       47.986       44.100       34.558     2302.686     1944.796     1194.268        1.773        0.272      172.925       25.093        0.021      349.021       29.144      858.479
08/18/2014  13:37:00       37.715       17.053       66.184       40.546       58.917       42.177     1644.011     3471.203     1778.860        0.649        0.345       41.391       41.219        0.992      349.781       30.461      858.469
08/18/2014  13:38:00       57.942       14.350       32.168       58.177       57.683       43.777     3384.556     3327.356     1916.469        0.661        0.431       59.693       36.067        0.365      349.775       30.452      858.446
08/18/2014  13:39:00       11.453       38.475       85.244       49.813       81.841       52.663     2481.380     6697.960     2773.436        1.041        0.598       40.143       57.371        2.043      349.999       30.839      858.439
08/18/2014  13:40:00       49.045      108.124      119.826       99.098       96.222       75.130     9820.468     9258.631     5644.584        2.658        1.236      118.727       67.578        0.324      349.535       30.034      858.421
08/18/2014  13:41:00      215.004      129.818       97.124      104.761       89.360       80.154    10974.953     7985.175     6424.707        4.894        1.269      251.156       57.776        0.053      348.867       28.872      858.423
08/18/2014  13:42:00      135.384       65.423       61.678      108.499       91.640       64.430    11772.132     8397.812     4151.207        2.536        1.216      150.363       23.984        0.025      349.208       29.466      858.408
08/18/2014  13:43:00      231.683       92.653       19.445      106.749       76.758       55.924    11395.262     5891.861     3127.530        4.152        1.021      249.523       32.187        0.017      348.992       29.089      858.401
08/18/2014  13:44:00      231.488       99.410       45.712      117.222       83.300       67.911    13740.968     6938.961     4611.841        4.542        1.265      251.931       61.349        0.059      349.075       29.234      858.388
08/18/2014  13:45:00      239.187      152.988       19.788       69.816       70.544       56.456     4874.297     4976.453     3187.252        4.702        0.652      283.930       40.966        0.021      348.849       28.841      858.381
08/18/2014  13:46:00      114.250       95.049       35.909       70.086       74.502       54.399     4912.087     5550.521     2959.298        1.840        0.671      148.618       24.093        0.026      349.144       29.356      858.384
08/18/2014  13:47:00      -11.606       73.642       20.414       48.653       50.182       53.504     2367.143     2518.227     2862.650        0.686        0.387       74.551       28.777        0.149      349.460       29.904      858.378
08/18/2014  13:48:00        3.183       91.955        1.443       37.966       87.772       34.480     1441.412     7703.929     1188.898        0.940        0.517       92.010       32.438        0.124      349.310       29.645      858.354
08/18/2014  13:49:00       75.413       33.092       27.123       64.667       78.156       42.507     4181.791     6108.388     1806.837        0.981        0.605       82.354       36.967        0.201      349.430       29.852      858.348
08/18/2014  13:50:00       25.692       64.065        4.640       46.883       50.749       33.594     2197.983     2575.479     1128.586        0.534        0.295       69.025       31.855        0.213      349.625       30.190      858.347
08/18/2014  13:51:00      112.882      123.700        2.222       69.240       41.079       41.181     4794.170     1687.450     1695.873        1.811        0.409      167.464       30.547        0.033      349.012       29.126      858.338
08/18/2014  13:52:00       29.727       80.161      -20.699       42.724       47.718       40.222     1825.370     2276.979     1617.799        0.673        0.286       85.496       32.304        0.143      348.949       29.019      858.324
08/18/2014  13:53:00      168.591       94.378       16.335       97.586       55.200       49.891     9523.075     3047.076     2489.128        2.633        0.753      193.210       26.916        0.019      348.902       28.935      858.306
08/18/2014  13:54:00       54.780       63.388       -0.721       57.979       44.809       31.447     3361.557     2007.882      988.922        0.669        0.318       83.778       18.070        0.047      349.041       29.178      858.295
08/18/2014  13:55:00       22.840       35.702       23.848       49.546       44.005       25.195     2454.848     1936.452      634.782        0.369        0.251       42.383       20.370        0.231      349.509       29.989      858.279
08/18/2014  13:56:00       39.720      115.758       -5.460       47.710       79.053       38.693     2276.210     6249.408     1497.152        1.251        0.501      122.383       39.998        0.107      349.274       29.581      858.265
08/18/2014  13:57:00       29.053       38.761       27.131       56.585       54.282       42.442     3201.911     2946.578     1801.360        0.551        0.397       48.441       38.315        0.626      349.601       30.148      858.243
08/18/2014  13:58:00      -94.073       76.212       -6.319       95.657       55.239       46.045     9150.216     3051.328     2120.115        1.451        0.716      121.070       46.543        0.148      349.557       30.072      858.236
08/18/2014  13:59:00      -26.203       21.724       13.261       72.058       56.566       37.905     5192.355     3199.675     1436.771        0.558        0.491       34.038       37.122        1.189      349.558       30.073      858.216
08/18/2014  14:00:00     -102.500       42.749        5.430      106.220      109.887       66.155    11282.594    12075.097     4376.422        2.004        1.387      111.058       68.205        0.377      349.692       30.306      858.183
08/18/2014  14:01:00      -65.985      158.196        3.235       83.901       82.757       63.374     7039.382     6848.751     4016.304        2.364        0.895      171.406       53.033        0.096      349.471       29.922      858.166
08/18/2014  14:02:00      -86.926      116.246        0.422       93.240      114.035       58.995     8693.731    13004.087     3480.441        2.312        1.259      145.152       64.949        0.200      349.545       30.050      858.144
08/18/2014  14:03:00     -165.913      213.573      -25.036      107.685      145.485       60.268    11595.989    21166.026     3632.240        5.507        1.820      270.445       58.448        0.047      349.328       29.672      858.140
08/18/2014  14:04:00      -77.319      109.643       -1.921       94.324      129.469       51.593     8897.079    16762.287     2661.838        2.316        1.416      134.164       47.592        0.126      349.492       29.958      858.134
08/18/2014  14:05:00     -187.000      -21.129       -6.546       93.166      131.851       60.278     8679.962    17384.632     3633.447        3.257        1.485      188.190       48.966        0.068      349.718       30.349      858.106
08/18/2014  14:06:00     -218.969      -91.271       14.507      169.519      107.008       69.360    28736.638    11450.742     4810.773        5.073        2.250      237.229       76.386        0.104      349.404       29.804      858.126
08/18/2014  14:07:00     -233.555     -180.514       -0.545      112.064      107.135       55.441    12558.232    11477.857     3073.732        5.712        1.355      295.183       51.005        0.030      348.951       29.019      858.140
08/18/2014  14:08:00     -274.702     -127.620        2.538      130.799       84.729       51.795    17108.399     7179.070     2682.680        5.936        1.349      302.900       54.841        0.033      349.004       29.109      858.143
08/18/2014  14:09:00     -141.687      -43.466      -15.176       89.173       37.049       25.075     7951.866     1372.612      628.776        1.607        0.498      148.204       35.893        0.059      348.842       28.834      858.140
08/18/2014  14:10:00      -36.763      -61.578        4.372       54.840       50.383       39.104     3007.439     2538.493     1529.097        0.612        0.354       71.717       29.625        0.171      349.247       29.537      858.117
08/18/2014  14:11:00      -36.115       -5.019       -3.405       36.722       31.239       17.747     1348.538      975.850      314.960        0.199        0.132       36.462       12.036        0.109      348.950       29.020      858.100
08/18/2014  14:12:00        1.202       46.771       23.977       37.344       50.983       25.251     1394.552     2599.268      637.600        0.370        0.232       46.787       31.437        0.451      349.543       30.047      858.087
08/18/2014  14:13:00      -55.828       76.949      -21.298       50.614       58.424       33.743     2561.806     3413.314     1138.610        0.830        0.356       95.068       16.380        0.030      348.997       29.100      858.072
08/18/2014  14:14:00        0.201       59.775        7.001       45.470       55.424       44.421     2067.548     3071.838     1973.212        0.537        0.356       59.775       24.004        0.161      349.371       29.750      858.054
08/18/2014  14:15:00      -26.044      100.334        0.165       36.564       78.391       32.222     1336.901     6145.194     1038.247        0.963        0.426      103.659       39.123        0.142      349.408       29.814      858.036
08/18/2014  14:16:00       52.489       64.271       -4.605       44.505       60.060       30.576     1980.659     3607.204      934.900        0.671        0.326       82.981       25.568        0.095      349.219       29.487      858.027
08/18/2014  14:17:00       26.062       53.841        1.984       38.863       38.844       28.947     1510.369     1508.874      837.940        0.372        0.193       59.817       21.040        0.124      349.308       29.642      858.022
08/18/2014  14:18:00       35.805      -61.380        1.121       36.169       62.420       28.134     1308.180     3896.212      791.539        0.552        0.300       71.059       31.239        0.193      349.413       29.824      858.012
08/18/2014  14:19:00       60.424      -39.635        1.051       47.225       53.557       46.477     2230.175     2868.392     2160.081        0.624        0.363       72.263       41.900        0.336      349.561       30.080      858.010
08/18/2014  14:20:00       57.881     -100.459        2.572       89.018      135.893       90.328     7924.141    18466.778     8159.081        2.399        1.727      115.941       94.224        0.660      349.506       29.984      857.981
08/18/2014  14:21:00      134.963     -265.649      -29.689       82.650      109.958       54.995     6830.974    12090.740     3024.492        5.580        1.097      297.967       40.917        0.019      348.947       29.011      857.973
08/18/2014  14:22:00       54.852        8.832      125.889       73.829      112.041       67.997     5450.742    12553.111     4623.614        2.078        1.131       55.558       69.033        1.544      349.604       30.152      857.902
08/18/2014  14:23:00       74.931      -67.877       37.174       87.878       90.443       78.985     7722.562     8179.851     6238.700        1.687        1.107      101.103       71.305        0.497      349.560       30.078      857.869
08/18/2014  14:24:00      101.336      -64.380       49.553       90.898      161.065       97.504     8262.463    25941.795     9507.024        3.028        2.186      120.057      114.473        0.909      349.614       30.170      857.864
08/18/2014  14:25:00      188.834     -219.014      -44.234      120.211      111.438       74.444    14450.679    12418.467     5541.924        5.899        1.621      289.180       73.894        0.065      349.285       29.597      857.854
08/18/2014  14:26:00       53.831       -1.734       80.235       83.525      126.610       86.803     6976.459    16030.124     7534.717        1.993        1.527       53.859       85.921        2.545      349.547       30.056      857.873
08/18/2014  14:27:00       41.323        9.932       39.087       55.155       74.136       61.144     3042.070     5496.134     3738.545        0.780        0.614       42.500       33.713        0.629      349.525       30.018      857.879
08/18/2014  14:28:00       56.669      -58.360       25.008       51.505       61.233       33.119     2652.746     3749.445     1096.850        0.737        0.375       81.347       37.826        0.216      349.676       30.280      857.880
08/18/2014  14:29:00       -0.350      -14.443       26.955       28.008       35.476       27.046      784.421     1258.543      731.510        0.185        0.139       14.447       16.133        1.247      350.225       31.233      857.880
08/18/2014  14:30:00       -1.000      -48.770        5.399       74.994       56.656       37.898     5624.060     3209.879     1436.231        0.634        0.514       48.780       24.547        0.253      349.849       30.580      857.866
08/18/2014  14:31:00     -111.193     -119.585       -1.370      179.122       90.053       50.744    32084.756     8109.606     2574.949        3.471        2.138      163.292       31.302        0.037      349.612       30.166      857.859
08/18/2014  14:32:00     -251.362     -135.680       -7.504       92.355       88.250       56.865     8529.460     7788.093     3233.584        5.060        0.978      285.643       42.227        0.022      349.308       29.637      857.834
08/18/2014  14:33:00     -190.864     -223.780       -6.475       98.180       70.234       57.805     9639.226     4932.770     3341.415        5.223        0.896      294.119       51.167        0.030      349.445       29.874      857.822
08/18/2014  14:34:00     -186.183     -186.318       -3.745       94.702      104.652       40.096     8968.430    10952.122     1607.716        4.546        1.076      263.398       34.234        0.017      349.433       29.854      857.813
08/18/2014  14:35:00     -123.875      -94.966       -2.362       69.940       68.734       33.015     4891.623     4724.353     1089.984        1.754        0.535      156.088       34.499        0.049      349.459       29.900      857.788
08/18/2014  14:36:00     -215.352     -205.033       -8.726      129.310      135.571       71.011    16721.167    18379.425     5042.610        6.431        2.007      297.347       76.417        0.066      349.473       29.924      857.789
08/18/2014  14:37:00     -211.251     -168.316      -10.037      148.068      104.008       50.199    21924.261    10817.695     2519.962        5.415        1.763      270.106       55.030        0.042      349.379       29.760      857.773
08/18/2014  14:38:00     -225.527     -213.584       -8.108      135.281       89.511       50.349    18301.035     8012.146     2534.973        6.269        1.442      310.613       45.146        0.021      349.304       29.629      857.733
08/18/2014  14:39:00     -106.962     -110.241       -5.144       84.035      107.219       38.153     7061.829    11495.887     1455.671        2.181        1.001      153.603       42.451        0.076      349.719       30.351      857.723
08/18/2014  14:40:00      -96.350     -131.070       14.147       68.375       94.375       56.558     4675.126     8906.600     3198.782        2.172        0.839      162.673       44.888        0.076      349.634       30.205      857.721
08/18/2014  14:41:00       23.832      -81.769      -17.685       96.348       72.420       48.550     9283.002     5244.687     2357.120        1.222        0.844       85.171       40.973        0.231      349.813       30.517      857.704
08/18/2014  14:42:00      -26.392      -77.029       -0.290       47.014       55.284       33.972     2210.330     3056.349     1154.094        0.652        0.321       81.425       26.636        0.107      349.741       30.391      857.708
08/18/2014  14:43:00      -32.076     -115.992        2.689       55.668       42.722       34.182     3098.979     1825.162     1168.381        1.029        0.305      120.345       28.802        0.057      349.463       29.908      857.711
08/18/2014  14:44:00      -11.665     -131.672       -6.530       59.092       35.935       31.555     3491.853     1291.353      995.698        1.165        0.289      132.188       26.247        0.039      349.480       29.938      857.714
08/18/2014  14:45:00       24.753      -14.849       41.881       66.136       87.492       51.959     4373.934     7654.876     2699.766        0.865        0.736       28.865       57.182        3.924      349.989       30.821      857.702
08/18/2014  14:46:00       67.007      -77.414       31.741       54.931       79.577       46.791     3017.374     6332.492     2189.435        1.151        0.577      102.386       48.648        0.226      349.646       30.225      857.683
08/18/2014  14:47:00      103.194       77.139       49.076       72.714       74.642       78.427     5287.319     5571.483     6150.762        1.801        0.850      128.838       57.872        0.202      349.477       29.932      857.666
08/18/2014  14:48:00       63.803       29.362       13.461       42.543       62.108       30.584     1809.872     3857.389      935.353        0.586        0.330       70.235       23.547        0.112      349.550       30.061      857.629
08/18/2014  14:49:00       74.662      -31.459        5.033       60.148       80.289       56.017     3617.755     6446.289     3137.861        0.989        0.660       81.019       55.391        0.467      349.763       30.429      857.616
08/18/2014  14:50:00      111.428     -112.629       11.590      100.574      143.918       85.110    10115.029    20712.271     7243.699        3.165        1.904      158.435       99.320        0.393      349.543       30.045      857.591
08/18/2014  14:51:00       26.463       53.176      136.887      115.038      194.029      110.056    13233.673    37647.231    12112.350        4.262        3.150       59.397      133.578        5.058      349.889       30.646      857.551
08/18/2014  14:52:00      124.770      -13.462      107.330      106.101      140.285       85.802    11257.408    19679.818     7361.971        3.278        1.915      125.494       78.828        0.395      349.818       30.523      857.546
08/18/2014  14:53:00      186.221       72.285       59.229       96.448       75.347       75.111     9302.234     5677.218     5641.657        3.201        1.031      199.758       58.767        0.087      349.367       29.740      857.590
08/18/2014  14:54:00      114.233       60.628       -4.166       63.557       38.651       33.828     4039.466     1493.929     1144.318        1.171        0.334      129.325       18.352        0.020      349.257       29.552      857.606
08/18/2014  14:55:00       -0.132       90.981      -16.794       52.082       45.717       34.775     2712.549     2090.081     1209.323        0.728        0.301       90.981        9.633        0.011      349.297       29.620      857.580
08/18/2014  14:56:00        1.274       48.257       -6.378       34.550       38.761       26.744     1193.690     1502.432      715.238        0.289        0.171       48.274       25.357        0.276      349.610       30.164      857.572
08/18/2014  14:57:00      -42.282       60.839      -12.205       43.925       42.528       25.542     1929.364     1808.628      652.374        0.501        0.220       74.089       25.553        0.119      349.532       30.028      857.553
08/18/2014  14:58:00      -81.312       57.683      -13.632       33.739       49.169       31.409     1138.324     2417.571      986.541        0.733        0.227       99.694       19.061        0.037      349.434       29.857      857.530
08/18/2014  14:59:00     -111.808        9.533      -17.128       54.075       31.749       27.363     2924.148     1008.003      748.708        0.878        0.234      112.214       22.470        0.040      349.230       29.505      857.508
08/18/2014  15:00:00     -121.455       16.683      -27.066       41.643       39.359       25.482     1734.139     1549.136      649.311        0.985        0.197      122.596       21.350        0.030      349.264       29.565      857.498
08/18/2014  15:01:00     -129.664      -31.484      -29.412       24.795       26.202       20.305      614.783      686.532      412.281        1.019        0.086      133.432       12.757        0.009      349.102       29.285      857.499
08/18/2014  15:02:00     -106.209      -42.455       -6.881       58.563       67.168       32.768     3429.582     4511.485     1073.758        1.107        0.451      114.380        8.016        0.005      349.369       29.745      857.502
08/18/2014  15:03:00      -85.118        0.607      -12.956       62.127       50.358       37.373     3859.819     2535.975     1396.759        0.760        0.390       85.120       37.593        0.195      349.471       29.924      857.475
08/18/2014  15:04:00      -40.212      -56.275       14.250       47.574       90.790       43.542     2263.261     8242.749     1895.927        0.869        0.620       69.166       37.090        0.288      349.962       30.776      857.449
08/18/2014  15:05:00     -243.064     -136.780       -8.813      168.322       96.332       47.250    28332.343     9279.886     2232.571        5.885        1.992      278.906       36.839        0.017      349.688       30.299      857.429
08/18/2014  15:06:00     -194.307     -138.025      -14.679      108.380       88.736       49.089    11746.291     7874.085     2409.772        3.952        1.102      238.340       42.910        0.032      349.697       30.313      857.418
08/18/2014  15:07:00     -210.850     -160.200       -7.882       93.864      104.614       50.211     8810.498    10944.194     2521.124        4.623        1.114      264.805       50.069        0.036      349.563       30.079      857.420
08/18/2014  15:08:00     -130.121     -165.299      -22.290       52.250       82.058       29.532     2730.104     6733.433      872.163        2.754        0.517      210.369       24.310        0.013      349.105       29.286      857.399
08/18/2014  15:09:00      -54.473      -92.354       -8.290       45.789       70.791       23.579     2096.651     5011.348      555.972        0.961        0.383      107.222       17.853        0.028      349.367       29.742      857.370
08/18/2014  15:10:00     -109.185     -119.365       10.409       91.430      105.482       43.035     8359.491    11126.440     1851.969        2.380        1.067      161.769       43.335        0.072      349.798       30.487      857.350
08/18/2014  15:11:00     -120.281     -133.096       -7.931       92.931       52.719       38.651     8636.166     2779.296     1493.929        2.257        0.645      179.394       45.879        0.065      349.444       29.874      857.349
08/18/2014  15:12:00     -134.483     -114.151       -9.074       62.205       77.082       41.325     3869.430     5941.679     1707.733        2.136        0.576      176.397       30.642        0.030      349.515       29.999      857.337
08/18/2014  15:13:00     -110.361     -139.414       -2.747       76.775       78.145       51.019     5894.385     6106.603     2602.907        2.311        0.730      177.808       46.625        0.069      349.374       29.752      857.333
08/18/2014  15:14:00       -7.016      -92.921       12.905       20.674       26.170       27.254      427.432      684.879      742.763        0.535        0.093       93.185       12.986        0.019      349.457       29.900      857.321
08/18/2014  15:15:00      -40.050      -85.127       -5.342       72.727       27.982       22.653     5289.239      782.976      513.165        0.773        0.329       94.078        4.818        0.003      349.518       30.003      857.303
08/18/2014  15:16:00      -59.922      -57.339       10.095       53.410       54.149       36.221     2852.590     2932.098     1311.959        0.704        0.355       82.936       29.444        0.126      350.004       30.849      857.298
08/18/2014  15:17:00      -82.080     -102.847        9.250       69.050       58.355       38.760     4767.864     3405.276     1502.371        1.354        0.484      131.585       38.548        0.086      349.876       30.626      857.299
08/18/2014  15:18:00      -70.842     -115.679      -26.255       46.206       51.430       32.847     2135.030     2645.063     1078.904        1.247        0.293      135.648       20.953        0.024      349.596       30.140      857.281
08/18/2014  15:19:00      -67.588      -33.682       13.769      130.099       77.648       48.563    16925.646     6029.183     2358.336        1.560        1.266       75.516       41.684        0.305      350.052       30.931      857.259
08/18/2014  15:20:00     -244.480     -138.136       -2.821       95.575       70.750       45.586     9134.583     5005.595     2078.038        4.754        0.811      280.806       36.525        0.017      349.520       30.004      857.268
08/18/2014  15:21:00     -156.722      -42.339      -31.770      100.132       61.022       25.804    10026.462     3723.630      665.847        2.089        0.721      162.340       28.166        0.030      349.337       29.688      857.282
08/18/2014  15:22:00      -50.443       24.481       -4.716       42.148       34.841       30.273     1776.480     1213.923      916.483        0.354        0.195       56.069       24.254        0.187      349.491       29.959      857.257
08/18/2014  15:23:00      -52.008       84.312        0.737       41.509       68.213       35.159     1723.022     4653.011     1236.160        0.871        0.381       99.062       30.250        0.093      349.784       30.466      857.205
08/18/2014  15:24:00      -27.041      -75.552      -12.477       45.344       75.236       34.292     2056.058     5660.451     1175.946        0.774        0.445       80.246       37.412        0.217      349.904       30.675      857.184
08/18/2014  15:25:00        7.079     -100.616      -34.878       43.439       54.225       26.732     1886.975     2940.311      714.580        0.846        0.277      100.865       23.570        0.055      349.971       30.789      857.214
08/18/2014  15:26:00       44.439      -98.842       -5.901       40.556       45.683       29.592     1644.804     2086.965      875.670        0.819        0.230      108.372       19.097        0.031      349.942       30.741      857.211
08/18/2014  15:27:00     -101.268     -113.255       -3.191       89.358       72.944       48.714     7984.932     5320.805     2373.025        1.938        0.784      151.927       50.599        0.111      350.091       30.998      857.184
08/18/2014  15:28:00      -46.045     -151.655      -23.386       81.249       51.222       48.350     6601.401     2623.653     2337.695        1.861        0.578      158.491       27.242        0.030      350.050       30.928      857.172
08/18/2014  15:29:00     -216.214     -204.140      -15.085      130.077      135.080       57.396    16919.985    18246.636     3294.308        6.355        1.923      297.358       64.275        0.047      349.898       30.661      857.141
08/18/2014  15:30:00     -306.010     -208.031      -18.134      118.094      105.693       63.681    13946.208    11170.994     4055.259        8.320        1.459      370.025       64.024        0.030      349.832       30.546      857.134
08/18/2014  15:31:00     -265.124     -218.547       -1.596      165.858       92.902       68.245    27509.005     8630.779     4657.416        7.942        2.040      343.589       84.300        0.060      350.021       30.874      857.130
08/18/2014  15:32:00     -117.927     -260.402        6.294      105.812      147.534       64.169    11196.081    21766.365     4117.682        5.941        1.854      285.860       63.654        0.050      349.696       30.310      857.133
08/18/2014  15:33:00     -298.903     -212.906      -17.981      183.549       98.180       70.692    33690.137     9639.372     4997.326        9.165        2.416      366.977       82.538        0.051      349.770       30.439      857.102
08/18/2014  15:34:00     -324.570     -170.670      -13.025      129.636      114.386       57.805    16805.461    13084.219     3341.428        8.393        1.662      366.707       68.466        0.035      349.651       30.232      857.098
08/18/2014  15:35:00     -235.839     -203.502      -13.384      104.633       80.656       45.276    10948.030     6505.312     2049.880        5.835        0.975      311.501       51.511        0.027      349.612       30.165      857.105
08/18/2014  15:36:00     -195.493     -106.891        0.863      101.852       96.995       56.491    10373.807     9408.049     3191.184        3.630        1.149      222.807       58.645        0.069      349.758       30.418      857.097
08/18/2014  15:37:00     -218.506      -40.860       -8.292       87.485       80.613       36.148     7653.540     6498.497     1306.655        3.247        0.773      222.294       42.258        0.036      349.891       30.646      857.082
08/18/2014  15:38:00     -175.407      -66.694        9.370      105.467       62.859       41.630    11123.262     3951.287     1733.031        2.605        0.840      187.659       43.886        0.055      350.078       30.973      857.062
08/18/2014  15:39:00     -148.838     -107.151        0.250      128.628       78.629       45.021    16545.131     6182.587     2026.868        2.919        1.238      183.396       49.091        0.072      349.905       30.675      857.053
08/18/2014  15:40:00      -89.245      -71.240       12.193       78.619       57.269       36.458     6181.004     3279.787     1329.212        1.199        0.540      114.192       38.299        0.112      350.099       31.013      857.045
08/18/2014  15:41:00      -25.982       -1.041        4.230       26.920       28.283       25.080      724.710      799.951      629.006        0.142        0.108       26.003        2.408        0.009      350.176       31.148      857.022
08/18/2014  15:42:00      -61.811      -33.511      -11.360       33.138       54.783       22.079     1098.156     3001.165      487.478        0.483        0.229       70.311       17.944        0.065      350.057       30.941      857.006
08/18/2014  15:43:00      -19.851      -70.350        1.044       59.304       73.553       41.032     3516.974     5410.072     1683.661        0.798        0.531       73.097       30.442        0.173      350.202       31.193      857.004
08/18/2014  15:44:00       -8.123       31.070       35.071       70.414       51.568       48.797     4958.127     2659.243     2381.117        0.613        0.500       32.114       41.017        1.631      350.214       31.214      856.987
08/18/2014  15:45:00      173.668     -264.571      -22.102      142.951      196.815      111.013    20434.979    38736.127    12323.963        8.606        3.575      316.478      118.897        0.141      349.885       30.638      856.919
08/18/2014  15:46:00       71.727     -126.747        0.832      107.162      139.223       64.982    11483.709    19382.982     4222.721        2.814        1.754      145.635       84.567        0.337      350.002       30.842      856.950
08/18/2014  15:47:00       43.538      -50.896       24.917       52.902       95.461       52.578     2798.595     9112.815     2764.451        0.989        0.734       66.977       55.614        0.689      349.832       30.551      856.925
08/18/2014  15:48:00       55.634       97.246      171.631       91.553      136.260       99.060     8381.924    18566.752     9812.962        3.938        1.838      112.035       96.579        0.743      349.829       30.542      856.856
08/18/2014  15:49:00      185.764      -77.499       44.893      132.768      121.232       82.544    17627.265    14697.180     6813.586        4.083        1.957      201.282       90.783        0.203      349.720       30.353      856.813
08/18/2014  15:50:00      122.666       58.177      109.212       97.681      108.452      103.327     9541.667    11761.853    10676.497        3.116        1.599      135.763       91.740        0.457      349.598       30.141      856.773
08/18/2014  15:51:00      528.864      470.142      148.923      349.454      164.232      168.740   122118.427    26972.044    28473.331       35.020        8.878      707.623      109.276        0.024      349.921       30.701      856.151
08/18/2014  15:52:00     -493.889       27.199      -59.639      143.914      266.369       93.635    20711.112    70952.644     8767.464       17.431        5.022      494.638      107.168        0.047      350.226       31.230      856.444
08/18/2014  15:53:00     -404.559     -117.575      -27.339      124.363       80.685       59.086    15466.208     6510.019     3491.126       10.185        1.273      421.298       58.659        0.019      350.065       30.951      856.796
08/18/2014  15:54:00     -201.799      -80.909       -2.507      151.297       89.134       45.330    22890.741     7944.844     2054.765        4.008        1.645      217.415       50.004        0.053      350.184       31.157      856.873
08/18/2014  15:55:00     -112.527      -55.707       21.457       98.816      100.630       47.686     9764.570    10126.497     2273.949        1.919        1.108      125.561       49.137        0.153      350.071       30.963      856.874
08/18/2014  15:56:00     -116.264      -76.102       12.623       74.626       67.282       43.725     5569.041     4526.849     1911.883        1.574        0.600      138.956       39.920        0.083      350.052       30.930      856.864
08/18/2014  15:57:00      -65.332      -28.753       19.715       55.410       38.615       24.072     3070.259     1491.081      579.485        0.531        0.257       71.380       21.978        0.095      350.223       31.229      856.840
08/18/2014  15:58:00      -73.596       -1.795        7.382       45.037       45.595       28.314     2028.324     2078.875      801.669        0.519        0.245       73.618       27.067        0.135      350.356       31.461      856.814
08/18/2014  15:59:00     -127.851       -6.238       -3.016       78.448       62.300       33.877     6154.121     3881.244     1147.657        1.379        0.559      128.004       38.614        0.091      350.239       31.255      856.805
08/18/2014  16:00:00     -196.266        2.727       -7.709       94.929       73.479       45.181     9011.487     5399.237     2041.287        2.752        0.823      196.285       35.708        0.033      350.352       31.452      856.812
08/18/2014  16:01:00     -173.019      -73.407       -2.778      131.154      102.579       59.949    17201.409    10522.441     3593.936        3.332        1.566      187.947       60.224        0.103      350.139       31.081      856.795
08/18/2014  16:02:00     -160.884      -66.759        0.761       89.701       86.670       47.711     8046.250     7511.606     2276.386        2.408        0.892      174.185       45.320        0.068      350.217       31.215      856.779
08/18/2014  16:03:00     -156.520        6.625        5.316      132.448       92.395       57.651    17542.381     8536.799     3323.690        2.698        1.470      156.660       73.702        0.221      350.391       31.519      856.781
08/18/2014  16:04:00     -285.991      -74.282      -17.880      176.035      167.609       78.699    30988.453    28092.808     6193.552        7.644        3.264      295.480       79.649        0.073      349.908       30.678      856.807
08/18/2014  16:05:00      -83.008      -61.714       14.822      121.889      111.608       56.437    14856.893    12456.395     3185.151        2.070        1.525      103.436       61.527        0.354      350.033       30.897      856.794
08/18/2014  16:06:00     -360.573      -24.850      -11.883      184.057      123.237       71.048    33876.811    15187.299     5047.808        9.243        2.706      361.429       77.455        0.046      349.935       30.726      856.778
08/18/2014  16:07:00     -359.047     -284.851       -2.401      147.045      145.921       70.551    21622.135    21292.891     4977.411       12.897        2.395      458.318       79.053        0.030      349.699       30.314      856.770
08/18/2014  16:08:00     -210.301     -203.985       -7.603      123.596      156.334       57.059    15275.918    24440.275     3255.744        6.442        2.149      292.978       58.904        0.040      349.672       30.269      856.774
08/18/2014  16:09:00     -235.393      -45.629       -0.243      148.840      138.954       62.591    22153.373    19308.112     3917.602        5.143        2.269      239.775       64.926        0.073      350.023       30.879      856.763
08/18/2014  16:10:00     -246.321     -152.782       16.741      183.858      113.123       76.342    33803.615    12796.772     5828.111        6.835        2.621      289.856       93.402        0.104      349.861       30.595      856.751
08/18/2014  16:11:00     -201.987      -59.635        7.415      143.509      150.866       78.372    20594.971    22760.456     6142.209        4.694        2.475      210.606       72.829        0.120      350.069       30.958      856.735
08/18/2014  16:12:00     -184.113      -29.818        5.833      181.503      108.332       76.246    32943.351    11735.716     5813.414        4.265        2.525      186.512       93.458        0.251      350.066       30.955      856.746
08/18/2014  16:13:00     -316.095       53.159      -25.973      114.084      122.744       62.182    13015.269    15066.020     3866.629        6.768        1.597      320.534       51.608        0.026      349.757       30.415      856.735
08/18/2014  16:14:00     -288.866      -49.444       -3.875      125.035      100.272       58.403    15633.843    10054.568     3410.903        5.750        1.455      293.067       63.097        0.046      349.932       30.719      856.707
08/18/2014  16:15:00     -388.508      -33.083      -12.561      152.758      162.269       83.357    23334.862    26331.158     6948.433       10.439        2.831      389.914       74.067        0.036      350.015       30.866      856.702
08/18/2014  16:16:00     -309.522      -27.251      -24.163      111.596      126.632       56.932    12453.565    16035.714     3241.296        6.442        1.587      310.720       54.866        0.031      350.017       30.867      856.720
08/18/2014  16:17:00     -276.247        7.730      -17.606      130.833      126.806       65.098    17117.217    16079.653     4237.691        5.705        1.872      276.355       66.166        0.057      350.133       31.069      856.715
08/18/2014  16:18:00     -227.085       28.076      -11.239      136.504       83.897       51.490    18633.300     7038.624     2651.213        4.040        1.416      228.814       59.384        0.067      350.100       31.012      856.698
08/18/2014  16:19:00     -319.118      -79.984      -21.719      141.754      117.309       61.061    20094.112    13761.311     3728.465        7.314        1.879      328.989       71.371        0.047      350.094       31.003      856.671
08/18/2014  16:20:00     -216.181      -76.437      -10.791      100.021      110.615       47.235    10004.162    12235.755     2231.160        3.858        1.224      229.296       35.490        0.024      349.846       30.570      856.660
08/18/2014  16:21:00      -90.800        8.733       -5.410       57.166       43.250       29.293     3267.952     1870.550      858.062        0.717        0.300       91.219       27.695        0.092      350.184       31.163      856.641
08/18/2014  16:22:00      -22.737        8.436       26.538       52.761       38.266       31.348     2783.681     1464.276      982.726        0.326        0.262       24.251       25.102        1.071      350.456       31.634      856.620
08/18/2014  16:23:00     -122.875      -41.346       -1.731      125.471       60.220       49.159    15742.865     3626.446     2416.636        1.929        1.089      129.645       59.835        0.213      350.139       31.083      856.604
08/18/2014  16:24:00     -225.026      -64.444        6.198      110.156       72.213       50.101    12134.389     5214.700     2510.119        3.734        0.993      234.072       56.332        0.058      350.161       31.119      856.590
08/18/2014  16:25:00     -186.071      -64.560        4.083       86.259       60.617       44.066     7440.563     3674.421     1941.852        2.593        0.653      196.952       42.315        0.046      349.959       30.768      856.585
08/18/2014  16:26:00      -84.378       -4.216       -0.859       91.222       76.656       34.418     8321.374     5876.191     1184.625        1.126        0.769       84.483       32.823        0.151      350.325       31.405      856.587
08/18/2014  16:27:00     -173.308        9.953      -17.954      104.122      103.963       57.538    10841.431    10808.326     3310.612        2.770        1.248      173.593       59.153        0.116      350.301       31.359      856.603
08/18/2014  16:28:00     -124.871      -40.816      -17.366      122.198       70.714       46.172    14932.306     5000.523     2131.824        1.981        1.103      131.372       48.254        0.135      350.204       31.194      856.629
08/18/2014  16:29:00     -197.610      -31.765       -3.194      155.190      167.195       64.661    24084.072    27954.150     4181.091        4.813        2.811      200.147       64.471        0.104      349.966       30.779      856.591
08/18/2014  16:30:00     -309.342      -23.521      -17.503      157.870      105.662       63.134    24922.907    11164.469     3985.859        6.830        2.004      310.235       64.616        0.043      350.092       30.998      856.618
08/18/2014  16:31:00     -472.389      -94.132      -15.415      177.670      140.631       79.375    31566.465    19777.173     6300.353       14.494        2.882      481.677       85.599        0.032      349.914       30.689      856.616
08/18/2014  16:32:00     -339.664     -129.095        0.538      131.708      115.119       57.390    17346.962    13252.460     3293.626        8.296        1.695      363.369       56.557        0.024      349.843       30.565      856.637
08/18/2014  16:33:00     -170.825      -53.799       -2.162      174.182       83.204       54.597    30339.384     6922.937     2980.873        3.615        2.012      179.096       51.458        0.083      350.049       30.923      856.631
08/18/2014  16:34:00      -99.312     -152.401        0.167      112.860       99.903       38.311    12737.339     9980.533     1467.728        2.863        1.209      181.904       26.628        0.021      350.010       30.855      856.618
08/18/2014  16:35:00     -228.263      -62.449        2.649       90.927       60.930       43.517     8267.713     3712.481     1893.752        3.494        0.694      236.652       49.866        0.044      350.025       30.882      856.627
08/18/2014  16:36:00     -157.308      -67.769       -1.694       86.951       60.887       40.173     7560.488     3707.266     1613.854        2.111        0.644      171.285       28.343        0.027      350.295       31.351      856.629
08/18/2014  16:37:00     -230.284       37.524       -7.089      148.399      100.286       72.987    22022.191    10057.265     5327.094        4.594        1.870      233.321       82.565        0.125      350.070       30.961      856.638
08/18/2014  16:38:00     -212.356      -38.474        3.593      132.924      108.649       57.941    17668.809    11804.664     3357.104        3.970        1.642      215.813       67.507        0.098      349.961       30.771      856.639
08/18/2014  16:39:00     -283.470       36.952      -37.008      125.156       84.693       44.315    15663.904     7172.908     1963.822        5.394        1.240      285.868       46.690        0.027      349.752       30.407      856.624
08/18/2014  16:40:00     -415.227      103.744      -38.432      119.305       82.137       42.896    14233.607     6746.406     1840.034       10.373        1.141      427.991       29.355        0.005      349.656       30.240      856.605
08/18/2014  16:41:00      -54.420      123.574       -9.489       93.269       64.095       47.464     8699.197     4108.138     2252.809        1.669        0.753      135.026       45.526        0.114      349.708       30.333      856.595
08/18/2014  16:42:00     -166.386      232.912      -25.340       95.230      108.801       56.843     9068.745    11837.564     3231.176        5.335        1.207      286.238       49.424        0.030      349.776       30.449      856.556
08/18/2014  16:43:00     -120.905      168.914      -14.193       52.690       88.889       47.014     2776.244     7901.290     2210.307        2.812        0.644      207.726       33.772        0.026      349.840       30.561      856.544
08/18/2014  16:44:00     -200.392      -25.074      -13.885      129.455      133.412       56.673    16758.480    17798.832     3211.784        3.937        1.888      201.955       61.733        0.093      350.078       30.973      856.518
08/18/2014  16:45:00     -116.287      117.518      -12.440       81.764       64.407       53.735     6685.351     4148.299     2887.444        2.060        0.686      165.327       50.734        0.094      350.019       30.873      856.511
08/18/2014  16:46:00     -142.070      220.296      -39.368       58.937       99.330       48.807     3473.610     9866.375     2382.130        4.299        0.786      262.134       24.584        0.009      349.843       30.566      856.496
08/18/2014  16:47:00     -152.763      176.724      -34.436       89.826       91.878       53.396     8068.676     8441.514     2851.168        3.755        0.968      233.598       50.758        0.047      349.743       30.392      856.487
08/18/2014  16:48:00      -74.649      205.303      -24.371       57.053       91.543       42.507     3255.054     8380.199     1806.828        3.088        0.672      218.453       44.841        0.042      349.718       30.349      856.451
08/18/2014  16:49:00      -39.532      234.073      -35.218       52.851       59.636       33.731     2793.234     3556.401     1137.774        3.254        0.374      237.388       20.660        0.008      349.592       30.128      856.431
08/18/2014  16:50:00       52.390      156.570      -11.744       74.966      104.243       43.983     5619.867    10866.649     1934.493        2.291        0.921      165.103       54.009        0.107      349.585       30.118      856.409
08/18/2014  16:51:00      -68.216       39.406        0.276       73.035       35.989       27.420     5334.105     1295.210      751.860        0.679        0.369       78.780       35.221        0.200      350.028       30.891      856.415
08/18/2014  16:52:00     -179.113       35.392      -40.254       68.125      100.462       37.455     4641.020    10092.660     1402.910        2.554        0.807      182.576       28.914        0.025      350.074       30.966      856.435
08/18/2014  16:53:00     -244.686      -23.481      -28.911       83.707       68.338       40.793     7006.883     4670.036     1664.099        3.730        0.667      245.810       42.037        0.029      349.909       30.680      856.437
08/18/2014  16:54:00     -284.136      -83.177      -21.945       93.597      107.360       50.799     8760.350    11526.152     2580.490        5.550        1.143      296.061       41.920        0.020      349.940       30.734      856.429
08/18/2014  16:55:00     -208.969      -88.189      -21.432      112.588       88.001       57.755    12676.024     7744.245     3335.696        3.783        1.188      226.816       57.505        0.064      350.199       31.184      856.397
08/18/2014  16:56:00     -154.482      -63.304       -7.189      115.953      101.853       63.164    13445.063    10374.036     3989.719        2.786        1.390      166.949       65.506        0.154      349.987       30.816      856.400
08/18/2014  16:57:00     -205.443      -75.037       -1.163      105.550      101.535       53.271    11140.800    10309.423     2837.786        3.606        1.214      218.718       49.908        0.052      350.037       30.901      856.390
08/18/2014  16:58:00     -106.245      -11.811        5.805      143.357       83.938       61.199    20551.298     7045.575     3745.360        2.140        1.567      106.900       66.832        0.391      350.184       31.160      856.385
08/18/2014  16:59:00     -250.839      -20.747      -16.530      119.113       81.591       52.138    14187.798     6657.073     2718.385        4.359        1.178      251.696       49.530        0.039      350.179       31.150      856.399
08/18/2014  17:00:00     -265.814       -7.837       -7.602      180.513      118.703       68.659    32584.905    14090.452     4714.057        6.107        2.569      265.929       73.035        0.075      350.106       31.022      856.396
08/18/2014  17:01:00     -249.016     -181.135       24.518      190.334      155.819       87.176    36227.007    24279.473     7599.742        8.175        3.405      307.927       96.392        0.098      349.939       30.733      856.377
08/18/2014  17:02:00     -302.936     -142.468       -3.106      172.149      118.424       67.321    29635.181    14024.316     4532.070        8.012        2.410      334.764       78.308        0.055      349.905       30.674      856.398
08/18/2014  17:03:00     -344.220     -113.021       -9.385      189.058      128.907       67.166    35742.915    16617.037     4511.296        9.410        2.844      362.300       72.528        0.040      349.884       30.636      856.417
08/18/2014  17:04:00     -397.156      -43.934      -11.447      164.757       94.653       66.119    27144.791     8959.159     4371.738       10.013        2.024      399.579       77.809        0.038      349.829       30.540      856.421
08/18/2014  17:05:00     -253.317     -156.735       -2.693      156.917      113.283       71.724    24623.031    12832.964     5144.304        6.566        2.130      297.885       69.499        0.054      349.857       30.592      856.413
08/18/2014  17:06:00     -178.765      -17.194       -9.897       90.625      111.708       50.339     8212.913    12478.566     2533.997        2.778        1.161      179.590       54.856        0.093      349.917       30.694      856.424
08/18/2014  17:07:00     -309.670      139.449      -31.701      122.625      147.598       72.398    15036.929    21785.233     5241.520        7.920        2.103      339.620       65.697        0.037      349.836       30.553      856.426
08/18/2014  17:08:00     -294.280      -63.012      -27.779      165.557      113.185       65.611    27409.252    12810.899     4304.862        6.793        2.226      300.951       67.268        0.050      350.012       30.859      856.418
08/18/2014  17:09:00     -242.112      -84.366      -10.448      113.875       82.526       55.670    12967.471     6810.523     3099.148        4.436        1.144      256.390       60.108        0.055      349.875       30.620      856.429
08/18/2014  17:10:00     -297.087        7.089      -29.213      120.656       83.120       55.691    14557.986     6908.882     3101.476        5.686        1.228      297.172       43.198        0.021      349.879       30.628      856.426
08/18/2014  17:11:00     -267.560      -37.013      -19.521       97.691      115.415       46.007     9543.498    13320.730     2116.666        4.916        1.249      270.107       29.110        0.012      349.812       30.511      856.427
08/18/2014  17:12:00     -364.818      -80.257      -25.180      112.852       85.415       52.646    12735.665     7295.802     2771.554        8.148        1.140      373.541       57.023        0.023      349.787       30.468      856.429
08/18/2014  17:13:00     -263.174       -6.996       -6.724      190.823      141.327       64.806    36413.532    19973.218     4199.826        6.496        3.029      263.267       81.412        0.096      349.921       30.702      856.403
08/18/2014  17:14:00     -368.498      -97.259      -13.188      150.223      119.555       62.977    22566.997    14293.492     3966.121        9.312        2.041      381.117       58.877        0.024      349.867       30.607      856.422
08/18/2014  17:15:00     -349.872        4.845      -29.415      138.846      112.410       57.039    19278.298    12635.928     3253.447        7.923        1.758      349.905       50.816        0.021      349.926       30.709      856.423
08/18/2014  17:16:00     -397.572     -160.510      -28.332      139.465      102.698       72.309    19450.622    10546.808     5228.617       10.992        1.761      428.750       76.169        0.032      349.784       30.462      856.408
08/18/2014  17:17:00     -281.631     -118.197       -7.407      116.586      110.164       57.053    13592.207    12136.097     3255.025        6.116        1.449      305.429       55.103        0.033      349.976       30.799      856.415
08/18/2014  17:18:00     -277.757     -124.649       -7.552      186.690      145.658       86.556    34852.973    21216.136     7491.992        7.814        3.178      304.445      105.175        0.119      349.880       30.629      856.401
08/18/2014  17:19:00     -244.224     -142.812       -2.198      213.952      132.351       78.931    45775.435    17516.700     6230.067        7.477        3.476      282.915       98.948        0.122      349.923       30.705      856.407
08/18/2014  17:20:00     -317.494      -16.117      -14.347      164.788      117.613       71.691    27155.003    13832.732     5139.608        7.369        2.306      317.903       86.527        0.074      350.013       30.860      856.412
08/18/2014  17:21:00     -466.576      -58.352      -24.332      206.530      146.986       81.024    42654.737    21604.742     6564.931       14.624        3.541      470.211       92.938        0.039      349.817       30.521      856.412
08/18/2014  17:22:00     -394.340     -229.015      -30.530      193.890      150.602       72.886    37593.179    22680.868     5312.340       13.722        3.279      456.018       79.879        0.031      349.765       30.430      856.434
08/18/2014  17:23:00     -415.461     -228.667      -15.177      122.979      152.192       80.573    15123.758    23162.541     6492.055       13.494        2.239      474.232       69.435        0.021      349.630       30.195      856.442
08/18/2014  17:24:00     -236.300     -118.645        0.927      154.746      117.151       61.403    23946.393    13724.366     3770.284        5.567        2.072      264.413       73.200        0.077      349.803       30.497      856.458
08/18/2014  17:25:00     -225.746     -112.613       -1.676      130.482      131.841       62.039    17025.497    17382.067     3848.870        5.094        1.913      252.276       51.595        0.042      349.820       30.525      856.447
08/18/2014  17:26:00     -295.038     -110.954       -6.753      154.875      106.564       62.472    23986.180    11355.780     3902.702        6.932        1.962      315.212       63.450        0.041      349.737       30.379      856.428
08/18/2014  17:27:00     -190.063     -195.370       -7.903      119.516      105.188       56.263    14284.183    11064.438     3165.560        5.143        1.426      272.569       45.616        0.028      349.770       30.438      856.437
08/18/2014  17:28:00     -389.097     -163.476       -5.759      159.053      139.436       71.603    25298.012    19442.379     5126.919       11.400        2.493      422.043       76.576        0.033      349.701       30.319      856.442
08/18/2014  17:29:00     -258.610     -117.803        0.840      154.222      126.958       68.854    23784.359    16118.336     4740.819        6.269        2.232      284.177       84.721        0.089      349.781       30.457      856.461
08/18/2014  17:30:00     -382.725     -103.792      -17.479      151.658       98.016       60.583    23000.061     9607.048     3670.280        9.691        1.814      396.549       64.514        0.026      349.696       30.310      856.456
08/18/2014  17:31:00     -207.282      -93.811       -3.746      150.438       95.354       59.302    22631.550     9092.379     3516.768        4.350        1.762      227.522       70.967        0.097      349.804       30.498      856.469
08/18/2014  17:32:00     -313.941     -104.069       -8.685      110.147       98.047       52.994    12132.454     9613.210     2808.391        6.700        1.228      330.740       49.827        0.023      349.745       30.394      856.489
08/18/2014  17:33:00     -229.259      -61.930       -3.459      107.277       70.058       46.282    11508.420     4908.096     2142.058        3.748        0.928      237.477       50.955        0.046      349.804       30.498      856.496
08/18/2014  17:34:00      -53.990      -57.885       15.855       85.911       50.276       43.325     7380.689     2527.714     1877.086        0.915        0.589       79.156       51.232        0.419      349.854       30.588      856.467
08/18/2014  17:35:00     -121.137      -82.410       -9.368       87.167       52.455       35.174     7598.162     2751.479     1237.210        1.657        0.579      146.512       32.686        0.050      349.884       30.637      856.434
08/18/2014  17:36:00     -135.673      -81.440        5.325       82.880       78.818       48.711     6869.125     6212.321     2372.809        2.026        0.773      158.239       43.616        0.076      349.842       30.565      856.433
08/18/2014  17:37:00     -191.799      -52.422       10.812       90.417       79.863       45.412     8175.156     6378.046     2062.218        2.813        0.831      198.834       49.697        0.062      349.778       30.453      856.440
08/18/2014  17:38:00     -250.730      -10.359       -5.186      124.065       96.018       57.235    15392.230     9219.508     3275.884        4.544        1.394      250.944       60.479        0.058      349.899       30.663      856.434
08/18/2014  17:39:00     -274.649      -26.042       -1.083      140.899       99.617       50.825    19852.656     9923.594     2583.144        5.423        1.618      275.881       51.504        0.035      349.877       30.624      856.433
08/18/2014  17:40:00     -294.489      -86.089       -3.662      125.388       73.242       54.441    15722.064     5364.342     2963.777        5.909        1.203      306.814       59.935        0.038      349.771       30.438      856.432
08/18/2014  17:41:00     -238.909      -51.643       -1.054       78.434       53.597       38.068     6151.897     2872.631     1449.207        3.511        0.524      244.427       39.234        0.026      349.732       30.372      856.444
08/18/2014  17:42:00     -225.869       31.384      -12.239       98.887       78.806       52.371     9778.713     6210.463     2742.698        3.544        0.937      228.039       50.666        0.049      349.760       30.421      856.451
08/18/2014  17:43:00      -49.814      -11.328       25.733       84.915       48.774       40.728     7210.548     2378.894     1658.738        0.726        0.562       51.086       34.094        0.445      349.894       30.657      856.459
08/18/2014  17:44:00     -131.615      -46.845       -2.998       97.664       92.374       43.685     9538.261     8532.869     1908.370        1.975        0.999      139.703       37.577        0.072      349.963       30.774      856.464
08/18/2014  17:45:00     -230.565      -50.713      -16.930       67.858       75.878       43.577     4604.704     5757.449     1898.946        3.414        0.613      236.077       37.398        0.025      349.889       30.645      856.465
08/18/2014  17:46:00      -98.608       26.717        1.608      101.144       77.791       48.193    10230.200     6051.469     2322.572        1.452        0.930      102.164       49.718        0.237      349.923       30.706      856.480
08/18/2014  17:47:00      -87.941      114.651       -3.746       53.606       87.887       45.670     2873.608     7724.198     2085.792        1.679        0.634      144.494       33.680        0.054      349.777       30.451      856.505
08/18/2014  17:48:00     -262.547      110.365      -34.842      128.204      197.637       83.950    16436.392    39060.578     7047.581        7.242        3.127      284.801       58.703        0.042      349.693       30.303      856.477
08/18/2014  17:49:00     -268.976      132.623      -42.214      153.197      305.732       85.380    23469.444    93472.182     7289.727       10.795        6.212      299.895       64.164        0.046      349.647       30.223      856.488
08/18/2014  17:50:00     -257.666        8.583      -38.435      106.298      119.822       59.823    11299.185    14357.204     3578.738        4.858        1.462      257.809       38.469        0.022      349.660       30.248      856.552
08/18/2014  17:51:00     -212.393        0.919      -21.355      180.530       80.368       52.502    32590.936     6459.072     2756.424        4.368        2.090      212.395       82.147        0.150      349.498       29.969      856.529
08/18/2014  17:52:00     -289.448       66.745      -45.334      157.186      121.692       67.305    24707.552    14808.988     4529.913        6.716        2.202      297.043       80.791        0.074      349.457       29.895      856.510
08/18/2014  17:53:00     -337.203       97.494      -34.758      167.658      168.851       95.845    28109.171    28510.641     9186.195        9.510        3.290      351.015       89.043        0.064      349.492       29.957      856.466
08/18/2014  17:54:00     -373.348      196.740      -69.382      189.980      161.085       79.419    36092.224    25948.327     6307.450       12.562        3.417      422.013       89.484        0.045      349.478       29.930      856.441
08/18/2014  17:55:00     -330.790      160.648      -46.163      165.322      180.690      112.899    27331.400    32649.051    12746.208       10.503        3.636      367.736      107.738        0.086      349.453       29.888      856.493
08/18/2014  17:56:00     -337.751       60.265      -48.367      106.362      147.150       68.954    11312.836    21653.155     4754.586        7.888        1.886      343.086       58.971        0.030      349.456       29.892      856.529
08/18/2014  17:57:00     -223.708      149.816      -34.494      161.214      105.374       50.772    25989.898    11103.599     2577.767        5.667        1.984      269.240       40.574        0.023      349.402       29.800      856.519
08/18/2014  17:58:00     -164.039      177.464      -17.221      161.057      120.142       60.425    25939.445    14433.998     3651.189        5.135        2.201      241.666       69.157        0.082      349.424       29.839      856.486
08/18/2014  17:59:00     -209.509      236.703      -53.923      132.411      115.887       79.732    17532.724    13429.792     6357.219        7.007        1.866      316.105       72.661        0.053      349.402       29.799      856.478
08/18/2014  18:00:00     -138.758      205.812      -18.492      145.624      173.211       96.732    21206.420    30002.097     9356.999        6.125        3.028      248.218       70.148        0.080      349.356       29.721      856.453
08/18/2014  18:01:00     -173.501      132.800      -23.793      124.640      152.574       80.081    15535.104    23278.875     6413.015        4.676        2.261      218.491       66.061        0.091      349.478       29.933      856.432
08/18/2014  18:02:00     -197.215      104.064      -14.414      149.798      137.472       73.257    22439.522    18898.587     5366.646        4.831        2.335      222.986       77.916        0.122      349.605       30.153      856.480
08/18/2014  18:03:00     -240.416      -29.592      -23.566      121.799      176.360       70.021    14834.943    31102.940     4902.930        5.503        2.542      242.230       57.558        0.056      349.626       30.189      856.524
08/18/2014  18:04:00     -307.344      -89.503      -27.894      138.230       98.616       59.046    19107.603     9725.134     3486.460        6.778        1.616      320.111       44.572        0.019      349.391       29.781      856.539
08/18/2014  18:05:00     -167.309      -25.479       -7.176       82.452       67.175       41.299     6798.322     4512.494     1705.597        2.085        0.651      169.238       34.715        0.042      349.415       29.825      856.537
08/18/2014  18:06:00     -277.834        4.053      -41.394      176.208      202.797       71.887    31049.163    41126.716     5167.708        7.812        3.867      277.864       78.781        0.080      349.399       29.794      856.533
08/18/2014  18:07:00     -282.019      140.662      -34.161      190.545      151.754       90.057    36307.583    23029.175     8110.251        8.395        3.372      315.152       93.851        0.089      349.266       29.566      856.510
08/18/2014  18:08:00     -190.316       96.770      -11.198      123.527      152.917       76.478    15258.909    23383.741     5848.905        4.509        2.225      213.506       64.023        0.090      349.280       29.589      856.518
08/18/2014  18:09:00     -239.675      202.920      -28.536      149.844      176.911       84.016    22453.279    31297.405     7058.697        8.011        3.040      314.039       92.113        0.086      349.272       29.575      856.522
08/18/2014  18:10:00     -236.553      294.373      -63.465      150.049      175.489       82.772    22514.647    30796.335     6851.122       10.339        3.008      377.641       96.323        0.065      349.151       29.366      856.524
08/18/2014  18:11:00     -201.532      320.166      -39.446      102.158      158.729       74.902    10436.312    25195.034     5610.282        9.295        2.062      378.314       56.260        0.022      349.084       29.247      856.513
08/18/2014  18:12:00     -237.371      353.951      -51.776      150.039      129.123       82.694    22511.668    16672.737     6838.273       11.516        2.301      426.176       71.992        0.029      349.061       29.209      856.503
08/18/2014  18:13:00     -153.995      298.802      -18.876      136.436      150.135       81.620    18614.720    22540.606     6661.816        8.058        2.391      336.150       86.919        0.067      349.107       29.289      856.487
08/18/2014  18:14:00     -198.384       12.485      -32.765       97.323      115.668       62.947     9471.693    13379.000     3962.340        3.369        1.341      198.776       50.214        0.064      349.295       29.613      856.486
08/18/2014  18:15:00     -206.109      112.739      -22.572      108.812      109.375       65.600    11839.947    11962.998     4303.349        4.190        1.405      234.928       47.382        0.041      349.249       29.534      856.494
08/18/2014  18:16:00      -92.882       56.462      -22.106       70.089       72.619       44.134     4912.401     5273.508     1947.788        1.222        0.607      108.697       33.014        0.092      349.354       29.719      856.486
08/18/2014  18:17:00     -216.853       99.606      -23.866      183.949      158.662       84.939    33837.161    25173.484     7214.662        6.186        3.311      238.635       95.811        0.161      349.243       29.525      856.487
08/18/2014  18:18:00     -201.280      160.989      -30.666      170.409      151.115       86.879    29039.240    22835.786     7547.877        6.339        2.971      257.743       87.434        0.115      349.134       29.336      856.457
08/18/2014  18:19:00     -361.513      138.910      -68.065      244.435      138.507       84.490    59748.485    19184.311     7138.640       12.033        4.304      387.282       88.905        0.053      349.080       29.243      856.480
08/18/2014  18:20:00     -285.050       87.864      -44.574      210.406      113.746       79.216    44270.779    12938.244     6275.099        7.721        3.174      298.285       95.098        0.102      349.068       29.222      856.498
08/18/2014  18:21:00     -284.249       90.330      -39.833      108.773      157.562       77.310    11831.561    24825.778     5976.779        6.658        2.132      298.256       71.101        0.057      349.067       29.219      856.504
08/18/2014  18:22:00     -173.051        5.998      -13.295      172.291      161.047       88.251    29684.143    25936.291     7788.183        4.677        3.170      173.155       86.759        0.251      349.056       29.201      856.476
08/18/2014  18:23:00     -262.872      101.748      -23.509      179.070      129.866       93.096    32065.910    16865.158     8666.807        6.879        2.880      281.877       91.066        0.104      349.002       29.107      856.498
08/18/2014  18:24:00     -274.592       39.799      -21.798      155.867      140.611       76.483    24294.671    19771.363     5849.607        6.368        2.496      277.461       88.378        0.101      349.033       29.162      856.517
08/18/2014  18:25:00     -326.947      157.447      -43.174      191.659      152.888       97.020    36732.989    23374.725     9412.870       10.152        3.476      362.883       91.245        0.063      348.940       29.000      856.522
08/18/2014  18:26:00     -227.316       69.053      -22.395      150.528      172.336       88.715    22658.678    29699.537     7870.265        5.857        3.011      237.573       71.276        0.090      348.930       28.984      856.496
08/18/2014  18:27:00     -288.482      241.868      -72.306      155.384      113.939       78.102    24144.196    12982.067     6099.965        9.508        2.161      376.460       68.063        0.033      348.877       28.891      856.479
08/18/2014  18:28:00     -203.080      175.916      -34.141       96.419      136.720       78.248     9296.529    18692.495     6122.723        5.373        1.706      268.678       77.797        0.084      348.906       28.938      856.484
08/18/2014  18:29:00     -227.690       82.859      -34.939      146.670      196.651       79.830    21512.007    38671.457     6372.811        6.323        3.328      242.298       70.814        0.085      348.998       29.099      856.484
08/18/2014  18:30:00     -283.100       46.425      -46.691      150.797      114.586       76.139    22739.586    13129.860     5797.086        6.307        2.083      286.881       82.851        0.083      348.946       29.010      856.495
08/18/2014  18:31:00     -311.519      103.776      -41.981      206.111      159.542       93.303    42481.688    25453.603     8705.529        9.309        3.832      328.349       97.919        0.089      348.869       28.876      856.511
08/18/2014  18:32:00     -233.224      -60.402      -26.486      160.469      150.214       79.015    25750.332    22564.254     6243.371        5.664        2.728      240.918       61.970        0.066      348.933       28.987      856.498
08/18/2014  18:33:00     -397.810      -35.967      -37.031      187.240      147.253       81.797    35058.841    21683.490     6690.689       11.216        3.172      399.432       79.512        0.040      348.866       28.870      856.532
08/18/2014  18:34:00     -395.239     -116.749      -28.204      149.935      129.960       67.312    22480.441    16889.530     4530.863       10.726        2.195      412.122       44.281        0.012      348.811       28.777      856.537
08/18/2014  18:35:00     -317.294      -83.066       -7.226      124.272      121.839       79.896    15443.469    14844.671     6383.419        7.214        1.834      327.987       62.565        0.036      348.790       28.740      856.542
08/18/2014  18:36:00     -221.525       45.227       -4.302      130.444      136.627       84.262    17015.533    18666.835     7100.116        4.695        2.139      226.095       73.653        0.106      348.812       28.779      856.533
08/18/2014  18:37:00     -248.532       31.930       -7.674      139.320      173.180       73.813    19410.128    29991.203     5448.306        5.884        2.742      250.574       64.863        0.067      348.824       28.797      856.545
08/18/2014  18:38:00     -247.231      -12.777      -41.748      185.995      151.305       89.066    34594.020    22893.309     7932.774        6.421        3.271      247.560       85.834        0.120      348.833       28.815      856.532
08/18/2014  18:39:00     -233.907       -7.204      -21.104      144.204      151.288       75.710    20794.935    22888.175     5732.023        5.230        2.471      234.017       58.757        0.063      348.792       28.743      856.531
08/18/2014  18:40:00     -295.405      129.928      -28.000      179.559      106.064       85.021    32241.306    11249.542     7228.633        7.781        2.536      322.715       98.699        0.094      348.735       28.644      856.554
08/18/2014  18:41:00     -249.875       17.996      -32.313      167.175      142.804       71.245    27947.362    20392.851     5075.810        5.860        2.671      250.522       69.451        0.077      348.802       28.758      856.552
08/18/2014  18:42:00     -265.360      -57.013      -21.327      145.363      149.879       73.948    21130.332    22463.600     5468.375        6.158        2.453      271.416       64.418        0.056      348.725       28.627      856.538
08/18/2014  18:43:00     -162.386       77.622      -17.362      104.700       83.505       76.525    10962.104     6973.052     5856.081        2.824        1.190      179.984       52.296        0.084      348.754       28.680      856.554
08/18/2014  18:44:00     -122.885       19.846      -19.608      146.053      115.740       75.443    21331.361    13395.806     5691.666        2.814        2.021      124.477       75.986        0.373      348.798       28.756      856.553
08/18/2014  18:45:00     -255.277      -74.805      -34.186      146.727      109.630       90.435    21528.953    12018.821     8178.428        5.682        2.086      266.011       52.342        0.039      348.762       28.693      856.554
08/18/2014  18:46:00     -237.693      -83.465      -14.126      166.662       92.068       67.054    27776.389     8476.458     4496.248        5.220        2.037      251.922       78.299        0.097      348.733       28.643      856.549
08/18/2014  18:47:00     -245.970      -61.433      -13.600      168.341      110.214       76.344    28338.565    12147.157     5828.421        5.538        2.316      253.525       84.876        0.112      348.714       28.609      856.576
08/18/2014  18:48:00     -264.894       -6.850      -26.886      140.023      211.793       79.850    19606.514    44856.162     6376.065        7.087        3.542      264.982       86.297        0.106      348.698       28.582      856.581
08/18/2014  18:49:00     -225.826        6.386      -28.489      125.766      173.644       70.395    15816.994    30152.111     4955.401        5.138        2.546      225.916       60.927        0.073      348.703       28.590      856.579
08/18/2014  18:50:00     -185.849      -21.722      -21.235      112.047      108.220       65.823    12554.453    11711.581     4332.677        3.202        1.430      187.115       63.083        0.114      348.667       28.527      856.588
08/18/2014  18:51:00     -216.291       38.905      -26.879       87.773       95.708       53.841     7704.034     9160.054     2898.811        3.439        0.988      219.762       45.378        0.043      348.659       28.513      856.600
08/18/2014  18:52:00     -191.747       32.011      -20.587      119.056      116.329       56.148    14174.443    13532.525     3152.652        3.453        1.543      194.400       56.856        0.086      348.643       28.487      856.591
08/18/2014  18:53:00     -284.726       84.118      -43.512      118.322      143.562       84.079    14000.115    20609.970     7069.250        6.585        2.084      296.892       77.552        0.068      348.577       28.371      856.575
08/18/2014  18:54:00     -365.508       11.278      -34.607      182.870      142.492       77.634    33441.374    20303.911     6027.091        9.733        2.989      365.682       89.477        0.060      348.588       28.390      856.556
08/18/2014  18:55:00     -350.208        3.483      -24.287      176.103      134.549       69.651    31012.311    18103.338     4851.294        8.860        2.698      350.225       69.309        0.039      348.546       28.317      856.556
08/18/2014  18:56:00     -267.755      -33.470      -28.399      140.296       95.877       64.334    19682.910     9192.476     4138.881        5.331        1.651      269.839       54.830        0.041      348.619       28.444      856.556
08/18/2014  18:57:00     -403.274      -79.161      -26.660      141.175      123.236       61.320    19930.302    15187.006     3760.179       10.423        1.944      410.970       60.872        0.022      348.565       28.349      856.570
08/18/2014  18:58:00     -300.420      -80.696      -22.440       77.849      102.586       50.944     6060.477    10523.911     2595.311        5.822        0.959      311.069       29.033        0.009      348.594       28.397      856.577
08/18/2014  18:59:00     -358.949     -107.449      -40.802      173.549       99.144       61.328    30119.426     9829.573     3761.134        9.287        2.186      374.687       58.148        0.024      348.510       28.256      856.621
08/18/2014  19:00:00     -247.027      -31.387      -26.800      121.186      109.854       60.798    14686.160    12067.899     3696.415        4.658        1.523      249.013       27.190        0.012      348.534       28.296      856.613
08/18/2014  19:01:00     -320.667      -61.723      -24.045      127.883      105.297       61.329    16353.976    11087.354     3761.234        6.920        1.560      326.553       55.441        0.029      348.448       28.150      856.633
08/18/2014  19:02:00     -262.237      -84.952       -5.415       77.373       75.947       49.081     5986.592     5767.895     2408.948        4.509        0.708      275.654       30.208        0.012      348.454       28.157      856.652
08/18/2014  19:03:00     -284.423      -77.273      -16.738      142.118       94.929       57.220    20197.574     9011.427     3274.171        5.981        1.624      294.733       67.187        0.052      348.455       28.159      856.666
08/18/2014  19:04:00     -366.041      -50.188      -31.616      103.642       76.409       61.493    10741.735     5838.392     3781.329        7.893        1.018      369.465       52.728        0.020      348.399       28.063      856.681
08/18/2014  19:05:00     -310.593      -20.315      -17.098      156.560       87.095       58.353    24511.014     7585.500     3405.088        6.633        1.775      311.256       66.191        0.045      348.380       28.032      856.698
08/18/2014  19:06:00     -228.317       -0.627      -19.032      108.197       79.999       48.766    11706.534     6399.888     2378.110        3.648        1.024      228.318       42.963        0.035      348.366       28.006      856.712
08/18/2014  19:07:00     -235.528      -17.080      -28.725      104.297       69.895       49.108    10877.763     4885.286     2411.579        3.738        0.909      236.146       17.795        0.006      348.370       28.013      856.718
08/18/2014  19:08:00     -206.640       73.959      -41.481       63.462       79.295       47.387     4027.411     6287.715     2245.516        3.122        0.628      219.477       33.998        0.024      348.360       27.995      856.725
08/18/2014  19:09:00     -224.646      -51.106       -9.516      137.652       93.712       48.621    18948.196     8781.957     2364.015        4.163        1.505      230.386       55.734        0.059      348.360       27.995      856.711
08/18/2014  19:10:00     -253.421      -49.582      -20.346       98.114       68.599       46.890     9626.434     4705.790     2198.693        4.181        0.827      258.226       49.264        0.036      348.323       27.930      856.736
08/18/2014  19:11:00     -184.065       41.458      -18.726       67.582       62.951       38.366     4567.367     3962.843     1471.926        2.297        0.500      188.676       26.209        0.019      348.322       27.932      856.759
08/18/2014  19:12:00     -147.225       -0.291      -17.357       74.877       72.837       33.803     5606.600     5305.246     1142.656        1.701        0.603      147.225       28.640        0.038      348.399       28.065      856.779
08/18/2014  19:13:00      -84.996      -10.153       14.643       94.606       70.135       45.101     8950.291     4918.978     2034.090        1.172        0.795       85.601       56.924        0.442      348.313       27.918      856.814
08/18/2014  19:14:00     -103.488        0.144       -1.128      113.569       75.247       62.747    12897.955     5662.132     3937.138        1.660        1.125      103.488       59.003        0.325      348.335       27.955      856.821
08/18/2014  19:15:00     -248.576       -2.955      -14.183      162.496      116.521       64.027    26404.932    13577.063     4099.520        5.303        2.204      248.594       67.244        0.073      348.311       27.911      856.846
08/18/2014  19:16:00      -92.950       35.442       -6.312       87.034       81.017       59.781     7574.954     6563.797     3573.773        1.382        0.886       99.477       51.215        0.265      348.326       27.939      856.858
08/18/2014  19:17:00     -192.152      121.884      -22.181      126.633      113.132       61.952    16035.949    12798.772     3838.111        4.246        1.634      227.548       51.085        0.050      348.295       27.883      856.869
08/18/2014  19:18:00     -182.470       58.948      -26.711      128.992       78.680       47.796    16638.807     6190.590     2284.459        3.129        1.256      191.755       56.563        0.087      348.300       27.893      856.871
08/18/2014  19:19:00     -138.967       52.970      -12.232       88.219       67.244       38.394     7782.565     4521.745     1474.115        1.802        0.689      148.720       20.431        0.019      348.259       27.823      856.872
08/18/2014  19:20:00     -133.764      105.621      -22.536       98.367       96.048       53.845     9675.969     9225.288     2899.302        2.567        1.090      170.437       46.308        0.074      348.266       27.834      856.909
08/18/2014  19:21:00     -141.554      135.591      -16.631       75.639       95.025       51.555     5721.260     9029.714     2657.882        2.805        0.870      196.016       41.334        0.044      348.258       27.820      856.916
08/18/2014  19:22:00     -164.002       67.572      -29.467      106.677       90.804       41.884    11379.887     8245.313     1754.258        2.685        1.069      177.378       41.655        0.055      348.213       27.742      856.932
08/18/2014  19:23:00     -153.413      191.888      -24.563      104.010      127.902       65.965    10818.094    16358.926     4351.367        4.624        1.576      245.675       52.898        0.046      348.197       27.715      856.944
08/18/2014  19:24:00     -228.170      151.409      -31.803       97.505       70.277       50.286     9507.212     4938.846     2528.711        4.648        0.849      273.836       30.409        0.012      348.169       27.665      856.970
08/18/2014  19:25:00     -256.498       78.579      -35.807       93.996       88.209       45.042     8835.243     7780.757     2028.754        4.594        0.932      268.265       37.131        0.019      348.160       27.650      857.009
08/18/2014  19:26:00     -228.586       80.663      -42.270      124.890       87.072       51.794    15597.582     7581.592     2682.659        4.320        1.293      242.401       55.091        0.052      348.142       27.620      857.020
08/18/2014  19:27:00     -279.008      140.834      -35.325      157.054       94.230       64.935    24665.836     8879.321     4216.584        6.834        1.888      312.537       67.650        0.047      348.100       27.546      857.051
08/18/2014  19:28:00     -204.636       98.143      -37.613      131.845       96.701       67.739    17383.176     9350.995     4588.609        4.212        1.566      226.954       61.320        0.073      348.078       27.507      857.061
08/18/2014  19:29:00     -128.329      100.682       -7.331       95.743      111.514       56.917     9166.628    12435.307     3239.558        2.575        1.242      163.111       53.691        0.108      348.003       27.379      857.090
08/18/2014  19:30:00     -185.413       71.042      -19.498      102.444      104.984       62.618    10494.725    11021.718     3921.064        3.262        1.272      198.557       54.400        0.075      348.022       27.411      857.108
08/18/2014  19:31:00     -191.947       61.479      -30.160      109.695      100.753       55.504    12032.982    10151.178     3080.721        3.339        1.263      201.552       46.635        0.054      348.036       27.436      857.135
08/18/2014  19:32:00     -255.109      136.402      -44.114       89.321       85.608       54.562     7978.229     7328.714     2977.049        5.195        0.914      289.285       46.237        0.026      347.989       27.355      857.163
08/18/2014  19:33:00     -216.815      128.908      -24.149       72.173      103.329       53.064     5208.935    10676.922     2815.766        4.145        0.935      252.242       36.761        0.021      347.968       27.319      857.188
08/18/2014  19:34:00     -144.173       20.824       -9.479       89.957       87.172       51.476     8092.327     7599.030     2649.753        1.982        0.917      145.670       37.198        0.065      347.930       27.254      857.190
08/18/2014  19:35:00     -221.231      -33.620      -24.511      124.053      120.640       70.091    15389.093    14554.022     4912.760        4.276        1.743      223.771       61.940        0.077      347.881       27.168      857.197
08/18/2014  19:36:00     -164.516       -0.424      -27.483      115.573      117.153       57.351    13357.211    13724.927     3289.118        2.909        1.519      164.517       49.961        0.092      347.819       27.061      857.223
08/18/2014  19:37:00     -240.193      -44.464      -22.113      153.959      112.212       49.392    23703.381    12591.621     2439.603        4.944        1.937      244.274       65.160        0.071      347.808       27.045      857.229
08/18/2014  19:38:00     -283.355     -108.974      -29.584      105.235       79.825       54.457    11074.306     6372.043     2965.552        5.672        1.021      303.587       51.377        0.029      347.725       26.898      857.219
08/18/2014  19:39:00     -200.990      -45.033      -15.109       96.416       99.288       51.613     9296.105     9858.051     2663.933        3.223        1.091      205.974       53.728        0.068      347.710       26.873      857.227
08/18/2014  19:40:00     -219.816      -85.713      -17.052       84.605       70.877       48.516     7157.944     5023.526     2353.849        3.524        0.727      235.936       34.618        0.022      347.679       26.819      857.228
08/18/2014  19:41:00     -225.815      -22.268      -10.605       96.890       61.586       47.875     9387.711     3792.800     2292.058        3.353        0.774      226.910       49.748        0.048      347.604       26.691      857.236
08/18/2014  19:42:00     -202.982      -39.591      -11.895       91.457       73.622       43.722     8364.414     5420.133     1911.606        2.930        0.785      206.807       39.365        0.036      347.588       26.663      857.244
08/18/2014  19:43:00     -332.367      -42.856      -14.625      136.685       88.386       61.152    18682.923     7812.077     3739.565        7.137        1.512      335.118       55.688        0.028      347.634       26.742      857.244
08/18/2014  19:44:00     -263.615      -68.200       -3.112      120.941       66.909       51.562    14626.720     4476.759     2658.683        4.795        1.088      272.294       59.916        0.048      347.613       26.706      857.262
08/18/2014  19:45:00     -271.966      -59.022      -12.762       79.724       75.381       45.703     6355.931     5682.346     2088.797        4.587        0.706      278.297       43.347        0.024      347.591       26.667      857.272
08/18/2014  19:46:00     -281.944      -64.996       -9.976      119.842       81.979       44.202    14362.132     6720.499     1953.779        5.342        1.152      289.339       46.169        0.025      347.604       26.690      857.276
08/18/2014  19:47:00     -243.406      -64.641       -1.680      111.917       99.036       53.181    12525.471     9808.121     2828.261        4.429        1.258      251.843       58.250        0.053      347.565       26.623      857.286
08/18/2014  19:48:00     -275.355      -38.614      -11.106      111.430       87.877       52.631    12416.681     7722.436     2770.016        5.017        1.145      278.049       50.250        0.033      347.584       26.656      857.299
08/18/2014  19:49:00     -280.160      -67.373      -13.636      102.703       76.049       42.889    10547.901     5783.475     1839.502        5.069        0.909      288.148       48.775        0.029      347.659       26.784      857.315
08/18/2014  19:50:00     -237.399      -59.409       -3.533      133.953       95.262       57.448    17943.385     9074.866     3300.284        4.510        1.516      244.720       54.242        0.049      347.603       26.688      857.308
08/18/2014  19:51:00     -296.202      -21.120      -22.833      107.244       99.834       51.406    11501.374     9966.764     2642.544        5.640        1.206      296.954       55.130        0.034      347.626       26.729      857.313
08/18/2014  19:52:00     -238.042      -75.753      -22.753       97.115       95.669       48.831     9431.304     9152.548     2384.459        4.194        1.048      249.805       42.599        0.029      347.637       26.747      857.309
08/18/2014  19:53:00     -279.110      -95.519      -10.362      103.542       85.098       46.248    10721.002     7241.713     2138.895        5.361        1.005      295.002       45.985        0.024      347.611       26.702      857.316
08/18/2014  19:54:00     -199.210      -41.180       -1.176       97.727       80.073       46.489     9550.645     6411.670     2161.195        2.975        0.906      203.422       48.737        0.057      347.565       26.623      857.320
08/18/2014  19:55:00     -158.063      -86.275        3.177       99.812       78.898       45.221     9962.421     6224.864     2044.915        2.533        0.912      180.075       46.639        0.067      347.509       26.527      857.321
08/18/2014  19:56:00     -134.855      -70.463       -4.623      112.828       82.493       48.000    12730.198     6805.118     2304.043        2.250        1.092      152.154       47.684        0.098      347.509       26.528      857.316
08/18/2014  19:57:00     -172.435      -96.783       -1.652       91.633       88.981       49.880     8396.530     7917.602     2488.026        2.895        0.940      197.739       51.099        0.067      347.523       26.552      857.318
08/18/2014  19:58:00     -203.764      -32.244       -3.255      100.420       77.705       42.615    10084.216     6038.116     1816.003        3.025        0.897      206.300       45.219        0.048      347.499       26.509      857.324
08/18/2014  19:59:00     -352.142      -63.607      -30.476      162.595       88.627       60.983    26437.268     7854.775     3718.898        8.349        1.901      357.841       79.822        0.050      347.522       26.549      857.311
08/18/2014  20:00:00     -229.907      -41.478       -5.957      117.028       90.740       38.942    13695.483     8233.790     1516.505        3.902        1.172      233.619       46.390        0.039      347.509       26.526      857.325
08/18/2014  20:01:00     -190.544      -77.283        7.817      149.151       91.893       55.296    22245.873     8444.237     3057.668        3.804        1.687      205.620       68.689        0.112      347.432       26.396      857.318
08/18/2014  20:02:00     -176.515      -89.335       -5.364      120.047      144.532       66.812    14411.349    20889.447     4463.790        3.946        1.988      197.834       63.535        0.103      347.474       26.466      857.318
08/18/2014  20:03:00     -145.657      -38.873       19.291      131.840       74.628       54.248    17381.759     5569.380     2942.848        2.449        1.295      150.755       67.324        0.199      347.374       26.295      857.333
08/18/2014  20:04:00     -231.444       -2.409       -7.386       93.581       81.907       53.561     8757.435     6708.791     2868.797        3.598        0.917      231.457       41.586        0.032      347.445       26.415      857.335
08/18/2014  20:05:00     -210.484      -38.063       -3.539      152.487      110.494       60.715    23252.157    12208.967     3686.309        4.245        1.957      213.898       69.876        0.107      347.401       26.341      857.333
08/18/2014  20:06:00     -306.836     -123.744      -17.017      154.144       96.138       66.489    23760.444     9242.436     4420.777        7.358        1.871      330.849       74.445        0.051      347.438       26.403      857.337
08/18/2014  20:07:00     -300.100     -115.604       -7.768      130.068      129.679       64.215    16917.664    16816.585     4123.603        7.066        1.893      321.597       58.794        0.033      347.423       26.377      857.349
08/18/2014  20:08:00     -207.671     -157.860        2.265      153.584      130.218       88.046    23587.934    16956.796     7752.025        5.816        2.415      260.858       87.562        0.113      347.353       26.258      857.347
08/18/2014  20:09:00     -242.963      -97.294        4.630      128.965      109.387       64.650    16631.870    11965.542     4179.589        5.064        1.639      261.720       59.089        0.051      347.399       26.337      857.352
08/18/2014  20:10:00     -158.791      -49.707       -1.992      117.856       99.734       51.336    13889.989     9946.924     2635.430        2.708        1.324      166.389       54.829        0.109      347.395       26.330      857.351
08/18/2014  20:11:00     -197.942     -115.511        9.500      150.699      115.524       65.065    22710.322    13345.803     4233.470        4.644        2.014      229.181       77.946        0.116      347.368       26.283      857.333
08/18/2014  20:12:00     -320.883     -168.217      -17.036      106.017      118.867       63.019    11239.598    14129.348     3971.400        8.044        1.467      362.302       50.456        0.019      347.389       26.318      857.339
08/18/2014  20:13:00     -207.543     -135.720        4.295      120.277      101.210       75.254    14466.528    10243.436     5663.235        4.594        1.519      247.980       68.341        0.076      347.335       26.225      857.333
08/18/2014  20:14:00     -322.083     -191.722      -16.603      123.707      106.101       67.779    15303.316    11257.351     4594.045        8.596        1.558      374.826       63.395        0.029      347.332       26.221      857.321
08/18/2014  20:15:00     -250.226     -175.516       -9.525      177.178      110.566       73.413    31391.989    12224.907     5389.522        7.125        2.450      305.645       87.222        0.081      347.343       26.240      857.314
08/18/2014  20:16:00     -286.602     -111.820       -9.226      159.131      111.374       62.991    25322.654    12404.108     3967.921        6.820        2.085      307.644       69.249        0.051      347.320       26.200      857.310
08/18/2014  20:17:00     -198.905      -82.554       11.541      153.564      100.672       70.055    23581.924    10134.826     4907.732        4.256        1.931      215.357       85.028        0.156      347.293       26.155      857.307
08/18/2014  20:18:00     -262.632     -121.564        6.106      184.115      131.349       71.718    33898.228    17252.543     5143.427        7.003        2.815      289.401       84.994        0.086      347.285       26.140      857.301
08/18/2014  20:19:00     -104.527      -61.342       12.819      160.968      110.973       58.106    25910.757    12314.961     3376.336        2.822        2.080      121.197       76.390        0.397      347.120       25.858      857.289
08/18/2014  20:20:00     -276.691     -135.148       -2.693      132.066      129.750       71.752    17441.382    16835.058     5148.320        6.712        1.971      307.933       74.234        0.058      347.216       26.019      857.289
08/18/2014  20:21:00     -286.426     -148.195       12.404      153.004      112.399       68.139    23410.212    12633.561     4642.986        7.241        2.034      322.492       71.373        0.049      347.188       25.972      857.303
08/18/2014  20:22:00     -260.108     -124.284       -7.407      148.192      115.941       75.720    21960.964    13442.315     5733.553        6.214        2.057      288.275       78.687        0.075      347.150       25.909      857.317
08/18/2014  20:23:00     -213.640     -139.883       -5.039      111.590       92.765       65.197    12452.395     8605.355     4250.587        4.527        1.265      255.361       49.612        0.038      347.136       25.883      857.331
08/18/2014  20:24:00     -302.220     -106.408      -19.094      145.497      138.044       73.828    21169.357    19056.104     5450.632        7.434        2.284      320.405       71.549        0.050      347.135       25.883      857.339
08/18/2014  20:25:00     -278.365     -108.974       -0.602      156.164      125.481       63.661    24387.074    15745.562     4052.781        6.677        2.209      298.936       66.782        0.050      347.106       25.833      857.361
08/18/2014  20:26:00     -256.660      -95.764      -13.522      105.467      113.124       52.909    11123.246    12797.143     2799.392        5.097        1.336      273.944       45.167        0.027      347.087       25.799      857.373
08/18/2014  20:27:00     -386.176      -38.730       -9.311      214.636      118.201       78.753    46068.809    13971.403     6202.073       10.847        3.312      388.113      102.903        0.070      347.072       25.773      857.352
08/18/2014  20:28:00     -223.390     -136.453        8.338      110.912      117.142       63.554    12301.559    13722.210     4039.064        4.932        1.503      261.768       65.712        0.063      347.054       25.741      857.365
08/18/2014  20:29:00     -199.567     -134.858       10.529      159.696      136.930       80.267    25502.654    18749.869     6442.823        5.440        2.535      240.860       93.940        0.152      347.008       25.665      857.355
08/18/2014  20:30:00     -267.833     -101.727       -9.253      199.050      104.119       72.555    39620.890    10840.674     5264.191        6.894        2.786      286.502       79.339        0.077      347.015       25.675      857.346
08/18/2014  20:31:00     -292.973     -138.521       -6.370      159.373      107.746       63.778    25399.894    11609.128     4067.574        7.306        2.054      324.070       73.017        0.051      346.990       25.634      857.346
08/18/2014  20:32:00     -389.851     -154.547      -20.579      190.822      146.978       70.449    36413.200    21602.635     4963.024       11.962        3.149      419.367       72.773        0.030      346.999       25.648      857.357
08/18/2014  20:33:00     -282.534      -86.711        9.100      190.809      134.376       77.713    36407.943    18056.925     6039.328        7.395        3.025      295.541       85.780        0.084      346.957       25.576      857.353
08/18/2014  20:34:00     -275.693      -97.146       -3.963      171.329      149.358       82.883    29353.745    22307.821     6869.598        7.198        2.927      292.308       87.443        0.089      346.969       25.597      857.356
08/18/2014  20:35:00     -333.710     -154.430       -1.966      149.321      143.530       70.285    22296.723    20600.963     4939.982        9.152        2.392      367.710       80.830        0.048      346.936       25.539      857.375
08/18/2014  20:36:00     -379.438      -90.509      -23.209      115.089      125.811       63.319    13245.409    15828.451     4009.277        9.289        1.654      390.084       57.249        0.022      346.949       25.561      857.408
08/18/2014  20:37:00     -303.249      -47.816       -4.569      126.035      118.279       64.749    15884.878    13989.916     4192.369        6.416        1.703      306.995       66.333        0.047      346.916       25.506      857.439
08/18/2014  20:38:00     -381.566      -11.593      -33.065      169.315      109.906       71.285    28667.604    12079.318     5081.550        9.632        2.291      381.742       67.907        0.032      346.938       25.542      857.449
08/18/2014  20:39:00     -158.175     -102.752       -6.389      120.390      121.759       57.601    14493.819    14825.135     3317.926        3.412        1.632      188.620       62.573        0.110      346.886       25.453      857.464
08/18/2014  20:40:00     -283.569      -78.283      -12.400      138.225      102.660       60.427    19106.093    10539.028     3651.453        5.999        1.665      294.176       70.947        0.058      346.906       25.488      857.470
08/18/2014  20:41:00     -267.972      -83.709      -19.134       89.778      104.495       55.629     8060.058    10919.219     3094.640        5.062        1.104      280.742       33.019        0.014      346.882       25.444      857.491
08/18/2014  20:42:00     -220.175      -44.926      -13.030      121.809       85.858       48.177    14837.342     7371.637     2321.063        3.759        1.227      224.712       34.890        0.024      346.863       25.414      857.499
08/18/2014  20:43:00     -284.282      -20.219       -9.106      183.827       91.684       67.938    33792.289     8405.976     4615.542        6.405        2.341      285.000       83.942        0.087      346.838       25.372      857.508
08/18/2014  20:44:00     -327.206      -55.633      -22.666       93.855      109.700       54.602     8808.700    12034.114     2981.410        6.724        1.191      331.902       41.151        0.015      346.855       25.397      857.537
08/18/2014  20:45:00     -285.683       -5.635      -14.606      128.862      101.132       53.727    16605.386    10227.640     2886.564        5.578        1.486      285.739       52.867        0.034      346.822       25.343      857.559
08/18/2014  20:46:00     -354.853     -102.950      -22.764      135.858      119.374       62.514    18457.267    14250.162     3908.028        8.682        1.831      369.485       66.118        0.032      346.838       25.371      857.589
08/18/2014  20:47:00     -327.851      -13.456      -25.419      125.881       95.904       46.963    15846.121     9197.649     2205.536        6.778        1.362      328.127       47.380        0.021      346.804       25.312      857.600
08/18/2014  20:48:00     -298.140      -94.098      -12.414       99.363       79.293       58.139     9873.008     6287.347     3380.100        5.871        0.977      312.637       57.532        0.034      346.761       25.237      857.617
08/18/2014  20:49:00     -249.994      -80.684       -0.828       99.946       91.063       49.774     9989.152     8292.509     2477.436        4.488        1.038      262.691       45.990        0.031      346.763       25.241      857.600
08/18/2014  20:50:00     -181.080       40.334      -29.046       97.914      108.713       55.910     9587.193    11818.479     3125.889        2.989        1.227      185.517       50.095        0.073      346.712       25.153      857.609
08/18/2014  20:51:00     -156.725       17.171      -23.036       74.989       59.036       44.058     5623.298     3485.207     1941.113        1.822        0.552      157.663       38.864        0.061      346.656       25.057      857.609
08/18/2014  20:52:00     -147.307       42.131       -7.772      133.084       71.355       54.309    17711.398     5091.481     2949.449        2.464        1.288      153.214       67.391        0.193      346.614       24.986      857.594
08/18/2014  20:53:00     -256.325      -26.627      -35.594       74.164       73.752       35.975     5500.351     5439.376     1294.233        3.995        0.612      257.704       32.109        0.016      346.635       25.021      857.606
08/18/2014  20:54:00     -243.811      -43.342      -30.586       93.516       83.063       40.980     8745.242     6899.471     1679.329        3.979        0.866      247.634       23.204        0.009      346.548       24.873      857.623
08/18/2014  20:55:00     -276.362      -69.252      -21.560       69.740       72.717       40.577     4863.676     5287.731     1646.505        4.671        0.590      284.907       37.910        0.018      346.508       24.804      857.617
08/18/2014  20:56:00     -205.294      -17.550      -18.937       89.397       78.175       41.465     7991.817     6111.272     1719.324        2.931        0.791      206.043       34.503        0.028      346.523       24.829      857.629
08/18/2014  20:57:00     -365.328       29.103      -19.738      111.399      106.226       60.428    12409.719    11284.024     3651.504        8.102        1.367      366.485       58.967        0.026      346.615       24.987      857.622
08/18/2014  20:58:00     -477.354       -0.161      -35.451      138.833      100.601       60.933    19274.642    10120.609     3712.846       13.111        1.655      477.354       68.255        0.020      346.662       25.067      857.628
08/18/2014  20:59:00     -318.717      -18.519      -21.798       96.214      102.175       57.535     9257.190    10439.750     3310.329        6.270        1.150      319.255       37.556        0.014      346.586       24.936      857.639
08/18/2014  21:00:00     -250.379      -22.742        3.699      163.962      118.241       72.807    26883.387    13980.853     5300.837        5.468        2.308      251.410       80.849        0.103      346.622       25.001      857.643
08/18/2014  21:01:00     -293.803      -33.333      -11.238      137.026      104.897       57.023    18776.100    11003.380     3251.631        6.029        1.652      295.688       57.630        0.038      346.640       25.030      857.630
08/18/2014  21:02:00     -325.588      -60.851      -16.687      148.577      145.610       71.768    22074.977    21202.270     5150.681        7.920        2.421      331.225       62.212        0.035      346.651       25.049      857.630
08/18/2014  21:03:00     -353.270      -61.263       -7.617      171.823      124.277       78.822    29523.224    15444.738     6212.872        8.989        2.559      358.542       88.369        0.061      346.664       25.070      857.634
08/18/2014  21:04:00     -430.867      -90.418      -17.621      131.970      142.942       66.519    17416.021    20432.370     4424.817       11.819        2.114      440.252       60.492        0.019      346.670       25.080      857.638
08/18/2014  21:05:00     -340.670      -79.215      -18.176      109.735      106.906       60.744    12041.793    11428.972     3689.792        7.491        1.358      349.758       43.627        0.016      346.663       25.069      857.643
08/18/2014  21:06:00     -359.274      -61.847       -2.487      189.256      115.612       78.026    35817.761    13366.034     6088.117        9.408        2.764      364.558       94.232        0.067      346.650       25.048      857.624
08/18/2014  21:07:00     -354.811      -96.119      -24.851      134.052      125.575       63.617    17969.924    15769.025     4047.131        8.676        1.889      367.600       50.503        0.019      346.673       25.085      857.624
08/18/2014  21:08:00     -405.608     -154.982      -13.656      160.910      121.366       65.643    25892.169    14729.663     4309.052       11.682        2.247      434.209       67.628        0.024      346.668       25.078      857.627
08/18/2014  21:09:00     -341.052      -93.535       -3.890      141.825      120.112       61.356    20114.434    14426.820     3764.577        8.169        1.915      353.645       68.033        0.037      346.656       25.057      857.610
08/18/2014  21:10:00     -336.156     -103.565       -0.096      121.716      119.929       60.947    14814.876    14383.008     3714.582        7.831        1.646      351.748       67.090        0.036      346.625       25.003      857.614
08/18/2014  21:11:00     -291.701      -82.048      -13.866      113.928      117.842       63.075    12979.485    13886.845     3978.424        6.142        1.542      303.020       60.505        0.040      346.603       24.966      857.596
08/18/2014  21:12:00     -238.578      -71.268       -5.569      161.196      128.239       61.131    25984.280    16445.304     3736.945        5.409        2.308      248.995       72.993        0.086      346.537       24.853      857.577
08/18/2014  21:13:00     -440.021      -23.646      -13.816      171.606      101.404       82.734    29448.599    10282.822     6844.930       12.046        2.329      440.656       91.078        0.043      346.600       24.961      857.586
08/18/2014  21:14:00     -370.229      -89.948      -28.578      164.316      103.484       69.581    26999.836    10709.010     4841.466        9.426        2.128      380.999       69.099        0.033      346.583       24.931      857.606
08/18/2014  21:15:00     -380.990      -19.102      -24.690      165.267      131.534       70.863    27313.056    17301.088     5021.635        9.787        2.482      381.468       76.640        0.040      346.583       24.930      857.602
08/18/2014  21:16:00     -414.424       35.340      -22.837      133.826      161.060       68.383    17909.315    25940.370     4676.171       11.101        2.426      415.928       57.136        0.019      346.567       24.906      857.599
08/18/2014  21:17:00     -295.940      -25.392      -16.069      139.743      123.302       67.622    19528.029    15203.273     4572.800        6.389        1.965      297.027       66.174        0.050      346.524       24.829      857.606
08/18/2014  21:18:00     -425.401      -25.443      -24.988      145.180      127.864       70.376    21077.328    16349.295     4952.813       11.230        2.119      426.161       74.961        0.031      346.531       24.842      857.631
08/18/2014  21:19:00     -305.655      -42.481      -11.182      138.056      103.555       67.096    19059.406    10723.565     4501.913        6.481        1.714      308.593       70.504        0.052      346.495       24.781      857.654
08/18/2014  21:20:00     -360.292      -58.692      -23.191      172.378      137.652       67.233    29714.266    18947.970     4520.239        9.348        2.659      365.041       73.616        0.041      346.467       24.732      857.662
08/18/2014  21:21:00     -282.883      -36.173       -9.402      117.531       94.580       55.750    13813.552     8945.358     3108.038        5.364        1.293      285.187       54.878        0.037      346.437       24.682      857.676
08/18/2014  21:22:00     -323.704      -42.873      -16.596      138.294       93.187       55.362    19125.213     8683.900     3064.964        6.888        1.544      326.531       63.225        0.037      346.454       24.708      857.673
08/18/2014  21:23:00     -288.100     -134.035       -9.249      108.920       94.028       59.542    11863.531     8841.351     3545.232        6.265        1.213      317.753       56.926        0.032      346.453       24.707      857.682
08/18/2014  21:24:00     -353.874      -36.229      -27.499      134.433       77.547       54.080    18072.284     6013.555     2924.619        7.715        1.351      355.723       58.896        0.027      346.413       24.640      857.684
08/18/2014  21:25:00     -399.121      -72.836      -22.829      109.495      109.514       51.423    11989.047    11993.228     2644.345        9.587        1.331      405.712       41.916        0.011      346.430       24.669      857.694
08/18/2014  21:26:00     -348.543      -11.178      -26.492       99.855      104.591       65.818     9970.944    10939.238     4332.064        7.377        1.262      348.723       50.081        0.021      346.395       24.607      857.711
08/18/2014  21:27:00     -283.210      -22.726      -16.242      124.751      101.045       61.624    15562.835    10210.154     3797.460        5.527        1.479      284.121       70.266        0.061      346.379       24.581      857.711
08/18/2014  21:28:00     -360.929      -91.777       -7.188      160.991      102.326       62.484    25918.161    10470.547     3904.280        8.951        2.015      372.415       63.747        0.029      346.369       24.564      857.723
08/18/2014  21:29:00     -359.952      -42.492      -18.369      162.466      122.633       72.554    26395.110    15038.746     5264.087        8.919        2.335      362.451       77.901        0.046      346.375       24.573      857.726
08/18/2014  21:30:00     -418.365     -112.592       -4.875      166.524       99.058       78.042    27730.297     9812.461     6090.482       11.567        2.182      433.251       81.217        0.035      346.356       24.541      857.731
08/18/2014  21:31:00     -288.123     -106.582       -9.168      116.057       95.373       56.964    13469.306     9096.017     3244.864        6.013        1.291      307.205       65.614        0.046      346.333       24.502      857.730
08/18/2014  21:32:00     -358.672      -99.301      -26.427      193.037      161.336       67.316    37263.453    26029.189     4531.474       10.350        3.391      372.164       83.786        0.051      346.344       24.520      857.726
08/18/2014  21:33:00     -506.440      -94.086      -26.986      190.683      104.427       77.349    36360.127    10904.961     5982.818       15.964        2.662      515.106       83.080        0.026      346.375       24.573      857.723
08/18/2014  21:34:00     -330.322     -132.243      -16.916      158.754      111.291       79.392    25202.945    12385.672     6303.133        8.538        2.195      355.810       75.794        0.045      346.340       24.514      857.709
08/18/2014  21:35:00     -323.790     -115.936      -23.723      129.321      118.351       62.704    16724.015    14006.909     3931.817        7.675        1.733      343.920       62.035        0.033      346.326       24.489      857.735
08/18/2014  21:36:00     -370.109      -16.103      -40.304      144.967      110.030       58.282    21015.533    12106.568     3396.826        8.768        1.826      370.459       60.199        0.026      346.374       24.573      857.730
08/18/2014  21:37:00     -427.271     -104.732      -34.785      121.303       93.266       58.354    14714.369     8698.587     3405.148       11.077        1.341      439.919       56.793        0.017      346.349       24.528      857.718
08/18/2014  21:38:00     -339.897      -75.366      -16.231      141.061      112.047       62.921    19898.276    12554.569     3959.106        7.894        1.821      348.153       64.748        0.035      346.275       24.402      857.740
08/18/2014  21:39:00     -466.230      -75.718      -16.586      219.016      147.216       82.466    47967.818    21672.455     6800.669       14.989        3.822      472.338      104.057        0.049      346.369       24.561      857.732
08/18/2014  21:40:00     -436.486      -18.612      -35.463      147.249      111.835       66.841    21682.233    12507.124     4467.775       11.538        1.933      436.883       60.678        0.019      346.368       24.562      857.745
08/18/2014  21:41:00     -445.744      -42.338      -24.053      183.042      138.729       86.690    33504.248    19245.856     7515.206       13.065        3.013      447.750       91.911        0.042      346.377       24.575      857.742
08/18/2014  21:42:00     -411.942      -29.956      -40.946      151.362      103.599       62.281    22910.586    10732.812     3878.892       10.489        1.876      413.030       57.571        0.019      346.382       24.585      857.747
08/18/2014  21:43:00     -377.629       56.846      -21.533      152.802      108.631       60.719    23348.353    11800.619     3686.842        9.256        1.942      381.883       57.700        0.023      346.344       24.521      857.735
08/18/2014  21:44:00     -394.002       61.519      -39.471      143.755      102.894       57.880    20665.641    10587.277     3350.149        9.758        1.730      398.776       59.138        0.022      346.303       24.450      857.744
08/18/2014  21:45:00     -327.545       16.012      -30.362      103.001       87.136       44.790    10609.252     7592.722     2006.152        6.433        1.010      327.936       40.017        0.015      346.260       24.374      857.744
08/18/2014  21:46:00     -398.355       20.805      -24.806      142.705      131.370       62.099    20364.681    17258.171     3856.290       10.060        2.074      398.898       58.635        0.022      346.277       24.406      857.726
08/18/2014  21:47:00     -214.787      -56.508       -3.285      122.591       80.156       46.914    15028.599     6424.965     2200.901        3.649        1.183      222.096       50.406        0.052      346.199       24.271      857.727
08/18/2014  21:48:00     -153.811     -102.762       -1.690      130.621      104.079       65.481    17061.771    10832.497     4287.768        3.320        1.609      184.981       66.816        0.130      346.182       24.242      857.738
08/18/2014  21:49:00     -217.547      -63.354        8.359      137.237      121.669       73.413    18833.986    14803.276     5389.508        4.521        1.951      226.584       69.937        0.095      346.203       24.278      857.731
08/18/2014  21:50:00     -322.904      -52.223      -18.695      174.278      109.045       72.620    30372.840    11890.808     5273.615        7.743        2.377      327.100       84.126        0.066      346.228       24.321      857.722
08/18/2014  21:51:00     -306.665     -132.030       -1.920      146.141      115.044       69.736    21357.136    13235.122     4863.140        7.546        1.973      333.879       68.843        0.043      346.201       24.274      857.744
08/18/2014  21:52:00     -320.264     -110.180      -18.902      118.494       96.807       67.658    14040.760     9371.572     4577.567        7.152        1.399      338.687       65.380        0.037      346.219       24.304      857.728
08/18/2014  21:53:00     -358.673      -33.030       -6.756      121.139      112.292       66.219    14674.582    12609.497     4385.020        8.072        1.583      360.191       62.919        0.031      346.228       24.320      857.710
08/18/2014  21:54:00     -220.374      -41.455      -22.525      145.551      101.758       53.872    21185.005    10354.708     2902.222        4.261        1.722      224.240       61.261        0.075      346.190       24.254      857.714
08/18/2014  21:55:00     -268.696      -56.164       -0.435      127.449      100.435       51.187    16243.252    10087.220     2620.062        5.215        1.448      274.503       45.401        0.027      346.148       24.184      857.717
08/18/2014  21:56:00     -329.543     -103.316      -24.095       91.191       85.842       49.930     8315.877     7368.845     2493.022        6.901        0.909      345.359       39.163        0.013      346.155       24.197      857.719
08/18/2014  21:57:00     -320.998      -65.605       -2.682      127.241      110.366       56.899    16190.276    12180.609     3237.468        6.947        1.580      327.634       56.334        0.030      346.140       24.168      857.703
08/18/2014  21:58:00     -416.880      -11.328      -36.846      114.905      103.621       64.103    13203.181    10737.279     4109.148       10.166        1.402      417.034       61.551        0.022      346.138       24.165      857.693
08/18/2014  21:59:00     -377.186      -88.778      -19.107      142.919       98.528       68.150    20425.962     9707.701     4644.480        9.264        1.739      387.493       70.370        0.033      346.126       24.146      857.680
08/18/2014  22:00:00     -363.520      -11.657      -25.233      152.426      122.345       64.473    23233.580    14968.382     4156.742        8.763        2.118      363.707       68.797        0.036      346.095       24.092      857.680
08/18/2014  22:01:00     -359.373     -108.890       -4.884      157.663      130.670       69.665    24857.468    17074.626     4853.156        9.390        2.339      375.508       79.103        0.044      346.089       24.081      857.682
08/18/2014  22:02:00     -345.680      -78.511      -29.441      146.313      120.311       69.574    21407.556    14474.742     4840.477        8.362        2.036      354.484       70.450        0.039      346.113       24.125      857.660
08/18/2014  22:03:00     -277.393      -18.298      -12.216      120.837      100.344       67.782    14601.495    10068.862     4594.423        5.334        1.463      277.996       71.674        0.066      346.064       24.039      857.653
08/18/2014  22:04:00     -281.281      -55.946       -4.832      148.727      100.122       62.569    22119.838    10024.329     3914.872        5.916        1.803      286.790       70.986        0.061      346.036       23.991      857.666
08/18/2014  22:05:00     -287.211       42.078       -9.068      157.665      131.339       62.911    24858.229    17250.054     3957.857        6.520        2.303      290.277       64.462        0.049      346.027       23.976      857.675
08/18/2014  22:06:00     -227.928      -63.716        5.016      125.028       89.592       60.353    15632.006     8026.807     3642.429        4.166        1.365      236.667       67.302        0.081      346.027       23.976      857.669
08/18/2014  22:07:00     -307.377      -58.228       -4.730      138.803       98.772       67.565    19266.276     9755.964     4565.088        6.573        1.679      312.843       58.506        0.035      346.079       24.066      857.675
08/18/2014  22:08:00     -361.772      -27.884      -23.420      160.399      103.153       64.584    25727.776    10640.527     4171.061        8.636        2.027      362.845       75.801        0.044      346.069       24.046      857.674
08/18/2014  22:09:00     -306.591     -108.021      -12.323      168.666      116.526       70.651    28448.206    13578.256     4991.530        7.641        2.351      325.064       79.875        0.060      346.039       23.996      857.675
08/18/2014  22:10:00     -203.810      -40.927      -10.894       89.582      110.038       53.719     8024.932    12108.323     2885.710        3.317        1.151      207.879       46.192        0.049      346.039       23.998      857.693
08/18/2014  22:11:00     -225.488      -90.532       -2.052      104.338      103.235       56.515    10886.421    10657.376     3193.922        4.189        1.237      242.984       44.785        0.034      346.016       23.958      857.696
08/18/2014  22:12:00     -340.736      -90.417      -16.405      145.732      103.016       63.727    21237.752    10612.384     4061.146        8.022        1.796      352.528       70.609        0.040      346.013       23.951      857.697
08/18/2014  22:13:00     -199.388      -46.451      -17.264      105.510       62.364       41.396    11132.331     3889.287     1713.639        2.947        0.837      204.727       44.761        0.048      346.020       23.965      857.684
08/18/2014  22:14:00     -207.170      -50.807        8.937      206.316      123.292       66.495    42566.394    15200.973     4421.524        5.387        3.109      213.309       82.156        0.148      346.013       23.953      857.673
08/18/2014  22:15:00     -259.387      -65.178        1.368      183.743      115.645       74.831    33761.355    13373.766     5599.673        6.212        2.637      267.450       83.991        0.099      346.026       23.976      857.655
08/18/2014  22:16:00     -352.558      -19.186      -13.492      167.295      172.332       66.374    27987.531    29698.325     4405.507        9.346        3.105      353.079       54.132        0.024      346.062       24.037      857.640
08/18/2014  22:17:00     -219.260      -40.521      -12.637      126.372       85.651       52.606    15969.767     7336.065     2767.410        3.797        1.304      222.973       57.963        0.068      346.016       23.956      857.626
08/18/2014  22:18:00     -350.528      -17.041       -8.169      136.418      118.320       73.873    18609.990    13999.512     5457.274        8.064        1.903      350.942       67.173        0.037      346.000       23.929      857.610
08/18/2014  22:19:00     -220.698     -118.277        2.735      160.810      109.445       77.408    25859.905    11978.145     5991.941        5.326        2.191      250.394       81.658        0.106      346.003       23.936      857.603
08/18/2014  22:20:00     -254.670      -74.628       -2.271      203.946      157.038       90.367    41593.872    24660.891     8166.107        7.241        3.721      265.379       89.312        0.113      346.043       24.004      857.584
08/18/2014  22:21:00     -363.670     -156.018       -1.875      211.652      146.172       80.430    44796.713    21366.336     6468.931       11.460        3.632      395.724       97.069        0.060      346.024       23.971      857.590
08/18/2014  22:22:00     -241.648      -26.431        4.513      176.683      122.736       71.958    31216.882    15064.073     5177.908        5.528        2.573      243.089       76.529        0.099      345.974       23.886      857.563
08/18/2014  22:23:00     -219.315      -88.964      -13.621      140.532      142.476       75.412    19749.294    20299.377     5686.970        5.096        2.287      236.672       77.403        0.107      346.000       23.929      857.556
08/18/2014  22:24:00     -219.347      -88.282       23.432      161.504      165.876       76.695    26083.628    27514.807     5882.145        5.796        2.974      236.446       87.182        0.136      346.001       23.931      857.563
08/18/2014  22:25:00     -308.918     -122.409       -0.973      199.883      154.206       84.163    39953.066    23779.485     7083.470        9.060        3.541      332.286       96.622        0.085      345.993       23.919      857.554
08/18/2014  22:26:00     -379.569      -25.144      -22.844      282.392      141.667       92.845    79745.172    20069.508     8620.244       12.681        5.422      380.401      124.100        0.106      345.994       23.920      857.580
08/18/2014  22:27:00     -411.272     -159.116      -26.589      190.983      114.165       68.841    36474.437    13033.639     4739.092       12.470        2.712      440.979       72.355        0.027      345.982       23.900      857.574
08/18/2014  22:28:00     -313.866     -100.824        1.469      138.962      131.836       59.527    19310.535    17380.760     3543.508        7.445        2.012      329.663       60.971        0.034      345.956       23.854      857.556
08/18/2014  22:29:00     -217.572     -106.571       11.098      196.523      128.305       80.027    38621.381    16462.295     6404.360        6.014        3.074      242.270       80.948        0.112      345.922       23.796      857.559
08/18/2014  22:30:00     -297.045     -116.751        5.453      140.598      137.372       77.434    19767.917    18870.985     5995.988        7.326        2.232      319.165       62.066        0.038      345.906       23.768      857.576
08/18/2014  22:31:00     -354.297      -85.669       -7.182      213.751      121.790       80.929    45689.304    14832.772     6549.581        9.998        3.354      364.507       87.060        0.057      345.900       23.758      857.581
08/18/2014  22:32:00     -235.827      -67.997      -12.436      189.677      128.278       74.491    35977.404    16455.359     5548.884        5.918        2.899      245.434       93.887        0.146      345.916       23.785      857.557
08/18/2014  22:33:00     -224.815      -49.355       -3.966      186.253      112.556       58.198    34690.263    12668.823     3387.052        5.186        2.537      230.169       72.495        0.099      345.853       23.679      857.584
08/18/2014  22:34:00     -396.084      -39.431      -41.604      162.437      125.211       72.332    26385.671    15677.828     5231.920       10.372        2.365      398.042       78.911        0.039      345.901       23.759      857.578
08/18/2014  22:35:00     -193.587      -69.149       -2.960      145.181      121.381       67.178    21077.388    14733.288     4512.911        4.129        2.016      205.567       68.467        0.111      345.824       23.629      857.577
08/18/2014  22:36:00     -323.699     -133.352        3.099      195.607      212.433       95.532    38262.247    45127.580     9126.384       10.753        4.626      350.091       95.161        0.074      345.880       23.725      857.561
08/18/2014  22:37:00     -399.354     -152.548      -29.086      151.647      173.961       86.949    22996.907    30262.300     7560.096       12.220        3.041      427.498       77.847        0.033      345.886       23.735      857.575
08/18/2014  22:38:00     -184.008     -105.012       20.399      188.084      186.615       79.552    35375.748    34824.981     6328.455        6.090        3.826      211.864      110.782        0.273      345.834       23.646      857.559
08/18/2014  22:39:00     -339.907     -131.528        5.965      247.151      169.926       81.382    61083.413    28874.698     6623.097       11.471        4.829      364.467       98.740        0.073      345.848       23.669      857.562
08/18/2014  22:40:00     -381.388     -224.614       -9.135      191.370      133.253       76.212    36622.421    17756.292     5808.203       12.808        3.009      442.615       83.185        0.035      345.878       23.721      857.557
08/18/2014  22:41:00     -239.155      -69.962        9.818      151.803       95.350       63.312    23044.229     9091.704     4008.433        4.916        1.807      249.179       76.421        0.094      345.815       23.612      857.569
08/18/2014  22:42:00     -395.715     -144.394      -14.432      164.921      157.638       80.190    27198.797    24849.678     6430.438       11.805        2.924      421.237       85.522        0.041      345.838       23.652      857.584
08/18/2014  22:43:00     -254.463      -37.814       -1.771      147.575      117.675       61.930    21778.414    13847.415     3835.316        5.282        1.973      257.258       68.698        0.071      345.793       23.574      857.599
08/18/2014  22:44:00     -500.597      -22.715      -38.214      146.794      134.139       75.485    21548.509    17993.164     5697.919       14.890        2.262      501.112       80.329        0.026      345.840       23.655      857.571
08/18/2014  22:45:00     -313.178      -76.942       -4.545      156.334      185.886       76.157    24440.404    34553.519     5799.946        8.439        3.240      322.492       83.207        0.067      345.775       23.543      857.560
08/18/2014  22:46:00     -321.831      -33.972       -2.170      188.669      146.907       72.509    35595.821    21581.549     5257.498        8.357        3.122      323.619       86.810        0.072      345.768       23.532      857.554
08/18/2014  22:47:00     -287.147     -197.297        9.599      212.080      177.619       92.019    44977.966    31548.338     8467.472       10.322        4.250      348.395      111.452        0.102      345.757       23.514      857.515
08/18/2014  22:48:00     -331.356     -135.893      -23.221      238.869      170.260      106.485    57058.278    28988.482    11339.151       11.308        4.869      358.139       93.483        0.068      345.812       23.607      857.505
08/18/2014  22:49:00     -279.753      -56.803       13.784      275.008      176.098       98.898    75629.201    31010.392     9780.875        9.903        5.821      285.462      122.345        0.184      345.758       23.515      857.494
08/18/2014  22:50:00     -370.611      -63.646      -23.489      162.663      113.156       75.975    26459.306    12804.245     5772.195        9.349        2.252      376.036       76.889        0.042      345.787       23.565      857.515
08/18/2014  22:51:00     -395.448      -50.091      -28.466      178.166      123.790       71.265    31743.256    15324.074     5078.738       10.591        2.607      398.608       81.845        0.042      345.814       23.610      857.513
08/18/2014  22:52:00     -454.161      -61.429      -23.081      204.048      183.216       91.218    41635.601    33568.025     8320.654       14.703        4.176      458.296       93.419        0.042      345.755       23.510      857.492
08/18/2014  22:53:00     -381.419      -71.488      -15.754      179.009      161.765       90.735    32044.282    26167.938     8232.882       10.863        3.322      388.060       98.528        0.064      345.752       23.504      857.510
08/18/2014  22:54:00     -339.533     -189.155      -15.706      170.077      145.823       70.778    28926.216    21264.353     5009.584       10.324        2.760      388.668       72.261        0.035      345.743       23.490      857.511
08/18/2014  22:55:00     -374.373     -164.270      -19.884      195.270      135.755       77.421    38130.467    18429.467     5994.064       11.503        3.128      408.827       73.394        0.032      345.759       23.515      857.499
08/18/2014  22:56:00     -222.494     -111.868       16.223      136.666      125.622       77.187    18677.635    15780.885     5957.849        5.134        2.021      249.035       67.330        0.073      345.721       23.452      857.519
08/18/2014  22:57:00     -144.541      -54.634       20.501      144.196      102.080       70.806    20792.528    10420.333     5013.449        3.025        1.811      154.522       82.904        0.288      345.657       23.342      857.519
08/18/2014  22:58:00     -317.282      -67.391      -19.188      162.169      123.041       56.427    26298.757    15139.098     3183.951        7.509        2.231      324.360       60.132        0.034      345.704       23.422      857.513
08/18/2014  22:59:00     -294.869      -55.477       15.949      176.208      128.709       78.076    31049.363    16566.005     6095.794        7.198        2.686      300.043       90.233        0.090      345.675       23.373      857.513
08/18/2014  23:00:00     -256.485      -91.550       -6.619      123.442      130.622       81.844    15237.861    17062.224     6698.472        5.660        1.950      272.334       64.278        0.056      345.703       23.422      857.501
08/18/2014  23:01:00     -419.073     -124.279        6.207      229.342      126.461       93.355    52597.687    15992.327     8715.075       13.419        3.865      437.113      109.764        0.063      345.709       23.430      857.506
08/18/2014  23:02:00     -406.291     -176.829      -21.978      230.375      154.666       89.685    53072.646    23921.567     8043.338       14.091        4.252      443.104      103.841        0.055      345.762       23.520      857.517
08/18/2014  23:03:00     -333.721     -139.154       -5.016      188.404      130.503       68.083    35495.920    17030.918     4635.265        9.395        2.858      361.571       76.362        0.045      345.733       23.473      857.500
08/18/2014  23:04:00     -344.313     -118.574      -13.083      151.664      159.890       75.236    23001.974    25564.793     5660.410        9.349        2.711      364.158       64.599        0.031      345.711       23.434      857.530
08/18/2014  23:05:00     -403.634     -115.174      -11.549      171.238      150.659       70.683    29322.434    22698.197     4996.025       11.666        2.851      419.745       77.432        0.034      345.710       23.432      857.540
08/18/2014  23:06:00     -401.633      -76.189      -24.396      194.262      122.469       81.528    37737.803    14998.684     6646.767       11.353        2.969      408.795       98.643        0.058      345.726       23.460      857.541
08/18/2014  23:07:00     -240.445     -151.171        3.479      195.082      117.056       76.960    38056.798    13702.120     5922.831        6.917        2.884      284.019      102.136        0.129      345.696       23.407      857.528
08/18/2014  23:08:00     -324.092      -99.832       -8.110      180.309      120.694       69.799    32511.284    14567.055     4871.885        8.350        2.598      339.120       79.707        0.055      345.690       23.397      857.554
08/18/2014  23:09:00     -294.177     -166.090       -7.775      153.551      137.025       73.545    23577.786    18775.742     5408.875        8.096        2.388      337.825       69.980        0.043      345.707       23.429      857.545
08/18/2014  23:10:00     -362.585     -118.703      -25.211      171.923      141.010       74.669    29557.467    19883.824     5575.443       10.059        2.751      381.521       78.363        0.042      345.673       23.368      857.571
08/18/2014  23:11:00     -217.755      -69.922       -3.065      133.583       97.575       75.158    17844.536     9520.870     5648.734        4.266        1.651      228.706       78.874        0.119      345.682       23.386      857.569
08/18/2014  23:12:00     -348.660      -16.543      -25.698      238.843      150.224       75.672    57045.823    22567.143     5726.242       10.390        4.267      349.052       65.174        0.035      345.696       23.408      857.584
08/18/2014  23:13:00     -333.942      -29.844      -20.268      201.314      134.316       70.894    40527.397    18040.788     5025.939        8.819        3.180      335.272       72.832        0.047      345.674       23.370      857.593
08/18/2014  23:14:00     -337.273      -35.095      -20.733      226.854      118.256       76.350    51462.914    13984.509     5829.361        9.333        3.564      339.094       93.472        0.076      345.636       23.305      857.592
08/18/2014  23:15:00     -240.143      -53.595       -9.636      155.392      116.890       58.402    24146.799    13663.312     3410.795        5.092        2.061      246.051       68.067        0.077      345.621       23.279      857.594
08/18/2014  23:16:00     -257.892      -15.506       -5.368      135.244      124.572       70.108    18290.838    15518.288     4915.177        5.274        1.936      258.358       65.687        0.065      345.607       23.254      857.606
08/18/2014  23:17:00     -298.794        2.439      -15.032      186.420      145.485       70.793    34752.250    21165.848     5011.616        7.521        3.046      298.804       80.298        0.072      345.623       23.284      857.608
08/18/2014  23:18:00     -328.023      -25.527      -30.552      143.306      132.764       62.331    20536.663    17626.390     3885.099        7.561        2.102      329.015       67.084        0.042      345.625       23.283      857.614
08/18/2014  23:19:00     -247.984        8.146       -7.857      118.122       81.238       50.119    13952.723     6599.681     2511.945        4.234        1.153      248.118       44.565        0.032      345.617       23.272      857.613
08/18/2014  23:20:00     -158.709      -29.813      -12.300      117.015       65.221       60.805    13692.541     4253.844     3697.280        2.393        1.082      161.485       72.004        0.199      345.597       23.239      857.609
08/18/2014  23:21:00     -182.381      -47.215      -13.100      103.464      107.285       54.344    10704.870    11509.988     2953.304        3.041        1.258      188.394       54.357        0.083      345.597       23.238      857.594
08/18/2014  23:22:00     -247.838      -92.283       -6.767      156.620      109.391       57.984    24529.710    11966.376     3362.161        5.491        1.993      264.461       68.081        0.066      345.585       23.217      857.646
08/18/2014  23:23:00     -235.245      -31.377      -12.359       92.031      107.425       49.136     8469.754    11540.168     2414.363        3.945        1.121      237.328       33.502        0.020      345.623       23.282      857.665
08/18/2014  23:24:00     -213.261       24.224      -17.801      110.154       79.473       55.491    12133.910     6315.946     3079.298        3.395        1.076      214.633       58.825        0.075      345.635       23.304      857.667
08/18/2014  23:25:00     -115.376       -8.315       -8.837       78.471       63.696       45.233     6157.635     4057.158     2046.000        1.286        0.613      115.675       45.129        0.152      345.629       23.296      857.657
08/18/2014  23:26:00     -170.441      -38.281      -15.581      104.875       78.934       41.918    10998.677     6230.532     1757.083        2.487        0.949      174.687       52.027        0.089      345.612       23.265      857.696
08/18/2014  23:27:00     -196.624       31.142      -14.858       77.451       82.421       43.158     5998.650     6793.155     1862.649        2.725        0.733      199.075       37.856        0.036      345.578       23.207      857.724
08/18/2014  23:28:00     -151.410      151.380      -19.850       79.186       96.851       54.157     6270.386     9380.156     2932.935        3.241        0.929      214.105       36.279        0.029      345.569       23.191      857.750
08/18/2014  23:29:00     -117.692       78.077      -11.416       77.746      102.237       36.509     6044.381    10452.333     1332.890        1.895        0.891      141.235       24.820        0.031      345.583       23.215      857.749
08/18/2014  23:30:00     -249.541      -29.707      -22.493      125.803      134.046       61.157    15826.416    17968.328     3740.122        5.059        1.877      251.303       64.571        0.066      345.611       23.262      857.790
08/18/2014  23:31:00     -122.947       22.725       -0.967       69.914       73.069       42.774     4888.015     5339.100     1829.622        1.384        0.603      125.030       38.310        0.094      345.595       23.235      857.809
08/18/2014  23:32:00      -46.922       43.687        0.780       72.777       49.201       45.177     5296.543     2420.706     2040.932        0.693        0.488       64.111       44.839        0.489      345.526       23.118      857.800
08/18/2014  23:33:00      -97.522      113.834      -18.816       50.184       82.975       36.855     2518.468     6884.847     1358.255        1.679        0.538      149.896       38.051        0.064      345.588       23.224      857.808
08/18/2014  23:34:00     -146.869       27.421      -26.887       60.605       95.305       35.913     3672.936     9083.086     1289.762        1.854        0.702      149.407       31.927        0.046      345.593       23.233      857.837
08/18/2014  23:35:00     -132.116      126.162      -26.523       90.628       84.874       41.315     8213.475     7203.645     1706.960        2.560        0.856      182.678       46.579        0.065      345.588       23.224      857.857
08/18/2014  23:36:00     -155.597      154.566      -28.657       87.324       57.420       37.992     7625.416     3297.036     1443.425        3.064        0.618      219.320       35.962        0.027      345.614       23.266      857.841
08/18/2014  23:37:00      -70.957      110.070      -13.423       64.094       80.297       38.872     4108.041     6447.570     1511.066        1.470        0.603      130.959       44.113        0.113      345.507       23.085      857.850
08/18/2014  23:38:00      -59.856      204.754      -27.600       48.087       90.354       33.578     2312.322     8163.855     1127.494        2.893        0.580      213.323       40.803        0.037      345.476       23.029      857.858
08/18/2014  23:39:00      -67.632      194.660      -32.752       39.945       60.351       27.912     1595.643     3642.245      779.052        2.478        0.301      206.074       21.273        0.011      345.391       22.886      857.867
08/18/2014  23:40:00      -93.068      148.693      -35.033      106.633       92.137       42.090    11370.605     8489.264     1771.608        2.681        1.082      175.417       50.707        0.084      345.484       23.045      857.863
08/18/2014  23:41:00      -22.894      197.724      -33.101       91.971       84.166       36.677     8458.616     7083.947     1345.204        2.880        0.844      199.045       38.351        0.037      345.359       22.829      857.875
08/18/2014  23:42:00      -72.583      179.053       -8.745       61.261      125.616       44.234     3752.950    15779.504     1956.621        2.944        1.074      193.205       47.131        0.060      345.357       22.827      857.896
08/18/2014  23:43:00     -115.328      101.539      -27.084       64.460       55.021       32.635     4155.049     3027.339     1065.060        1.629        0.412      153.658       35.234        0.053      345.491       23.058      857.928
08/18/2014  23:44:00      -48.653       91.270       -4.360       67.406       73.495       48.106     4543.544     5401.549     2314.179        1.149        0.613      103.428       31.432        0.092      345.414       22.926      857.969
08/18/2014  23:45:00     -133.234       65.073      -11.227       57.797       77.524       39.881     3340.513     6010.038     1590.507        1.652        0.547      148.276       36.293        0.060      345.402       22.906      857.961
08/18/2014  23:46:00      -54.038      176.215      -15.776       44.119       73.333       33.030     1946.516     5377.697     1090.949        2.132        0.421      184.315       36.607        0.039      345.515       23.097      857.949
08/18/2014  23:47:00     -103.658      107.262      -21.131       45.573       58.126       31.722     2076.938     3378.589     1006.283        1.458        0.323      149.165       20.002        0.018      345.447       22.982      857.974
08/18/2014  23:48:00      -55.241      117.629       -7.545       54.300       71.105       36.874     2948.491     5055.898     1359.709        1.315        0.468      129.954       40.383        0.097      345.396       22.895      857.996
08/18/2014  23:49:00      -26.212      149.758      -39.477       60.158      121.769       48.365     3619.035    14827.629     2339.161        2.273        1.039      152.035       23.845        0.025      345.491       23.056      857.980
08/18/2014  23:50:00      -57.172      112.310      -13.550       76.438       60.129       27.778     5842.769     3615.455      771.637        1.315        0.511      126.024       19.321        0.024      345.370       22.852      857.994
08/18/2014  23:51:00       20.383      120.757       -4.073       36.693       59.104       36.981     1346.401     3493.242     1367.564        1.061        0.310      122.465       32.612        0.071      345.377       22.863      857.980
08/18/2014  23:52:00      -36.011       69.741      -21.002       29.822       25.428       13.625      889.343      646.568      185.646        0.416        0.086       78.489       11.317        0.021      345.303       22.736      857.991
08/18/2014  23:53:00      -31.884       50.957      -13.389       46.209       18.567       13.832     2135.260      344.725      191.333        0.323        0.134       60.110       19.405        0.104      345.346       22.811      857.990
08/18/2014  23:54:00      -74.519       24.469       -9.960       17.755       18.503       13.776      315.231      342.378      189.766        0.355        0.042       78.433        5.928        0.006      345.369       22.849      858.026
08/18/2014  23:55:00      -36.525       36.165      -14.245       18.742       30.970       12.062      351.255      959.120      145.499        0.215        0.073       51.400       10.494        0.042      345.315       22.759      858.047
08/18/2014  23:56:00      -79.099        3.040      -10.693       34.604       31.577       16.800     1197.459      997.125      282.254        0.443        0.124       79.158       15.549        0.039      345.348       22.813      858.067
08/18/2014  23:57:00      -49.898       86.854      -11.449       40.209       38.253       17.727     1616.751     1463.291      314.263        0.678        0.170      100.167       13.854        0.019      345.262       22.667      858.070
08/18/2014  23:58:00      -97.164       88.239      -20.823       50.750       56.039       31.962     2575.542     3140.340     1021.546        1.220        0.337      131.251       28.257        0.046      345.253       22.651      858.064
08/18/2014  23:59:00      -76.455      117.013      -27.141       67.295       51.883       27.376     4528.580     2691.837      749.435        1.412        0.398      139.776       29.752        0.045      345.497       23.068      858.054
